<?xml version="1.0" encoding="UTF-8" standalone="no" ?>
<gpx xmlns="http://www.topografix.com/GPX/1/1" xmlns:xsi="http://www.w3.org/2001/XMLSchema-instance" xsi:schemaLocation="http://www.topografix.com/GPX/1/1 http://www.topografix.com/GPX/1/1/gpx.xsd" version="1.1" creator="VisuGPX - https://www.visugpx.com">
  <metadata>
    <name>La Sambuy</name>
    <desc><![CDATA[Départ du parking de la station de la Sambuy, montée jusqu'au sommet de l'ancien télésiège
Photos et infos sur : https://www.photosrandos.fr]]></desc>
  </metadata>
  <trk>
    <name><![CDATA[suuntoapp-SkiTouring-2026-03-15T08-50-16Z]]></name>
    <trkseg>
      <trkpt lat="45.71332" lon="6.27466">
        <ele>1144</ele>
        <time>2026-03-15T08:51:09Z</time>
      </trkpt>
      <trkpt lat="45.71331" lon="6.27453">
        <ele>1144</ele>
        <time>2026-03-15T08:51:19Z</time>
      </trkpt>
      <trkpt lat="45.7133" lon="6.27441">
        <ele>1145</ele>
        <time>2026-03-15T08:51:31Z</time>
      </trkpt>
      <trkpt lat="45.7133" lon="6.27428">
        <ele>1148</ele>
        <time>2026-03-15T08:51:45Z</time>
      </trkpt>
      <trkpt lat="45.71328" lon="6.27415">
        <ele>1148</ele>
        <time>2026-03-15T08:51:56Z</time>
      </trkpt>
      <trkpt lat="45.71327" lon="6.27402">
        <ele>1150</ele>
        <time>2026-03-15T08:52:10Z</time>
      </trkpt>
      <trkpt lat="45.71327" lon="6.27388">
        <ele>1151</ele>
        <time>2026-03-15T08:52:24Z</time>
      </trkpt>
      <trkpt lat="45.71327" lon="6.27376">
        <ele>1153</ele>
        <time>2026-03-15T08:52:38Z</time>
      </trkpt>
      <trkpt lat="45.71328" lon="6.27363">
        <ele>1155</ele>
        <time>2026-03-15T08:52:51Z</time>
      </trkpt>
      <trkpt lat="45.7133" lon="6.27351">
        <ele>1157</ele>
        <time>2026-03-15T08:53:05Z</time>
      </trkpt>
      <trkpt lat="45.7133" lon="6.27338">
        <ele>1158</ele>
        <time>2026-03-15T08:53:18Z</time>
      </trkpt>
      <trkpt lat="45.71335" lon="6.27326">
        <ele>1160</ele>
        <time>2026-03-15T08:53:35Z</time>
      </trkpt>
      <trkpt lat="45.71329" lon="6.27315">
        <ele>1161</ele>
        <time>2026-03-15T08:53:50Z</time>
      </trkpt>
      <trkpt lat="45.71326" lon="6.27303">
        <ele>1162</ele>
        <time>2026-03-15T08:53:59Z</time>
      </trkpt>
      <trkpt lat="45.71322" lon="6.27292">
        <ele>1163</ele>
        <time>2026-03-15T08:54:08Z</time>
      </trkpt>
      <trkpt lat="45.71318" lon="6.27279">
        <ele>1163</ele>
        <time>2026-03-15T08:54:22Z</time>
      </trkpt>
      <trkpt lat="45.71326" lon="6.27275">
        <ele>1164</ele>
        <time>2026-03-15T08:54:30Z</time>
      </trkpt>
      <trkpt lat="45.71324" lon="6.27263">
        <ele>1167</ele>
        <time>2026-03-15T08:54:48Z</time>
      </trkpt>
      <trkpt lat="45.71319" lon="6.27251">
        <ele>1168</ele>
        <time>2026-03-15T08:55:03Z</time>
      </trkpt>
      <trkpt lat="45.71313" lon="6.2724">
        <ele>1169</ele>
        <time>2026-03-15T08:55:18Z</time>
      </trkpt>
      <trkpt lat="45.71308" lon="6.27229">
        <ele>1171</ele>
        <time>2026-03-15T08:55:30Z</time>
      </trkpt>
      <trkpt lat="45.71301" lon="6.27221">
        <ele>1173</ele>
        <time>2026-03-15T08:55:43Z</time>
      </trkpt>
      <trkpt lat="45.71295" lon="6.27211">
        <ele>1175</ele>
        <time>2026-03-15T08:55:57Z</time>
      </trkpt>
      <trkpt lat="45.71288" lon="6.27203">
        <ele>1177</ele>
        <time>2026-03-15T08:56:13Z</time>
      </trkpt>
      <trkpt lat="45.71281" lon="6.27195">
        <ele>1178</ele>
        <time>2026-03-15T08:56:27Z</time>
      </trkpt>
      <trkpt lat="45.7128" lon="6.27193">
        <ele>1178</ele>
        <time>2026-03-15T08:56:32Z</time>
      </trkpt>
      <trkpt lat="45.71279" lon="6.27191">
        <ele>1179</ele>
        <time>2026-03-15T08:56:37Z</time>
      </trkpt>
      <trkpt lat="45.71277" lon="6.2719">
        <ele>1179</ele>
        <time>2026-03-15T08:56:40Z</time>
      </trkpt>
      <trkpt lat="45.71275" lon="6.27188">
        <ele>1179</ele>
        <time>2026-03-15T08:56:43Z</time>
      </trkpt>
      <trkpt lat="45.71273" lon="6.27186">
        <ele>1180</ele>
        <time>2026-03-15T08:56:46Z</time>
      </trkpt>
      <trkpt lat="45.7127" lon="6.27185">
        <ele>1180</ele>
        <time>2026-03-15T08:56:49Z</time>
      </trkpt>
      <trkpt lat="45.71268" lon="6.27183">
        <ele>1180</ele>
        <time>2026-03-15T08:56:52Z</time>
      </trkpt>
      <trkpt lat="45.71266" lon="6.2718">
        <ele>1181</ele>
        <time>2026-03-15T08:56:54Z</time>
      </trkpt>
      <trkpt lat="45.71264" lon="6.27179">
        <ele>1181</ele>
        <time>2026-03-15T08:56:57Z</time>
      </trkpt>
      <trkpt lat="45.71261" lon="6.27176">
        <ele>1181</ele>
        <time>2026-03-15T08:57:02Z</time>
      </trkpt>
      <trkpt lat="45.7126" lon="6.27174">
        <ele>1182</ele>
        <time>2026-03-15T08:57:06Z</time>
      </trkpt>
      <trkpt lat="45.71258" lon="6.27172">
        <ele>1182</ele>
        <time>2026-03-15T08:57:10Z</time>
      </trkpt>
      <trkpt lat="45.71256" lon="6.2717">
        <ele>1182</ele>
        <time>2026-03-15T08:57:14Z</time>
      </trkpt>
      <trkpt lat="45.71254" lon="6.27168">
        <ele>1183</ele>
        <time>2026-03-15T08:57:18Z</time>
      </trkpt>
      <trkpt lat="45.71252" lon="6.27167">
        <ele>1183</ele>
        <time>2026-03-15T08:57:21Z</time>
      </trkpt>
      <trkpt lat="45.71244" lon="6.27161">
        <ele>1184</ele>
        <time>2026-03-15T08:57:34Z</time>
      </trkpt>
      <trkpt lat="45.7124" lon="6.27159">
        <ele>1185</ele>
        <time>2026-03-15T08:57:41Z</time>
      </trkpt>
      <trkpt lat="45.71238" lon="6.27157">
        <ele>1186</ele>
        <time>2026-03-15T08:57:45Z</time>
      </trkpt>
      <trkpt lat="45.71236" lon="6.27156">
        <ele>1186</ele>
        <time>2026-03-15T08:57:48Z</time>
      </trkpt>
      <trkpt lat="45.71234" lon="6.27155">
        <ele>1186</ele>
        <time>2026-03-15T08:57:51Z</time>
      </trkpt>
      <trkpt lat="45.71233" lon="6.27154">
        <ele>1186</ele>
        <time>2026-03-15T08:57:54Z</time>
      </trkpt>
      <trkpt lat="45.71228" lon="6.27152">
        <ele>1187</ele>
        <time>2026-03-15T08:58:00Z</time>
      </trkpt>
      <trkpt lat="45.71226" lon="6.27151">
        <ele>1187</ele>
        <time>2026-03-15T08:58:03Z</time>
      </trkpt>
      <trkpt lat="45.71217" lon="6.2715">
        <ele>1190</ele>
        <time>2026-03-15T08:58:15Z</time>
      </trkpt>
      <trkpt lat="45.71215" lon="6.27151">
        <ele>1190</ele>
        <time>2026-03-15T08:58:18Z</time>
      </trkpt>
      <trkpt lat="45.71214" lon="6.27153">
        <ele>1190</ele>
        <time>2026-03-15T08:58:23Z</time>
      </trkpt>
      <trkpt lat="45.71214" lon="6.27155">
        <ele>1191</ele>
        <time>2026-03-15T08:58:28Z</time>
      </trkpt>
      <trkpt lat="45.71214" lon="6.27157">
        <ele>1191</ele>
        <time>2026-03-15T08:58:30Z</time>
      </trkpt>
      <trkpt lat="45.71215" lon="6.2716">
        <ele>1191</ele>
        <time>2026-03-15T08:58:33Z</time>
      </trkpt>
      <trkpt lat="45.71217" lon="6.27162">
        <ele>1193</ele>
        <time>2026-03-15T08:58:36Z</time>
      </trkpt>
      <trkpt lat="45.71218" lon="6.27164">
        <ele>1193</ele>
        <time>2026-03-15T08:58:39Z</time>
      </trkpt>
      <trkpt lat="45.7122" lon="6.27165">
        <ele>1193</ele>
        <time>2026-03-15T08:58:42Z</time>
      </trkpt>
      <trkpt lat="45.71222" lon="6.27168">
        <ele>1193</ele>
        <time>2026-03-15T08:58:46Z</time>
      </trkpt>
      <trkpt lat="45.71224" lon="6.2717">
        <ele>1193</ele>
        <time>2026-03-15T08:58:49Z</time>
      </trkpt>
      <trkpt lat="45.71224" lon="6.2717">
        <ele>1193</ele>
        <time>2026-03-15T08:58:50Z</time>
      </trkpt>
      <trkpt lat="45.71225" lon="6.27173">
        <ele>1193</ele>
        <time>2026-03-15T08:58:53Z</time>
      </trkpt>
      <trkpt lat="45.71228" lon="6.27176">
        <ele>1195</ele>
        <time>2026-03-15T08:58:58Z</time>
      </trkpt>
      <trkpt lat="45.71229" lon="6.27178">
        <ele>1195</ele>
        <time>2026-03-15T08:59:01Z</time>
      </trkpt>
      <trkpt lat="45.7123" lon="6.2718">
        <ele>1195</ele>
        <time>2026-03-15T08:59:04Z</time>
      </trkpt>
      <trkpt lat="45.71232" lon="6.27184">
        <ele>1195</ele>
        <time>2026-03-15T08:59:09Z</time>
      </trkpt>
      <trkpt lat="45.71233" lon="6.27186">
        <ele>1195</ele>
        <time>2026-03-15T08:59:12Z</time>
      </trkpt>
      <trkpt lat="45.71234" lon="6.27189">
        <ele>1196</ele>
        <time>2026-03-15T08:59:15Z</time>
      </trkpt>
      <trkpt lat="45.71235" lon="6.27191">
        <ele>1196</ele>
        <time>2026-03-15T08:59:18Z</time>
      </trkpt>
      <trkpt lat="45.71236" lon="6.27193">
        <ele>1196</ele>
        <time>2026-03-15T08:59:21Z</time>
      </trkpt>
      <trkpt lat="45.71237" lon="6.27195">
        <ele>1196</ele>
        <time>2026-03-15T08:59:24Z</time>
      </trkpt>
      <trkpt lat="45.71239" lon="6.27197">
        <ele>1196</ele>
        <time>2026-03-15T08:59:28Z</time>
      </trkpt>
      <trkpt lat="45.71239" lon="6.27199">
        <ele>1196</ele>
        <time>2026-03-15T08:59:30Z</time>
      </trkpt>
      <trkpt lat="45.71241" lon="6.27201">
        <ele>1196</ele>
        <time>2026-03-15T08:59:33Z</time>
      </trkpt>
      <trkpt lat="45.71243" lon="6.27203">
        <ele>1198</ele>
        <time>2026-03-15T08:59:36Z</time>
      </trkpt>
      <trkpt lat="45.71244" lon="6.27206">
        <ele>1198</ele>
        <time>2026-03-15T08:59:39Z</time>
      </trkpt>
      <trkpt lat="45.71245" lon="6.27208">
        <ele>1198</ele>
        <time>2026-03-15T08:59:42Z</time>
      </trkpt>
      <trkpt lat="45.71246" lon="6.27211">
        <ele>1199</ele>
        <time>2026-03-15T08:59:46Z</time>
      </trkpt>
      <trkpt lat="45.71247" lon="6.27214">
        <ele>1199</ele>
        <time>2026-03-15T08:59:49Z</time>
      </trkpt>
      <trkpt lat="45.71248" lon="6.27215">
        <ele>1199</ele>
        <time>2026-03-15T08:59:51Z</time>
      </trkpt>
      <trkpt lat="45.71249" lon="6.27218">
        <ele>1199</ele>
        <time>2026-03-15T08:59:54Z</time>
      </trkpt>
      <trkpt lat="45.71249" lon="6.2722">
        <ele>1200</ele>
        <time>2026-03-15T08:59:58Z</time>
      </trkpt>
      <trkpt lat="45.71249" lon="6.27222">
        <ele>1200</ele>
        <time>2026-03-15T09:00:00Z</time>
      </trkpt>
      <trkpt lat="45.7125" lon="6.27225">
        <ele>1200</ele>
        <time>2026-03-15T09:00:03Z</time>
      </trkpt>
      <trkpt lat="45.7125" lon="6.27227">
        <ele>1202</ele>
        <time>2026-03-15T09:00:05Z</time>
      </trkpt>
      <trkpt lat="45.7125" lon="6.2723">
        <ele>1202</ele>
        <time>2026-03-15T09:00:08Z</time>
      </trkpt>
      <trkpt lat="45.7125" lon="6.27233">
        <ele>1202</ele>
        <time>2026-03-15T09:00:11Z</time>
      </trkpt>
      <trkpt lat="45.7125" lon="6.27236">
        <ele>1203</ele>
        <time>2026-03-15T09:00:15Z</time>
      </trkpt>
      <trkpt lat="45.7125" lon="6.27238">
        <ele>1203</ele>
        <time>2026-03-15T09:00:18Z</time>
      </trkpt>
      <trkpt lat="45.71249" lon="6.27241">
        <ele>1203</ele>
        <time>2026-03-15T09:00:21Z</time>
      </trkpt>
      <trkpt lat="45.71249" lon="6.27244">
        <ele>1203</ele>
        <time>2026-03-15T09:00:24Z</time>
      </trkpt>
      <trkpt lat="45.71249" lon="6.27247">
        <ele>1204</ele>
        <time>2026-03-15T09:00:27Z</time>
      </trkpt>
      <trkpt lat="45.71248" lon="6.2725">
        <ele>1204</ele>
        <time>2026-03-15T09:00:30Z</time>
      </trkpt>
      <trkpt lat="45.71249" lon="6.27253">
        <ele>1204</ele>
        <time>2026-03-15T09:00:33Z</time>
      </trkpt>
      <trkpt lat="45.71248" lon="6.27256">
        <ele>1204</ele>
        <time>2026-03-15T09:00:36Z</time>
      </trkpt>
      <trkpt lat="45.71249" lon="6.27259">
        <ele>1204</ele>
        <time>2026-03-15T09:00:39Z</time>
      </trkpt>
      <trkpt lat="45.71249" lon="6.2726">
        <ele>1204</ele>
        <time>2026-03-15T09:00:40Z</time>
      </trkpt>
      <trkpt lat="45.71249" lon="6.27263">
        <ele>1204</ele>
        <time>2026-03-15T09:00:43Z</time>
      </trkpt>
      <trkpt lat="45.71249" lon="6.27266">
        <ele>1206</ele>
        <time>2026-03-15T09:00:46Z</time>
      </trkpt>
      <trkpt lat="45.71249" lon="6.27268">
        <ele>1206</ele>
        <time>2026-03-15T09:00:49Z</time>
      </trkpt>
      <trkpt lat="45.71249" lon="6.27271">
        <ele>1206</ele>
        <time>2026-03-15T09:00:52Z</time>
      </trkpt>
      <trkpt lat="45.71249" lon="6.27274">
        <ele>1207</ele>
        <time>2026-03-15T09:00:55Z</time>
      </trkpt>
      <trkpt lat="45.71249" lon="6.27277">
        <ele>1207</ele>
        <time>2026-03-15T09:00:58Z</time>
      </trkpt>
      <trkpt lat="45.71248" lon="6.2728">
        <ele>1207</ele>
        <time>2026-03-15T09:01:01Z</time>
      </trkpt>
      <trkpt lat="45.71247" lon="6.27282">
        <ele>1208</ele>
        <time>2026-03-15T09:01:04Z</time>
      </trkpt>
      <trkpt lat="45.71246" lon="6.27285">
        <ele>1208</ele>
        <time>2026-03-15T09:01:07Z</time>
      </trkpt>
      <trkpt lat="45.71246" lon="6.27287">
        <ele>1208</ele>
        <time>2026-03-15T09:01:09Z</time>
      </trkpt>
      <trkpt lat="45.71245" lon="6.27289">
        <ele>1208</ele>
        <time>2026-03-15T09:01:12Z</time>
      </trkpt>
      <trkpt lat="45.71244" lon="6.27292">
        <ele>1210</ele>
        <time>2026-03-15T09:01:17Z</time>
      </trkpt>
      <trkpt lat="45.71244" lon="6.27294">
        <ele>1210</ele>
        <time>2026-03-15T09:01:20Z</time>
      </trkpt>
      <trkpt lat="45.71243" lon="6.27297">
        <ele>1210</ele>
        <time>2026-03-15T09:01:24Z</time>
      </trkpt>
      <trkpt lat="45.71242" lon="6.27299">
        <ele>1210</ele>
        <time>2026-03-15T09:02:37Z</time>
      </trkpt>
      <trkpt lat="45.7124" lon="6.27301">
        <ele>1210</ele>
        <time>2026-03-15T09:02:40Z</time>
      </trkpt>
      <trkpt lat="45.71238" lon="6.27303">
        <ele>1210</ele>
        <time>2026-03-15T09:02:43Z</time>
      </trkpt>
      <trkpt lat="45.71237" lon="6.27306">
        <ele>1210</ele>
        <time>2026-03-15T09:02:46Z</time>
      </trkpt>
      <trkpt lat="45.71235" lon="6.27308">
        <ele>1210</ele>
        <time>2026-03-15T09:02:49Z</time>
      </trkpt>
      <trkpt lat="45.71234" lon="6.27309">
        <ele>1210</ele>
        <time>2026-03-15T09:02:50Z</time>
      </trkpt>
      <trkpt lat="45.71233" lon="6.27312">
        <ele>1210</ele>
        <time>2026-03-15T09:02:53Z</time>
      </trkpt>
      <trkpt lat="45.71232" lon="6.27314">
        <ele>1212</ele>
        <time>2026-03-15T09:02:56Z</time>
      </trkpt>
      <trkpt lat="45.7123" lon="6.27317">
        <ele>1212</ele>
        <time>2026-03-15T09:02:59Z</time>
      </trkpt>
      <trkpt lat="45.71229" lon="6.27319">
        <ele>1212</ele>
        <time>2026-03-15T09:03:02Z</time>
      </trkpt>
      <trkpt lat="45.71228" lon="6.27321">
        <ele>1212</ele>
        <time>2026-03-15T09:03:05Z</time>
      </trkpt>
      <trkpt lat="45.71226" lon="6.27324">
        <ele>1212</ele>
        <time>2026-03-15T09:03:08Z</time>
      </trkpt>
      <trkpt lat="45.71225" lon="6.27326">
        <ele>1212</ele>
        <time>2026-03-15T09:03:11Z</time>
      </trkpt>
      <trkpt lat="45.71221" lon="6.27332">
        <ele>1213</ele>
        <time>2026-03-15T09:03:18Z</time>
      </trkpt>
      <trkpt lat="45.7122" lon="6.27333">
        <ele>1213</ele>
        <time>2026-03-15T09:03:20Z</time>
      </trkpt>
      <trkpt lat="45.71219" lon="6.27335">
        <ele>1213</ele>
        <time>2026-03-15T09:03:23Z</time>
      </trkpt>
      <trkpt lat="45.71217" lon="6.27337">
        <ele>1215</ele>
        <time>2026-03-15T09:03:26Z</time>
      </trkpt>
      <trkpt lat="45.71215" lon="6.27339">
        <ele>1215</ele>
        <time>2026-03-15T09:03:29Z</time>
      </trkpt>
      <trkpt lat="45.71214" lon="6.2734">
        <ele>1215</ele>
        <time>2026-03-15T09:03:32Z</time>
      </trkpt>
      <trkpt lat="45.71212" lon="6.27342">
        <ele>1216</ele>
        <time>2026-03-15T09:03:35Z</time>
      </trkpt>
      <trkpt lat="45.7121" lon="6.27344">
        <ele>1216</ele>
        <time>2026-03-15T09:03:38Z</time>
      </trkpt>
      <trkpt lat="45.71207" lon="6.27346">
        <ele>1216</ele>
        <time>2026-03-15T09:03:43Z</time>
      </trkpt>
      <trkpt lat="45.71204" lon="6.27348">
        <ele>1217</ele>
        <time>2026-03-15T09:03:46Z</time>
      </trkpt>
      <trkpt lat="45.71203" lon="6.2735">
        <ele>1217</ele>
        <time>2026-03-15T09:03:48Z</time>
      </trkpt>
      <trkpt lat="45.71199" lon="6.27354">
        <ele>1218</ele>
        <time>2026-03-15T09:03:58Z</time>
      </trkpt>
      <trkpt lat="45.71198" lon="6.27355">
        <ele>1218</ele>
        <time>2026-03-15T09:04:00Z</time>
      </trkpt>
      <trkpt lat="45.71196" lon="6.27356">
        <ele>1218</ele>
        <time>2026-03-15T09:04:03Z</time>
      </trkpt>
      <trkpt lat="45.71194" lon="6.27358">
        <ele>1220</ele>
        <time>2026-03-15T09:04:06Z</time>
      </trkpt>
      <trkpt lat="45.71193" lon="6.2736">
        <ele>1220</ele>
        <time>2026-03-15T09:04:09Z</time>
      </trkpt>
      <trkpt lat="45.71189" lon="6.27364">
        <ele>1220</ele>
        <time>2026-03-15T09:04:15Z</time>
      </trkpt>
      <trkpt lat="45.71186" lon="6.27365">
        <ele>1220</ele>
        <time>2026-03-15T09:04:19Z</time>
      </trkpt>
      <trkpt lat="45.71184" lon="6.27367">
        <ele>1220</ele>
        <time>2026-03-15T09:04:22Z</time>
      </trkpt>
      <trkpt lat="45.71181" lon="6.2737">
        <ele>1221</ele>
        <time>2026-03-15T09:04:26Z</time>
      </trkpt>
      <trkpt lat="45.7118" lon="6.27372">
        <ele>1221</ele>
        <time>2026-03-15T09:04:29Z</time>
      </trkpt>
      <trkpt lat="45.71176" lon="6.27377">
        <ele>1225</ele>
        <time>2026-03-15T09:04:36Z</time>
      </trkpt>
      <trkpt lat="45.71172" lon="6.27382">
        <ele>1225</ele>
        <time>2026-03-15T09:04:45Z</time>
      </trkpt>
      <trkpt lat="45.7117" lon="6.27384">
        <ele>1225</ele>
        <time>2026-03-15T09:04:49Z</time>
      </trkpt>
      <trkpt lat="45.71169" lon="6.27385">
        <ele>1225</ele>
        <time>2026-03-15T09:04:51Z</time>
      </trkpt>
      <trkpt lat="45.71168" lon="6.27388">
        <ele>1227</ele>
        <time>2026-03-15T09:04:55Z</time>
      </trkpt>
      <trkpt lat="45.71166" lon="6.2739">
        <ele>1227</ele>
        <time>2026-03-15T09:04:59Z</time>
      </trkpt>
      <trkpt lat="45.71165" lon="6.27392">
        <ele>1227</ele>
        <time>2026-03-15T09:05:03Z</time>
      </trkpt>
      <trkpt lat="45.71163" lon="6.27394">
        <ele>1227</ele>
        <time>2026-03-15T09:05:06Z</time>
      </trkpt>
      <trkpt lat="45.71162" lon="6.27396">
        <ele>1227</ele>
        <time>2026-03-15T09:05:09Z</time>
      </trkpt>
      <trkpt lat="45.71161" lon="6.27397">
        <ele>1227</ele>
        <time>2026-03-15T09:05:11Z</time>
      </trkpt>
      <trkpt lat="45.7116" lon="6.27399">
        <ele>1227</ele>
        <time>2026-03-15T09:05:14Z</time>
      </trkpt>
      <trkpt lat="45.71158" lon="6.27401">
        <ele>1228</ele>
        <time>2026-03-15T09:05:17Z</time>
      </trkpt>
      <trkpt lat="45.71157" lon="6.27403">
        <ele>1228</ele>
        <time>2026-03-15T09:05:20Z</time>
      </trkpt>
      <trkpt lat="45.71156" lon="6.27404">
        <ele>1228</ele>
        <time>2026-03-15T09:05:23Z</time>
      </trkpt>
      <trkpt lat="45.71154" lon="6.27406">
        <ele>1229</ele>
        <time>2026-03-15T09:05:27Z</time>
      </trkpt>
      <trkpt lat="45.71152" lon="6.27409">
        <ele>1229</ele>
        <time>2026-03-15T09:05:31Z</time>
      </trkpt>
      <trkpt lat="45.7115" lon="6.27411">
        <ele>1230</ele>
        <time>2026-03-15T09:05:35Z</time>
      </trkpt>
      <trkpt lat="45.71148" lon="6.27412">
        <ele>1230</ele>
        <time>2026-03-15T09:05:39Z</time>
      </trkpt>
      <trkpt lat="45.71146" lon="6.27414">
        <ele>1230</ele>
        <time>2026-03-15T09:05:44Z</time>
      </trkpt>
      <trkpt lat="45.71145" lon="6.2741">
        <ele>1231</ele>
        <time>2026-03-15T09:05:53Z</time>
      </trkpt>
      <trkpt lat="45.71143" lon="6.27409">
        <ele>1232</ele>
        <time>2026-03-15T09:06:42Z</time>
      </trkpt>
      <trkpt lat="45.71141" lon="6.27409">
        <ele>1231</ele>
        <time>2026-03-15T09:06:51Z</time>
      </trkpt>
      <trkpt lat="45.7114" lon="6.27408">
        <ele>1231</ele>
        <time>2026-03-15T09:07:04Z</time>
      </trkpt>
      <trkpt lat="45.7114" lon="6.27405">
        <ele>1231</ele>
        <time>2026-03-15T09:07:15Z</time>
      </trkpt>
      <trkpt lat="45.71139" lon="6.27405">
        <ele>1230</ele>
        <time>2026-03-15T09:07:31Z</time>
      </trkpt>
      <trkpt lat="45.71141" lon="6.27405">
        <ele>1227</ele>
        <time>2026-03-15T09:07:51Z</time>
      </trkpt>
      <trkpt lat="45.71141" lon="6.27405">
        <ele>1227</ele>
        <time>2026-03-15T09:08:01Z</time>
      </trkpt>
      <trkpt lat="45.71143" lon="6.27405">
        <ele>1226</ele>
        <time>2026-03-15T09:08:16Z</time>
      </trkpt>
      <trkpt lat="45.71145" lon="6.27405">
        <ele>1225</ele>
        <time>2026-03-15T09:08:35Z</time>
      </trkpt>
      <trkpt lat="45.71143" lon="6.27405">
        <ele>1224</ele>
        <time>2026-03-15T09:09:16Z</time>
      </trkpt>
      <trkpt lat="45.71144" lon="6.27403">
        <ele>1223</ele>
        <time>2026-03-15T09:09:37Z</time>
      </trkpt>
      <trkpt lat="45.71139" lon="6.27401">
        <ele>1221</ele>
        <time>2026-03-15T09:10:27Z</time>
      </trkpt>
      <trkpt lat="45.7114" lon="6.27402">
        <ele>1222</ele>
        <time>2026-03-15T09:10:46Z</time>
      </trkpt>
      <trkpt lat="45.71141" lon="6.27405">
        <ele>1221</ele>
        <time>2026-03-15T09:11:07Z</time>
      </trkpt>
      <trkpt lat="45.71143" lon="6.27396">
        <ele>1221</ele>
        <time>2026-03-15T09:11:26Z</time>
      </trkpt>
      <trkpt lat="45.71144" lon="6.27394">
        <ele>1221</ele>
        <time>2026-03-15T09:11:28Z</time>
      </trkpt>
      <trkpt lat="45.71144" lon="6.27391">
        <ele>1221</ele>
        <time>2026-03-15T09:11:31Z</time>
      </trkpt>
      <trkpt lat="45.71144" lon="6.27388">
        <ele>1221</ele>
        <time>2026-03-15T09:11:35Z</time>
      </trkpt>
      <trkpt lat="45.71144" lon="6.27386">
        <ele>1221</ele>
        <time>2026-03-15T09:12:31Z</time>
      </trkpt>
      <trkpt lat="45.71146" lon="6.27386">
        <ele>1222</ele>
        <time>2026-03-15T09:12:44Z</time>
      </trkpt>
      <trkpt lat="45.71146" lon="6.27383">
        <ele>1222</ele>
        <time>2026-03-15T09:13:07Z</time>
      </trkpt>
      <trkpt lat="45.71146" lon="6.27379">
        <ele>1222</ele>
        <time>2026-03-15T09:13:10Z</time>
      </trkpt>
      <trkpt lat="45.71146" lon="6.27374">
        <ele>1222</ele>
        <time>2026-03-15T09:13:15Z</time>
      </trkpt>
      <trkpt lat="45.71146" lon="6.27371">
        <ele>1222</ele>
        <time>2026-03-15T09:13:18Z</time>
      </trkpt>
      <trkpt lat="45.71145" lon="6.27368">
        <ele>1222</ele>
        <time>2026-03-15T09:13:21Z</time>
      </trkpt>
      <trkpt lat="45.71145" lon="6.27365">
        <ele>1222</ele>
        <time>2026-03-15T09:13:24Z</time>
      </trkpt>
      <trkpt lat="45.71144" lon="6.27362">
        <ele>1222</ele>
        <time>2026-03-15T09:13:27Z</time>
      </trkpt>
      <trkpt lat="45.71144" lon="6.27359">
        <ele>1222</ele>
        <time>2026-03-15T09:13:30Z</time>
      </trkpt>
      <trkpt lat="45.71144" lon="6.27356">
        <ele>1222</ele>
        <time>2026-03-15T09:13:33Z</time>
      </trkpt>
      <trkpt lat="45.71144" lon="6.27353">
        <ele>1223</ele>
        <time>2026-03-15T09:13:37Z</time>
      </trkpt>
      <trkpt lat="45.71144" lon="6.2735">
        <ele>1223</ele>
        <time>2026-03-15T09:13:40Z</time>
      </trkpt>
      <trkpt lat="45.71143" lon="6.27347">
        <ele>1223</ele>
        <time>2026-03-15T09:13:43Z</time>
      </trkpt>
      <trkpt lat="45.71143" lon="6.27344">
        <ele>1224</ele>
        <time>2026-03-15T09:13:46Z</time>
      </trkpt>
      <trkpt lat="45.71143" lon="6.27341">
        <ele>1224</ele>
        <time>2026-03-15T09:13:49Z</time>
      </trkpt>
      <trkpt lat="45.71142" lon="6.27339">
        <ele>1224</ele>
        <time>2026-03-15T09:13:51Z</time>
      </trkpt>
      <trkpt lat="45.71142" lon="6.27337">
        <ele>1224</ele>
        <time>2026-03-15T09:13:54Z</time>
      </trkpt>
      <trkpt lat="45.71142" lon="6.27334">
        <ele>1226</ele>
        <time>2026-03-15T09:13:57Z</time>
      </trkpt>
      <trkpt lat="45.71143" lon="6.27331">
        <ele>1226</ele>
        <time>2026-03-15T09:14:01Z</time>
      </trkpt>
      <trkpt lat="45.71144" lon="6.27327">
        <ele>1227</ele>
        <time>2026-03-15T09:14:05Z</time>
      </trkpt>
      <trkpt lat="45.71145" lon="6.27325">
        <ele>1227</ele>
        <time>2026-03-15T09:14:09Z</time>
      </trkpt>
      <trkpt lat="45.71145" lon="6.27322">
        <ele>1227</ele>
        <time>2026-03-15T09:14:13Z</time>
      </trkpt>
      <trkpt lat="45.71145" lon="6.27319">
        <ele>1227</ele>
        <time>2026-03-15T09:14:18Z</time>
      </trkpt>
      <trkpt lat="45.71144" lon="6.27318">
        <ele>1229</ele>
        <time>2026-03-15T09:14:25Z</time>
      </trkpt>
      <trkpt lat="45.71141" lon="6.27319">
        <ele>1229</ele>
        <time>2026-03-15T09:14:31Z</time>
      </trkpt>
      <trkpt lat="45.7114" lon="6.27319">
        <ele>1230</ele>
        <time>2026-03-15T09:14:35Z</time>
      </trkpt>
      <trkpt lat="45.71138" lon="6.27319">
        <ele>1230</ele>
        <time>2026-03-15T09:14:38Z</time>
      </trkpt>
      <trkpt lat="45.71136" lon="6.2732">
        <ele>1230</ele>
        <time>2026-03-15T09:14:42Z</time>
      </trkpt>
      <trkpt lat="45.71134" lon="6.2732">
        <ele>1231</ele>
        <time>2026-03-15T09:14:47Z</time>
      </trkpt>
      <trkpt lat="45.71132" lon="6.2732">
        <ele>1231</ele>
        <time>2026-03-15T09:14:51Z</time>
      </trkpt>
      <trkpt lat="45.7113" lon="6.27321">
        <ele>1233</ele>
        <time>2026-03-15T09:14:55Z</time>
      </trkpt>
      <trkpt lat="45.71128" lon="6.27323">
        <ele>1233</ele>
        <time>2026-03-15T09:14:59Z</time>
      </trkpt>
      <trkpt lat="45.71127" lon="6.27324">
        <ele>1234</ele>
        <time>2026-03-15T09:15:05Z</time>
      </trkpt>
      <trkpt lat="45.71125" lon="6.27326">
        <ele>1234</ele>
        <time>2026-03-15T09:15:09Z</time>
      </trkpt>
      <trkpt lat="45.71123" lon="6.27328">
        <ele>1234</ele>
        <time>2026-03-15T09:15:12Z</time>
      </trkpt>
      <trkpt lat="45.71121" lon="6.2733">
        <ele>1235</ele>
        <time>2026-03-15T09:15:15Z</time>
      </trkpt>
      <trkpt lat="45.71119" lon="6.27331">
        <ele>1235</ele>
        <time>2026-03-15T09:15:19Z</time>
      </trkpt>
      <trkpt lat="45.71117" lon="6.27332">
        <ele>1235</ele>
        <time>2026-03-15T09:15:25Z</time>
      </trkpt>
      <trkpt lat="45.71115" lon="6.27334">
        <ele>1235</ele>
        <time>2026-03-15T09:15:29Z</time>
      </trkpt>
      <trkpt lat="45.71114" lon="6.27335">
        <ele>1235</ele>
        <time>2026-03-15T09:15:31Z</time>
      </trkpt>
      <trkpt lat="45.71108" lon="6.27339">
        <ele>1237</ele>
        <time>2026-03-15T09:15:41Z</time>
      </trkpt>
      <trkpt lat="45.711" lon="6.27346">
        <ele>1239</ele>
        <time>2026-03-15T09:15:54Z</time>
      </trkpt>
      <trkpt lat="45.71097" lon="6.27351">
        <ele>1239</ele>
        <time>2026-03-15T09:16:03Z</time>
      </trkpt>
      <trkpt lat="45.71094" lon="6.27354">
        <ele>1240</ele>
        <time>2026-03-15T09:16:09Z</time>
      </trkpt>
      <trkpt lat="45.71087" lon="6.27363">
        <ele>1242</ele>
        <time>2026-03-15T09:16:21Z</time>
      </trkpt>
      <trkpt lat="45.71086" lon="6.27366">
        <ele>1242</ele>
        <time>2026-03-15T09:16:26Z</time>
      </trkpt>
      <trkpt lat="45.71078" lon="6.27374">
        <ele>1243</ele>
        <time>2026-03-15T09:16:40Z</time>
      </trkpt>
      <trkpt lat="45.71073" lon="6.27385">
        <ele>1244</ele>
        <time>2026-03-15T09:16:55Z</time>
      </trkpt>
      <trkpt lat="45.71065" lon="6.27391">
        <ele>1245</ele>
        <time>2026-03-15T09:17:11Z</time>
      </trkpt>
      <trkpt lat="45.71063" lon="6.27396">
        <ele>1247</ele>
        <time>2026-03-15T09:17:17Z</time>
      </trkpt>
      <trkpt lat="45.71057" lon="6.27406">
        <ele>1248</ele>
        <time>2026-03-15T09:17:33Z</time>
      </trkpt>
      <trkpt lat="45.71056" lon="6.27411">
        <ele>1249</ele>
        <time>2026-03-15T09:17:41Z</time>
      </trkpt>
      <trkpt lat="45.71051" lon="6.27422">
        <ele>1252</ele>
        <time>2026-03-15T09:17:56Z</time>
      </trkpt>
      <trkpt lat="45.71046" lon="6.27433">
        <ele>1253</ele>
        <time>2026-03-15T09:18:13Z</time>
      </trkpt>
      <trkpt lat="45.71041" lon="6.27443">
        <ele>1256</ele>
        <time>2026-03-15T09:18:29Z</time>
      </trkpt>
      <trkpt lat="45.7104" lon="6.27445">
        <ele>1256</ele>
        <time>2026-03-15T09:18:32Z</time>
      </trkpt>
      <trkpt lat="45.71038" lon="6.2745">
        <ele>1256</ele>
        <time>2026-03-15T09:18:39Z</time>
      </trkpt>
      <trkpt lat="45.71038" lon="6.27451">
        <ele>1256</ele>
        <time>2026-03-15T09:18:41Z</time>
      </trkpt>
      <trkpt lat="45.71035" lon="6.27454">
        <ele>1258</ele>
        <time>2026-03-15T09:18:47Z</time>
      </trkpt>
      <trkpt lat="45.71032" lon="6.27454">
        <ele>1258</ele>
        <time>2026-03-15T09:18:50Z</time>
      </trkpt>
      <trkpt lat="45.7103" lon="6.27451">
        <ele>1259</ele>
        <time>2026-03-15T09:18:55Z</time>
      </trkpt>
      <trkpt lat="45.71029" lon="6.27448">
        <ele>1259</ele>
        <time>2026-03-15T09:18:59Z</time>
      </trkpt>
      <trkpt lat="45.71023" lon="6.27438">
        <ele>1261</ele>
        <time>2026-03-15T09:19:15Z</time>
      </trkpt>
      <trkpt lat="45.71018" lon="6.2743">
        <ele>1262</ele>
        <time>2026-03-15T09:19:28Z</time>
      </trkpt>
      <trkpt lat="45.71018" lon="6.27427">
        <ele>1262</ele>
        <time>2026-03-15T09:19:31Z</time>
      </trkpt>
      <trkpt lat="45.71016" lon="6.27414">
        <ele>1265</ele>
        <time>2026-03-15T09:19:49Z</time>
      </trkpt>
      <trkpt lat="45.71014" lon="6.27401">
        <ele>1267</ele>
        <time>2026-03-15T09:20:05Z</time>
      </trkpt>
      <trkpt lat="45.71013" lon="6.27388">
        <ele>1268</ele>
        <time>2026-03-15T09:20:24Z</time>
      </trkpt>
      <trkpt lat="45.71012" lon="6.27375">
        <ele>1270</ele>
        <time>2026-03-15T09:20:43Z</time>
      </trkpt>
      <trkpt lat="45.71016" lon="6.27364">
        <ele>1273</ele>
        <time>2026-03-15T09:21:02Z</time>
      </trkpt>
      <trkpt lat="45.71015" lon="6.27353">
        <ele>1275</ele>
        <time>2026-03-15T09:21:20Z</time>
      </trkpt>
      <trkpt lat="45.71013" lon="6.27351">
        <ele>1275</ele>
        <time>2026-03-15T09:21:23Z</time>
      </trkpt>
      <trkpt lat="45.71014" lon="6.27342">
        <ele>1278</ele>
        <time>2026-03-15T09:21:41Z</time>
      </trkpt>
      <trkpt lat="45.71013" lon="6.27341">
        <ele>1278</ele>
        <time>2026-03-15T09:22:03Z</time>
      </trkpt>
      <trkpt lat="45.71013" lon="6.27338">
        <ele>1278</ele>
        <time>2026-03-15T09:22:06Z</time>
      </trkpt>
      <trkpt lat="45.71013" lon="6.27335">
        <ele>1278</ele>
        <time>2026-03-15T09:22:09Z</time>
      </trkpt>
      <trkpt lat="45.71012" lon="6.27333">
        <ele>1278</ele>
        <time>2026-03-15T09:22:12Z</time>
      </trkpt>
      <trkpt lat="45.71011" lon="6.2733">
        <ele>1279</ele>
        <time>2026-03-15T09:22:16Z</time>
      </trkpt>
      <trkpt lat="45.71012" lon="6.27327">
        <ele>1279</ele>
        <time>2026-03-15T09:22:20Z</time>
      </trkpt>
      <trkpt lat="45.71013" lon="6.27326">
        <ele>1279</ele>
        <time>2026-03-15T09:22:22Z</time>
      </trkpt>
      <trkpt lat="45.71012" lon="6.27323">
        <ele>1281</ele>
        <time>2026-03-15T09:22:27Z</time>
      </trkpt>
      <trkpt lat="45.71012" lon="6.2732">
        <ele>1281</ele>
        <time>2026-03-15T09:22:31Z</time>
      </trkpt>
      <trkpt lat="45.71012" lon="6.27317">
        <ele>1282</ele>
        <time>2026-03-15T09:22:35Z</time>
      </trkpt>
      <trkpt lat="45.71013" lon="6.27315">
        <ele>1282</ele>
        <time>2026-03-15T09:22:40Z</time>
      </trkpt>
      <trkpt lat="45.71012" lon="6.27314">
        <ele>1283</ele>
        <time>2026-03-15T09:22:51Z</time>
      </trkpt>
      <trkpt lat="45.71012" lon="6.27315">
        <ele>1284</ele>
        <time>2026-03-15T09:23:51Z</time>
      </trkpt>
      <trkpt lat="45.71012" lon="6.27313">
        <ele>1283</ele>
        <time>2026-03-15T09:24:04Z</time>
      </trkpt>
      <trkpt lat="45.71011" lon="6.27309">
        <ele>1284</ele>
        <time>2026-03-15T09:24:09Z</time>
      </trkpt>
      <trkpt lat="45.7101" lon="6.27307">
        <ele>1284</ele>
        <time>2026-03-15T09:24:12Z</time>
      </trkpt>
      <trkpt lat="45.71009" lon="6.27305">
        <ele>1285</ele>
        <time>2026-03-15T09:24:16Z</time>
      </trkpt>
      <trkpt lat="45.71007" lon="6.27304">
        <ele>1285</ele>
        <time>2026-03-15T09:24:20Z</time>
      </trkpt>
      <trkpt lat="45.71006" lon="6.27303">
        <ele>1285</ele>
        <time>2026-03-15T09:24:23Z</time>
      </trkpt>
      <trkpt lat="45.71004" lon="6.27301">
        <ele>1286</ele>
        <time>2026-03-15T09:24:27Z</time>
      </trkpt>
      <trkpt lat="45.71003" lon="6.273">
        <ele>1286</ele>
        <time>2026-03-15T09:24:31Z</time>
      </trkpt>
      <trkpt lat="45.71001" lon="6.27298">
        <ele>1288</ele>
        <time>2026-03-15T09:24:35Z</time>
      </trkpt>
      <trkpt lat="45.70999" lon="6.27296">
        <ele>1288</ele>
        <time>2026-03-15T09:24:39Z</time>
      </trkpt>
      <trkpt lat="45.70998" lon="6.27293">
        <ele>1288</ele>
        <time>2026-03-15T09:24:43Z</time>
      </trkpt>
      <trkpt lat="45.70997" lon="6.27292">
        <ele>1288</ele>
        <time>2026-03-15T09:24:47Z</time>
      </trkpt>
      <trkpt lat="45.70995" lon="6.2729">
        <ele>1288</ele>
        <time>2026-03-15T09:24:51Z</time>
      </trkpt>
      <trkpt lat="45.70993" lon="6.27288">
        <ele>1290</ele>
        <time>2026-03-15T09:24:55Z</time>
      </trkpt>
      <trkpt lat="45.70991" lon="6.27286">
        <ele>1290</ele>
        <time>2026-03-15T09:24:58Z</time>
      </trkpt>
      <trkpt lat="45.70989" lon="6.27285">
        <ele>1290</ele>
        <time>2026-03-15T09:25:01Z</time>
      </trkpt>
      <trkpt lat="45.70988" lon="6.27283">
        <ele>1290</ele>
        <time>2026-03-15T09:25:05Z</time>
      </trkpt>
      <trkpt lat="45.70986" lon="6.27282">
        <ele>1290</ele>
        <time>2026-03-15T09:25:09Z</time>
      </trkpt>
      <trkpt lat="45.70985" lon="6.27281">
        <ele>1290</ele>
        <time>2026-03-15T09:25:11Z</time>
      </trkpt>
      <trkpt lat="45.70985" lon="6.27278">
        <ele>1292</ele>
        <time>2026-03-15T09:25:15Z</time>
      </trkpt>
      <trkpt lat="45.70983" lon="6.27276">
        <ele>1292</ele>
        <time>2026-03-15T09:25:20Z</time>
      </trkpt>
      <trkpt lat="45.70982" lon="6.27273">
        <ele>1292</ele>
        <time>2026-03-15T09:25:24Z</time>
      </trkpt>
      <trkpt lat="45.70981" lon="6.27271">
        <ele>1293</ele>
        <time>2026-03-15T09:25:27Z</time>
      </trkpt>
      <trkpt lat="45.7098" lon="6.27269">
        <ele>1293</ele>
        <time>2026-03-15T09:25:30Z</time>
      </trkpt>
      <trkpt lat="45.70979" lon="6.27267">
        <ele>1294</ele>
        <time>2026-03-15T09:25:35Z</time>
      </trkpt>
      <trkpt lat="45.70977" lon="6.27265">
        <ele>1294</ele>
        <time>2026-03-15T09:25:39Z</time>
      </trkpt>
      <trkpt lat="45.70977" lon="6.27264">
        <ele>1294</ele>
        <time>2026-03-15T09:25:41Z</time>
      </trkpt>
      <trkpt lat="45.70975" lon="6.27263">
        <ele>1296</ele>
        <time>2026-03-15T09:25:44Z</time>
      </trkpt>
      <trkpt lat="45.70974" lon="6.27261">
        <ele>1296</ele>
        <time>2026-03-15T09:25:49Z</time>
      </trkpt>
      <trkpt lat="45.70972" lon="6.27259">
        <ele>1296</ele>
        <time>2026-03-15T09:25:55Z</time>
      </trkpt>
      <trkpt lat="45.70971" lon="6.27257">
        <ele>1296</ele>
        <time>2026-03-15T09:26:00Z</time>
      </trkpt>
      <trkpt lat="45.7097" lon="6.27256">
        <ele>1296</ele>
        <time>2026-03-15T09:26:02Z</time>
      </trkpt>
      <trkpt lat="45.70968" lon="6.27255">
        <ele>1298</ele>
        <time>2026-03-15T09:26:05Z</time>
      </trkpt>
      <trkpt lat="45.70966" lon="6.27254">
        <ele>1298</ele>
        <time>2026-03-15T09:26:09Z</time>
      </trkpt>
      <trkpt lat="45.70964" lon="6.27253">
        <ele>1298</ele>
        <time>2026-03-15T09:26:13Z</time>
      </trkpt>
      <trkpt lat="45.70963" lon="6.27251">
        <ele>1299</ele>
        <time>2026-03-15T09:26:18Z</time>
      </trkpt>
      <trkpt lat="45.70962" lon="6.2725">
        <ele>1301</ele>
        <time>2026-03-15T09:26:36Z</time>
      </trkpt>
      <trkpt lat="45.70961" lon="6.27249">
        <ele>1301</ele>
        <time>2026-03-15T09:26:40Z</time>
      </trkpt>
      <trkpt lat="45.70959" lon="6.27247">
        <ele>1301</ele>
        <time>2026-03-15T09:26:44Z</time>
      </trkpt>
      <trkpt lat="45.70957" lon="6.27245">
        <ele>1301</ele>
        <time>2026-03-15T09:26:48Z</time>
      </trkpt>
      <trkpt lat="45.70956" lon="6.27244">
        <ele>1301</ele>
        <time>2026-03-15T09:26:51Z</time>
      </trkpt>
      <trkpt lat="45.70954" lon="6.27243">
        <ele>1303</ele>
        <time>2026-03-15T09:26:55Z</time>
      </trkpt>
      <trkpt lat="45.70952" lon="6.27241">
        <ele>1303</ele>
        <time>2026-03-15T09:26:59Z</time>
      </trkpt>
      <trkpt lat="45.70951" lon="6.27241">
        <ele>1303</ele>
        <time>2026-03-15T09:27:01Z</time>
      </trkpt>
      <trkpt lat="45.70949" lon="6.27239">
        <ele>1305</ele>
        <time>2026-03-15T09:27:06Z</time>
      </trkpt>
      <trkpt lat="45.70948" lon="6.27237">
        <ele>1305</ele>
        <time>2026-03-15T09:27:11Z</time>
      </trkpt>
      <trkpt lat="45.70946" lon="6.27235">
        <ele>1306</ele>
        <time>2026-03-15T09:27:15Z</time>
      </trkpt>
      <trkpt lat="45.70945" lon="6.27234">
        <ele>1306</ele>
        <time>2026-03-15T09:27:20Z</time>
      </trkpt>
      <trkpt lat="45.70943" lon="6.27232">
        <ele>1306</ele>
        <time>2026-03-15T09:27:24Z</time>
      </trkpt>
      <trkpt lat="45.70942" lon="6.27231">
        <ele>1306</ele>
        <time>2026-03-15T09:27:28Z</time>
      </trkpt>
      <trkpt lat="45.7094" lon="6.2723">
        <ele>1306</ele>
        <time>2026-03-15T09:27:31Z</time>
      </trkpt>
      <trkpt lat="45.70939" lon="6.27229">
        <ele>1308</ele>
        <time>2026-03-15T09:27:35Z</time>
      </trkpt>
      <trkpt lat="45.70937" lon="6.27228">
        <ele>1308</ele>
        <time>2026-03-15T09:27:39Z</time>
      </trkpt>
      <trkpt lat="45.70935" lon="6.27226">
        <ele>1308</ele>
        <time>2026-03-15T09:27:44Z</time>
      </trkpt>
      <trkpt lat="45.70934" lon="6.27225">
        <ele>1309</ele>
        <time>2026-03-15T09:27:49Z</time>
      </trkpt>
      <trkpt lat="45.70933" lon="6.27223">
        <ele>1309</ele>
        <time>2026-03-15T09:27:54Z</time>
      </trkpt>
      <trkpt lat="45.70931" lon="6.27222">
        <ele>1310</ele>
        <time>2026-03-15T09:27:58Z</time>
      </trkpt>
      <trkpt lat="45.70929" lon="6.2722">
        <ele>1310</ele>
        <time>2026-03-15T09:28:02Z</time>
      </trkpt>
      <trkpt lat="45.70927" lon="6.27218">
        <ele>1310</ele>
        <time>2026-03-15T09:28:06Z</time>
      </trkpt>
      <trkpt lat="45.70926" lon="6.27216">
        <ele>1310</ele>
        <time>2026-03-15T09:28:11Z</time>
      </trkpt>
      <trkpt lat="45.70925" lon="6.27215">
        <ele>1312</ele>
        <time>2026-03-15T09:28:15Z</time>
      </trkpt>
      <trkpt lat="45.70923" lon="6.27213">
        <ele>1312</ele>
        <time>2026-03-15T09:28:19Z</time>
      </trkpt>
      <trkpt lat="45.70921" lon="6.27212">
        <ele>1312</ele>
        <time>2026-03-15T09:28:22Z</time>
      </trkpt>
      <trkpt lat="45.7092" lon="6.2721">
        <ele>1313</ele>
        <time>2026-03-15T09:28:26Z</time>
      </trkpt>
      <trkpt lat="45.70918" lon="6.27209">
        <ele>1313</ele>
        <time>2026-03-15T09:28:31Z</time>
      </trkpt>
      <trkpt lat="45.70915" lon="6.27208">
        <ele>1314</ele>
        <time>2026-03-15T09:28:34Z</time>
      </trkpt>
      <trkpt lat="45.70913" lon="6.27207">
        <ele>1314</ele>
        <time>2026-03-15T09:28:39Z</time>
      </trkpt>
      <trkpt lat="45.70912" lon="6.27207">
        <ele>1314</ele>
        <time>2026-03-15T09:28:41Z</time>
      </trkpt>
      <trkpt lat="45.7091" lon="6.27205">
        <ele>1316</ele>
        <time>2026-03-15T09:28:46Z</time>
      </trkpt>
      <trkpt lat="45.70909" lon="6.27204">
        <ele>1316</ele>
        <time>2026-03-15T09:28:51Z</time>
      </trkpt>
      <trkpt lat="45.70907" lon="6.27204">
        <ele>1316</ele>
        <time>2026-03-15T09:28:55Z</time>
      </trkpt>
      <trkpt lat="45.70905" lon="6.27203">
        <ele>1316</ele>
        <time>2026-03-15T09:29:00Z</time>
      </trkpt>
      <trkpt lat="45.70904" lon="6.27203">
        <ele>1316</ele>
        <time>2026-03-15T09:29:02Z</time>
      </trkpt>
      <trkpt lat="45.70902" lon="6.27202">
        <ele>1318</ele>
        <time>2026-03-15T09:29:07Z</time>
      </trkpt>
      <trkpt lat="45.709" lon="6.27202">
        <ele>1318</ele>
        <time>2026-03-15T09:29:11Z</time>
      </trkpt>
      <trkpt lat="45.70898" lon="6.27201">
        <ele>1319</ele>
        <time>2026-03-15T09:29:15Z</time>
      </trkpt>
      <trkpt lat="45.70896" lon="6.272">
        <ele>1319</ele>
        <time>2026-03-15T09:29:19Z</time>
      </trkpt>
      <trkpt lat="45.70895" lon="6.272">
        <ele>1319</ele>
        <time>2026-03-15T09:29:21Z</time>
      </trkpt>
      <trkpt lat="45.70893" lon="6.27198">
        <ele>1321</ele>
        <time>2026-03-15T09:29:26Z</time>
      </trkpt>
      <trkpt lat="45.70892" lon="6.27197">
        <ele>1321</ele>
        <time>2026-03-15T09:29:30Z</time>
      </trkpt>
      <trkpt lat="45.7089" lon="6.27196">
        <ele>1321</ele>
        <time>2026-03-15T09:29:34Z</time>
      </trkpt>
      <trkpt lat="45.70888" lon="6.27195">
        <ele>1321</ele>
        <time>2026-03-15T09:29:38Z</time>
      </trkpt>
      <trkpt lat="45.70887" lon="6.27194">
        <ele>1321</ele>
        <time>2026-03-15T09:29:42Z</time>
      </trkpt>
      <trkpt lat="45.70885" lon="6.27192">
        <ele>1322</ele>
        <time>2026-03-15T09:29:47Z</time>
      </trkpt>
      <trkpt lat="45.70883" lon="6.27191">
        <ele>1322</ele>
        <time>2026-03-15T09:29:51Z</time>
      </trkpt>
      <trkpt lat="45.70882" lon="6.27189">
        <ele>1323</ele>
        <time>2026-03-15T09:29:55Z</time>
      </trkpt>
      <trkpt lat="45.7088" lon="6.27188">
        <ele>1323</ele>
        <time>2026-03-15T09:29:59Z</time>
      </trkpt>
      <trkpt lat="45.70878" lon="6.27187">
        <ele>1323</ele>
        <time>2026-03-15T09:30:03Z</time>
      </trkpt>
      <trkpt lat="45.70876" lon="6.27186">
        <ele>1324</ele>
        <time>2026-03-15T09:30:07Z</time>
      </trkpt>
      <trkpt lat="45.70874" lon="6.27185">
        <ele>1324</ele>
        <time>2026-03-15T09:30:11Z</time>
      </trkpt>
      <trkpt lat="45.70872" lon="6.27184">
        <ele>1326</ele>
        <time>2026-03-15T09:30:15Z</time>
      </trkpt>
      <trkpt lat="45.7087" lon="6.27182">
        <ele>1326</ele>
        <time>2026-03-15T09:30:21Z</time>
      </trkpt>
      <trkpt lat="45.70868" lon="6.27181">
        <ele>1327</ele>
        <time>2026-03-15T09:30:25Z</time>
      </trkpt>
      <trkpt lat="45.70867" lon="6.27179">
        <ele>1327</ele>
        <time>2026-03-15T09:30:30Z</time>
      </trkpt>
      <trkpt lat="45.70866" lon="6.27179">
        <ele>1327</ele>
        <time>2026-03-15T09:30:32Z</time>
      </trkpt>
      <trkpt lat="45.70864" lon="6.27178">
        <ele>1329</ele>
        <time>2026-03-15T09:30:36Z</time>
      </trkpt>
      <trkpt lat="45.70862" lon="6.27176">
        <ele>1329</ele>
        <time>2026-03-15T09:30:39Z</time>
      </trkpt>
      <trkpt lat="45.70861" lon="6.27176">
        <ele>1329</ele>
        <time>2026-03-15T09:30:43Z</time>
      </trkpt>
      <trkpt lat="45.70859" lon="6.27174">
        <ele>1329</ele>
        <time>2026-03-15T09:30:49Z</time>
      </trkpt>
      <trkpt lat="45.70859" lon="6.27173">
        <ele>1329</ele>
        <time>2026-03-15T09:30:51Z</time>
      </trkpt>
      <trkpt lat="45.70857" lon="6.27171">
        <ele>1331</ele>
        <time>2026-03-15T09:30:55Z</time>
      </trkpt>
      <trkpt lat="45.70855" lon="6.2717">
        <ele>1331</ele>
        <time>2026-03-15T09:31:01Z</time>
      </trkpt>
      <trkpt lat="45.70853" lon="6.27169">
        <ele>1331</ele>
        <time>2026-03-15T09:31:04Z</time>
      </trkpt>
      <trkpt lat="45.70851" lon="6.27168">
        <ele>1332</ele>
        <time>2026-03-15T09:31:07Z</time>
      </trkpt>
      <trkpt lat="45.70849" lon="6.27166">
        <ele>1332</ele>
        <time>2026-03-15T09:31:11Z</time>
      </trkpt>
      <trkpt lat="45.70848" lon="6.27164">
        <ele>1334</ele>
        <time>2026-03-15T09:31:15Z</time>
      </trkpt>
      <trkpt lat="45.70846" lon="6.27163">
        <ele>1334</ele>
        <time>2026-03-15T09:31:19Z</time>
      </trkpt>
      <trkpt lat="45.70845" lon="6.27161">
        <ele>1334</ele>
        <time>2026-03-15T09:31:23Z</time>
      </trkpt>
      <trkpt lat="45.70843" lon="6.27159">
        <ele>1335</ele>
        <time>2026-03-15T09:31:30Z</time>
      </trkpt>
      <trkpt lat="45.70841" lon="6.27159">
        <ele>1335</ele>
        <time>2026-03-15T09:31:34Z</time>
      </trkpt>
      <trkpt lat="45.70839" lon="6.27159">
        <ele>1336</ele>
        <time>2026-03-15T09:31:40Z</time>
      </trkpt>
      <trkpt lat="45.70837" lon="6.27158">
        <ele>1337</ele>
        <time>2026-03-15T09:31:45Z</time>
      </trkpt>
      <trkpt lat="45.70835" lon="6.27157">
        <ele>1337</ele>
        <time>2026-03-15T09:31:48Z</time>
      </trkpt>
      <trkpt lat="45.70833" lon="6.27156">
        <ele>1337</ele>
        <time>2026-03-15T09:31:52Z</time>
      </trkpt>
      <trkpt lat="45.70831" lon="6.27155">
        <ele>1337</ele>
        <time>2026-03-15T09:31:56Z</time>
      </trkpt>
      <trkpt lat="45.70829" lon="6.27154">
        <ele>1337</ele>
        <time>2026-03-15T09:31:58Z</time>
      </trkpt>
      <trkpt lat="45.70827" lon="6.27153">
        <ele>1337</ele>
        <time>2026-03-15T09:32:02Z</time>
      </trkpt>
      <trkpt lat="45.70824" lon="6.27152">
        <ele>1338</ele>
        <time>2026-03-15T09:32:06Z</time>
      </trkpt>
      <trkpt lat="45.70822" lon="6.27151">
        <ele>1338</ele>
        <time>2026-03-15T09:32:09Z</time>
      </trkpt>
      <trkpt lat="45.70821" lon="6.27151">
        <ele>1338</ele>
        <time>2026-03-15T09:32:10Z</time>
      </trkpt>
      <trkpt lat="45.70819" lon="6.2715">
        <ele>1340</ele>
        <time>2026-03-15T09:32:15Z</time>
      </trkpt>
      <trkpt lat="45.70816" lon="6.27149">
        <ele>1340</ele>
        <time>2026-03-15T09:32:19Z</time>
      </trkpt>
      <trkpt lat="45.70814" lon="6.27148">
        <ele>1340</ele>
        <time>2026-03-15T09:32:22Z</time>
      </trkpt>
      <trkpt lat="45.70812" lon="6.27147">
        <ele>1340</ele>
        <time>2026-03-15T09:32:24Z</time>
      </trkpt>
      <trkpt lat="45.7081" lon="6.27146">
        <ele>1340</ele>
        <time>2026-03-15T09:32:28Z</time>
      </trkpt>
      <trkpt lat="45.70809" lon="6.27146">
        <ele>1340</ele>
        <time>2026-03-15T09:32:33Z</time>
      </trkpt>
      <trkpt lat="45.70807" lon="6.27145">
        <ele>1342</ele>
        <time>2026-03-15T09:32:37Z</time>
      </trkpt>
      <trkpt lat="45.70805" lon="6.27143">
        <ele>1342</ele>
        <time>2026-03-15T09:32:44Z</time>
      </trkpt>
      <trkpt lat="45.70803" lon="6.27142">
        <ele>1342</ele>
        <time>2026-03-15T09:32:47Z</time>
      </trkpt>
      <trkpt lat="45.70801" lon="6.27141">
        <ele>1342</ele>
        <time>2026-03-15T09:32:50Z</time>
      </trkpt>
      <trkpt lat="45.708" lon="6.27141">
        <ele>1342</ele>
        <time>2026-03-15T09:32:52Z</time>
      </trkpt>
      <trkpt lat="45.70798" lon="6.2714">
        <ele>1344</ele>
        <time>2026-03-15T09:32:55Z</time>
      </trkpt>
      <trkpt lat="45.70796" lon="6.27139">
        <ele>1344</ele>
        <time>2026-03-15T09:32:59Z</time>
      </trkpt>
      <trkpt lat="45.70794" lon="6.27138">
        <ele>1344</ele>
        <time>2026-03-15T09:33:05Z</time>
      </trkpt>
      <trkpt lat="45.70792" lon="6.27138">
        <ele>1344</ele>
        <time>2026-03-15T09:33:10Z</time>
      </trkpt>
      <trkpt lat="45.70786" lon="6.27136">
        <ele>1346</ele>
        <time>2026-03-15T09:33:19Z</time>
      </trkpt>
      <trkpt lat="45.70785" lon="6.27135">
        <ele>1346</ele>
        <time>2026-03-15T09:33:23Z</time>
      </trkpt>
      <trkpt lat="45.70783" lon="6.27134">
        <ele>1347</ele>
        <time>2026-03-15T09:33:28Z</time>
      </trkpt>
      <trkpt lat="45.70781" lon="6.27133">
        <ele>1347</ele>
        <time>2026-03-15T09:33:31Z</time>
      </trkpt>
      <trkpt lat="45.70779" lon="6.27133">
        <ele>1348</ele>
        <time>2026-03-15T09:33:35Z</time>
      </trkpt>
      <trkpt lat="45.70777" lon="6.27132">
        <ele>1348</ele>
        <time>2026-03-15T09:33:38Z</time>
      </trkpt>
      <trkpt lat="45.70775" lon="6.27131">
        <ele>1348</ele>
        <time>2026-03-15T09:33:41Z</time>
      </trkpt>
      <trkpt lat="45.70773" lon="6.27131">
        <ele>1348</ele>
        <time>2026-03-15T09:33:44Z</time>
      </trkpt>
      <trkpt lat="45.70772" lon="6.2713">
        <ele>1349</ele>
        <time>2026-03-15T09:33:47Z</time>
      </trkpt>
      <trkpt lat="45.7077" lon="6.27128">
        <ele>1349</ele>
        <time>2026-03-15T09:33:51Z</time>
      </trkpt>
      <trkpt lat="45.70768" lon="6.27128">
        <ele>1349</ele>
        <time>2026-03-15T09:33:54Z</time>
      </trkpt>
      <trkpt lat="45.70766" lon="6.27127">
        <ele>1350</ele>
        <time>2026-03-15T09:33:57Z</time>
      </trkpt>
      <trkpt lat="45.70764" lon="6.27126">
        <ele>1350</ele>
        <time>2026-03-15T09:34:00Z</time>
      </trkpt>
      <trkpt lat="45.70763" lon="6.27124">
        <ele>1350</ele>
        <time>2026-03-15T09:34:03Z</time>
      </trkpt>
      <trkpt lat="45.70761" lon="6.27122">
        <ele>1350</ele>
        <time>2026-03-15T09:34:07Z</time>
      </trkpt>
      <trkpt lat="45.7076" lon="6.2712">
        <ele>1350</ele>
        <time>2026-03-15T09:34:11Z</time>
      </trkpt>
      <trkpt lat="45.70758" lon="6.27118">
        <ele>1351</ele>
        <time>2026-03-15T09:34:15Z</time>
      </trkpt>
      <trkpt lat="45.70756" lon="6.27118">
        <ele>1351</ele>
        <time>2026-03-15T09:34:18Z</time>
      </trkpt>
      <trkpt lat="45.70754" lon="6.27117">
        <ele>1351</ele>
        <time>2026-03-15T09:34:21Z</time>
      </trkpt>
      <trkpt lat="45.70752" lon="6.27115">
        <ele>1352</ele>
        <time>2026-03-15T09:34:25Z</time>
      </trkpt>
      <trkpt lat="45.7075" lon="6.27114">
        <ele>1352</ele>
        <time>2026-03-15T09:34:29Z</time>
      </trkpt>
      <trkpt lat="45.70748" lon="6.27113">
        <ele>1352</ele>
        <time>2026-03-15T09:34:33Z</time>
      </trkpt>
      <trkpt lat="45.70746" lon="6.27112">
        <ele>1353</ele>
        <time>2026-03-15T09:34:36Z</time>
      </trkpt>
      <trkpt lat="45.70745" lon="6.27111">
        <ele>1353</ele>
        <time>2026-03-15T09:34:39Z</time>
      </trkpt>
      <trkpt lat="45.70744" lon="6.2711">
        <ele>1353</ele>
        <time>2026-03-15T09:34:41Z</time>
      </trkpt>
      <trkpt lat="45.70742" lon="6.27109">
        <ele>1354</ele>
        <time>2026-03-15T09:34:45Z</time>
      </trkpt>
      <trkpt lat="45.7074" lon="6.27108">
        <ele>1354</ele>
        <time>2026-03-15T09:34:49Z</time>
      </trkpt>
      <trkpt lat="45.70738" lon="6.27107">
        <ele>1354</ele>
        <time>2026-03-15T09:34:52Z</time>
      </trkpt>
      <trkpt lat="45.70736" lon="6.27106">
        <ele>1355</ele>
        <time>2026-03-15T09:34:55Z</time>
      </trkpt>
      <trkpt lat="45.70734" lon="6.27106">
        <ele>1355</ele>
        <time>2026-03-15T09:34:59Z</time>
      </trkpt>
      <trkpt lat="45.70732" lon="6.27105">
        <ele>1355</ele>
        <time>2026-03-15T09:35:02Z</time>
      </trkpt>
      <trkpt lat="45.7073" lon="6.27104">
        <ele>1355</ele>
        <time>2026-03-15T09:35:07Z</time>
      </trkpt>
      <trkpt lat="45.70728" lon="6.27103">
        <ele>1355</ele>
        <time>2026-03-15T09:35:11Z</time>
      </trkpt>
      <trkpt lat="45.70726" lon="6.27101">
        <ele>1357</ele>
        <time>2026-03-15T09:35:14Z</time>
      </trkpt>
      <trkpt lat="45.70724" lon="6.27099">
        <ele>1357</ele>
        <time>2026-03-15T09:35:20Z</time>
      </trkpt>
      <trkpt lat="45.70723" lon="6.27098">
        <ele>1358</ele>
        <time>2026-03-15T09:35:25Z</time>
      </trkpt>
      <trkpt lat="45.70721" lon="6.27097">
        <ele>1358</ele>
        <time>2026-03-15T09:35:28Z</time>
      </trkpt>
      <trkpt lat="45.70719" lon="6.27096">
        <ele>1358</ele>
        <time>2026-03-15T09:35:31Z</time>
      </trkpt>
      <trkpt lat="45.70717" lon="6.27094">
        <ele>1360</ele>
        <time>2026-03-15T09:35:34Z</time>
      </trkpt>
      <trkpt lat="45.70716" lon="6.27093">
        <ele>1360</ele>
        <time>2026-03-15T09:35:38Z</time>
      </trkpt>
      <trkpt lat="45.70708" lon="6.27086">
        <ele>1361</ele>
        <time>2026-03-15T09:35:52Z</time>
      </trkpt>
      <trkpt lat="45.70705" lon="6.27083">
        <ele>1361</ele>
        <time>2026-03-15T09:35:58Z</time>
      </trkpt>
      <trkpt lat="45.70704" lon="6.27081">
        <ele>1362</ele>
        <time>2026-03-15T09:36:11Z</time>
      </trkpt>
      <trkpt lat="45.70702" lon="6.27079">
        <ele>1362</ele>
        <time>2026-03-15T09:36:19Z</time>
      </trkpt>
      <trkpt lat="45.70701" lon="6.27079">
        <ele>1362</ele>
        <time>2026-03-15T09:36:23Z</time>
      </trkpt>
      <trkpt lat="45.70698" lon="6.27078">
        <ele>1363</ele>
        <time>2026-03-15T09:36:25Z</time>
      </trkpt>
      <trkpt lat="45.70696" lon="6.27076">
        <ele>1363</ele>
        <time>2026-03-15T09:36:27Z</time>
      </trkpt>
      <trkpt lat="45.70691" lon="6.27072">
        <ele>1365</ele>
        <time>2026-03-15T09:36:34Z</time>
      </trkpt>
      <trkpt lat="45.7069" lon="6.27071">
        <ele>1365</ele>
        <time>2026-03-15T09:36:36Z</time>
      </trkpt>
      <trkpt lat="45.70688" lon="6.2707">
        <ele>1365</ele>
        <time>2026-03-15T09:36:38Z</time>
      </trkpt>
      <trkpt lat="45.70687" lon="6.27067">
        <ele>1365</ele>
        <time>2026-03-15T09:36:41Z</time>
      </trkpt>
      <trkpt lat="45.70685" lon="6.27065">
        <ele>1366</ele>
        <time>2026-03-15T09:36:45Z</time>
      </trkpt>
      <trkpt lat="45.70683" lon="6.27063">
        <ele>1366</ele>
        <time>2026-03-15T09:36:48Z</time>
      </trkpt>
      <trkpt lat="45.70681" lon="6.27061">
        <ele>1366</ele>
        <time>2026-03-15T09:36:51Z</time>
      </trkpt>
      <trkpt lat="45.70674" lon="6.27053">
        <ele>1367</ele>
        <time>2026-03-15T09:37:07Z</time>
      </trkpt>
      <trkpt lat="45.70666" lon="6.27047">
        <ele>1368</ele>
        <time>2026-03-15T09:37:23Z</time>
      </trkpt>
      <trkpt lat="45.70657" lon="6.27045">
        <ele>1371</ele>
        <time>2026-03-15T09:37:48Z</time>
      </trkpt>
      <trkpt lat="45.70651" lon="6.27035">
        <ele>1373</ele>
        <time>2026-03-15T09:38:11Z</time>
      </trkpt>
      <trkpt lat="45.70649" lon="6.27026">
        <ele>1376</ele>
        <time>2026-03-15T09:38:26Z</time>
      </trkpt>
      <trkpt lat="45.70648" lon="6.27019">
        <ele>1376</ele>
        <time>2026-03-15T09:38:37Z</time>
      </trkpt>
      <trkpt lat="45.70647" lon="6.27015">
        <ele>1376</ele>
        <time>2026-03-15T09:38:42Z</time>
      </trkpt>
      <trkpt lat="45.70643" lon="6.27004">
        <ele>1379</ele>
        <time>2026-03-15T09:38:58Z</time>
      </trkpt>
      <trkpt lat="45.70642" lon="6.27">
        <ele>1379</ele>
        <time>2026-03-15T09:39:03Z</time>
      </trkpt>
      <trkpt lat="45.70638" lon="6.26989">
        <ele>1381</ele>
        <time>2026-03-15T09:39:21Z</time>
      </trkpt>
      <trkpt lat="45.70632" lon="6.26979">
        <ele>1382</ele>
        <time>2026-03-15T09:39:37Z</time>
      </trkpt>
      <trkpt lat="45.70631" lon="6.26977">
        <ele>1382</ele>
        <time>2026-03-15T09:39:42Z</time>
      </trkpt>
      <trkpt lat="45.70629" lon="6.26976">
        <ele>1384</ele>
        <time>2026-03-15T09:39:46Z</time>
      </trkpt>
      <trkpt lat="45.70626" lon="6.26976">
        <ele>1384</ele>
        <time>2026-03-15T09:39:52Z</time>
      </trkpt>
      <trkpt lat="45.70624" lon="6.26977">
        <ele>1384</ele>
        <time>2026-03-15T09:39:56Z</time>
      </trkpt>
      <trkpt lat="45.70622" lon="6.26978">
        <ele>1385</ele>
        <time>2026-03-15T09:40:07Z</time>
      </trkpt>
      <trkpt lat="45.70618" lon="6.26982">
        <ele>1386</ele>
        <time>2026-03-15T09:40:18Z</time>
      </trkpt>
      <trkpt lat="45.70616" lon="6.26985">
        <ele>1387</ele>
        <time>2026-03-15T09:40:26Z</time>
      </trkpt>
      <trkpt lat="45.70612" lon="6.26988">
        <ele>1389</ele>
        <time>2026-03-15T09:40:38Z</time>
      </trkpt>
      <trkpt lat="45.7061" lon="6.26991">
        <ele>1390</ele>
        <time>2026-03-15T09:40:45Z</time>
      </trkpt>
      <trkpt lat="45.70608" lon="6.26995">
        <ele>1391</ele>
        <time>2026-03-15T09:40:55Z</time>
      </trkpt>
      <trkpt lat="45.70606" lon="6.26999">
        <ele>1391</ele>
        <time>2026-03-15T09:41:03Z</time>
      </trkpt>
      <trkpt lat="45.70602" lon="6.27007">
        <ele>1394</ele>
        <time>2026-03-15T09:41:21Z</time>
      </trkpt>
      <trkpt lat="45.70597" lon="6.27017">
        <ele>1396</ele>
        <time>2026-03-15T09:41:39Z</time>
      </trkpt>
      <trkpt lat="45.70594" lon="6.27022">
        <ele>1397</ele>
        <time>2026-03-15T09:41:50Z</time>
      </trkpt>
      <trkpt lat="45.70588" lon="6.27031">
        <ele>1399</ele>
        <time>2026-03-15T09:42:07Z</time>
      </trkpt>
      <trkpt lat="45.70585" lon="6.2704">
        <ele>1400</ele>
        <time>2026-03-15T09:42:22Z</time>
      </trkpt>
      <trkpt lat="45.70584" lon="6.27048">
        <ele>1402</ele>
        <time>2026-03-15T09:42:34Z</time>
      </trkpt>
      <trkpt lat="45.70581" lon="6.27056">
        <ele>1403</ele>
        <time>2026-03-15T09:42:52Z</time>
      </trkpt>
      <trkpt lat="45.70581" lon="6.27058">
        <ele>1405</ele>
        <time>2026-03-15T09:42:57Z</time>
      </trkpt>
      <trkpt lat="45.70581" lon="6.27062">
        <ele>1405</ele>
        <time>2026-03-15T09:43:02Z</time>
      </trkpt>
      <trkpt lat="45.70581" lon="6.27065">
        <ele>1406</ele>
        <time>2026-03-15T09:43:07Z</time>
      </trkpt>
      <trkpt lat="45.70582" lon="6.27071">
        <ele>1407</ele>
        <time>2026-03-15T09:43:16Z</time>
      </trkpt>
      <trkpt lat="45.70583" lon="6.27074">
        <ele>1407</ele>
        <time>2026-03-15T09:43:21Z</time>
      </trkpt>
      <trkpt lat="45.70583" lon="6.27077">
        <ele>1409</ele>
        <time>2026-03-15T09:43:27Z</time>
      </trkpt>
      <trkpt lat="45.70584" lon="6.27079">
        <ele>1409</ele>
        <time>2026-03-15T09:43:31Z</time>
      </trkpt>
      <trkpt lat="45.70585" lon="6.27086">
        <ele>1411</ele>
        <time>2026-03-15T09:43:46Z</time>
      </trkpt>
      <trkpt lat="45.7059" lon="6.27096">
        <ele>1412</ele>
        <time>2026-03-15T09:44:03Z</time>
      </trkpt>
      <trkpt lat="45.70597" lon="6.27105">
        <ele>1415</ele>
        <time>2026-03-15T09:44:17Z</time>
      </trkpt>
      <trkpt lat="45.70602" lon="6.27114">
        <ele>1415</ele>
        <time>2026-03-15T09:44:30Z</time>
      </trkpt>
      <trkpt lat="45.70603" lon="6.27116">
        <ele>1415</ele>
        <time>2026-03-15T09:44:35Z</time>
      </trkpt>
      <trkpt lat="45.70606" lon="6.27121">
        <ele>1415</ele>
        <time>2026-03-15T09:44:43Z</time>
      </trkpt>
      <trkpt lat="45.70608" lon="6.27125">
        <ele>1417</ele>
        <time>2026-03-15T09:44:49Z</time>
      </trkpt>
      <trkpt lat="45.70609" lon="6.27129">
        <ele>1417</ele>
        <time>2026-03-15T09:44:56Z</time>
      </trkpt>
      <trkpt lat="45.70612" lon="6.27133">
        <ele>1417</ele>
        <time>2026-03-15T09:45:03Z</time>
      </trkpt>
      <trkpt lat="45.70613" lon="6.27135">
        <ele>1418</ele>
        <time>2026-03-15T09:45:07Z</time>
      </trkpt>
      <trkpt lat="45.70621" lon="6.27143">
        <ele>1421</ele>
        <time>2026-03-15T09:45:24Z</time>
      </trkpt>
      <trkpt lat="45.70622" lon="6.27145">
        <ele>1421</ele>
        <time>2026-03-15T09:45:29Z</time>
      </trkpt>
      <trkpt lat="45.70626" lon="6.27149">
        <ele>1422</ele>
        <time>2026-03-15T09:45:40Z</time>
      </trkpt>
      <trkpt lat="45.7063" lon="6.27155">
        <ele>1422</ele>
        <time>2026-03-15T09:45:49Z</time>
      </trkpt>
      <trkpt lat="45.70635" lon="6.27166">
        <ele>1424</ele>
        <time>2026-03-15T09:46:05Z</time>
      </trkpt>
      <trkpt lat="45.70637" lon="6.27178">
        <ele>1426</ele>
        <time>2026-03-15T09:46:20Z</time>
      </trkpt>
      <trkpt lat="45.70639" lon="6.27184">
        <ele>1427</ele>
        <time>2026-03-15T09:46:27Z</time>
      </trkpt>
      <trkpt lat="45.70638" lon="6.27192">
        <ele>1428</ele>
        <time>2026-03-15T09:46:41Z</time>
      </trkpt>
      <trkpt lat="45.70638" lon="6.27195">
        <ele>1429</ele>
        <time>2026-03-15T09:46:46Z</time>
      </trkpt>
      <trkpt lat="45.70638" lon="6.27198">
        <ele>1429</ele>
        <time>2026-03-15T09:46:51Z</time>
      </trkpt>
      <trkpt lat="45.70639" lon="6.272">
        <ele>1431</ele>
        <time>2026-03-15T09:46:56Z</time>
      </trkpt>
      <trkpt lat="45.70642" lon="6.27205">
        <ele>1431</ele>
        <time>2026-03-15T09:47:05Z</time>
      </trkpt>
      <trkpt lat="45.70645" lon="6.27208">
        <ele>1431</ele>
        <time>2026-03-15T09:47:10Z</time>
      </trkpt>
      <trkpt lat="45.70646" lon="6.2721">
        <ele>1432</ele>
        <time>2026-03-15T09:47:20Z</time>
      </trkpt>
      <trkpt lat="45.70647" lon="6.27211">
        <ele>1432</ele>
        <time>2026-03-15T09:47:24Z</time>
      </trkpt>
      <trkpt lat="45.70649" lon="6.27212">
        <ele>1433</ele>
        <time>2026-03-15T09:47:28Z</time>
      </trkpt>
      <trkpt lat="45.70651" lon="6.27213">
        <ele>1433</ele>
        <time>2026-03-15T09:47:31Z</time>
      </trkpt>
      <trkpt lat="45.70652" lon="6.27215">
        <ele>1433</ele>
        <time>2026-03-15T09:47:34Z</time>
      </trkpt>
      <trkpt lat="45.70654" lon="6.27217">
        <ele>1434</ele>
        <time>2026-03-15T09:47:38Z</time>
      </trkpt>
      <trkpt lat="45.70655" lon="6.27219">
        <ele>1434</ele>
        <time>2026-03-15T09:47:42Z</time>
      </trkpt>
      <trkpt lat="45.70656" lon="6.27222">
        <ele>1434</ele>
        <time>2026-03-15T09:47:47Z</time>
      </trkpt>
      <trkpt lat="45.70657" lon="6.27224">
        <ele>1434</ele>
        <time>2026-03-15T09:47:51Z</time>
      </trkpt>
      <trkpt lat="45.70658" lon="6.27226">
        <ele>1434</ele>
        <time>2026-03-15T09:48:58Z</time>
      </trkpt>
      <trkpt lat="45.7066" lon="6.27227">
        <ele>1435</ele>
        <time>2026-03-15T09:49:18Z</time>
      </trkpt>
      <trkpt lat="45.70661" lon="6.2723">
        <ele>1435</ele>
        <time>2026-03-15T09:49:21Z</time>
      </trkpt>
      <trkpt lat="45.70661" lon="6.27233">
        <ele>1435</ele>
        <time>2026-03-15T09:49:24Z</time>
      </trkpt>
      <trkpt lat="45.70662" lon="6.27236">
        <ele>1435</ele>
        <time>2026-03-15T09:49:27Z</time>
      </trkpt>
      <trkpt lat="45.70663" lon="6.27238">
        <ele>1435</ele>
        <time>2026-03-15T09:49:30Z</time>
      </trkpt>
      <trkpt lat="45.70663" lon="6.27241">
        <ele>1435</ele>
        <time>2026-03-15T09:49:33Z</time>
      </trkpt>
      <trkpt lat="45.70663" lon="6.27244">
        <ele>1435</ele>
        <time>2026-03-15T09:49:37Z</time>
      </trkpt>
      <trkpt lat="45.70663" lon="6.27247">
        <ele>1435</ele>
        <time>2026-03-15T09:49:40Z</time>
      </trkpt>
      <trkpt lat="45.70663" lon="6.2725">
        <ele>1435</ele>
        <time>2026-03-15T09:49:44Z</time>
      </trkpt>
      <trkpt lat="45.70663" lon="6.27253">
        <ele>1436</ele>
        <time>2026-03-15T09:49:48Z</time>
      </trkpt>
      <trkpt lat="45.70664" lon="6.27255">
        <ele>1436</ele>
        <time>2026-03-15T09:49:51Z</time>
      </trkpt>
      <trkpt lat="45.70663" lon="6.27258">
        <ele>1438</ele>
        <time>2026-03-15T09:49:55Z</time>
      </trkpt>
      <trkpt lat="45.70663" lon="6.27262">
        <ele>1438</ele>
        <time>2026-03-15T09:49:59Z</time>
      </trkpt>
      <trkpt lat="45.70662" lon="6.27264">
        <ele>1438</ele>
        <time>2026-03-15T09:50:02Z</time>
      </trkpt>
      <trkpt lat="45.70661" lon="6.27266">
        <ele>1439</ele>
        <time>2026-03-15T09:50:05Z</time>
      </trkpt>
      <trkpt lat="45.7066" lon="6.27269">
        <ele>1439</ele>
        <time>2026-03-15T09:50:08Z</time>
      </trkpt>
      <trkpt lat="45.70659" lon="6.27271">
        <ele>1439</ele>
        <time>2026-03-15T09:50:11Z</time>
      </trkpt>
      <trkpt lat="45.70659" lon="6.27273">
        <ele>1439</ele>
        <time>2026-03-15T09:50:14Z</time>
      </trkpt>
      <trkpt lat="45.70658" lon="6.27276">
        <ele>1440</ele>
        <time>2026-03-15T09:50:17Z</time>
      </trkpt>
      <trkpt lat="45.70657" lon="6.27278">
        <ele>1440</ele>
        <time>2026-03-15T09:50:20Z</time>
      </trkpt>
      <trkpt lat="45.70656" lon="6.2728">
        <ele>1440</ele>
        <time>2026-03-15T09:50:23Z</time>
      </trkpt>
      <trkpt lat="45.70655" lon="6.27283">
        <ele>1441</ele>
        <time>2026-03-15T09:50:27Z</time>
      </trkpt>
      <trkpt lat="45.70654" lon="6.27286">
        <ele>1441</ele>
        <time>2026-03-15T09:50:31Z</time>
      </trkpt>
      <trkpt lat="45.70653" lon="6.27289">
        <ele>1441</ele>
        <time>2026-03-15T09:50:35Z</time>
      </trkpt>
      <trkpt lat="45.70653" lon="6.27292">
        <ele>1441</ele>
        <time>2026-03-15T09:50:39Z</time>
      </trkpt>
      <trkpt lat="45.70652" lon="6.27295">
        <ele>1441</ele>
        <time>2026-03-15T09:50:43Z</time>
      </trkpt>
      <trkpt lat="45.70651" lon="6.27298">
        <ele>1442</ele>
        <time>2026-03-15T09:50:46Z</time>
      </trkpt>
      <trkpt lat="45.7065" lon="6.27301">
        <ele>1442</ele>
        <time>2026-03-15T09:50:50Z</time>
      </trkpt>
      <trkpt lat="45.70649" lon="6.27304">
        <ele>1443</ele>
        <time>2026-03-15T09:50:55Z</time>
      </trkpt>
      <trkpt lat="45.70648" lon="6.27307">
        <ele>1443</ele>
        <time>2026-03-15T09:50:59Z</time>
      </trkpt>
      <trkpt lat="45.70648" lon="6.27308">
        <ele>1443</ele>
        <time>2026-03-15T09:51:01Z</time>
      </trkpt>
      <trkpt lat="45.70647" lon="6.27311">
        <ele>1445</ele>
        <time>2026-03-15T09:51:04Z</time>
      </trkpt>
      <trkpt lat="45.70646" lon="6.27314">
        <ele>1445</ele>
        <time>2026-03-15T09:51:08Z</time>
      </trkpt>
      <trkpt lat="45.70645" lon="6.27317">
        <ele>1445</ele>
        <time>2026-03-15T09:51:12Z</time>
      </trkpt>
      <trkpt lat="45.70645" lon="6.2732">
        <ele>1445</ele>
        <time>2026-03-15T09:51:17Z</time>
      </trkpt>
      <trkpt lat="45.70644" lon="6.27323">
        <ele>1445</ele>
        <time>2026-03-15T09:51:21Z</time>
      </trkpt>
      <trkpt lat="45.70644" lon="6.27326">
        <ele>1446</ele>
        <time>2026-03-15T09:51:24Z</time>
      </trkpt>
      <trkpt lat="45.70644" lon="6.27329">
        <ele>1446</ele>
        <time>2026-03-15T09:51:27Z</time>
      </trkpt>
      <trkpt lat="45.70644" lon="6.27332">
        <ele>1446</ele>
        <time>2026-03-15T09:51:30Z</time>
      </trkpt>
      <trkpt lat="45.70643" lon="6.27335">
        <ele>1446</ele>
        <time>2026-03-15T09:51:35Z</time>
      </trkpt>
      <trkpt lat="45.70642" lon="6.27338">
        <ele>1446</ele>
        <time>2026-03-15T09:51:40Z</time>
      </trkpt>
      <trkpt lat="45.70642" lon="6.27341">
        <ele>1446</ele>
        <time>2026-03-15T09:51:44Z</time>
      </trkpt>
      <trkpt lat="45.7064" lon="6.2734">
        <ele>1447</ele>
        <time>2026-03-15T09:51:50Z</time>
      </trkpt>
      <trkpt lat="45.70638" lon="6.27338">
        <ele>1447</ele>
        <time>2026-03-15T09:51:53Z</time>
      </trkpt>
      <trkpt lat="45.70637" lon="6.27336">
        <ele>1448</ele>
        <time>2026-03-15T09:51:56Z</time>
      </trkpt>
      <trkpt lat="45.70636" lon="6.27333">
        <ele>1448</ele>
        <time>2026-03-15T09:51:59Z</time>
      </trkpt>
      <trkpt lat="45.70635" lon="6.2733">
        <ele>1448</ele>
        <time>2026-03-15T09:52:02Z</time>
      </trkpt>
      <trkpt lat="45.70633" lon="6.27328">
        <ele>1448</ele>
        <time>2026-03-15T09:52:06Z</time>
      </trkpt>
      <trkpt lat="45.70633" lon="6.27325">
        <ele>1448</ele>
        <time>2026-03-15T09:52:10Z</time>
      </trkpt>
      <trkpt lat="45.70632" lon="6.27323">
        <ele>1448</ele>
        <time>2026-03-15T09:52:12Z</time>
      </trkpt>
      <trkpt lat="45.70633" lon="6.27321">
        <ele>1450</ele>
        <time>2026-03-15T09:52:16Z</time>
      </trkpt>
      <trkpt lat="45.70633" lon="6.27318">
        <ele>1450</ele>
        <time>2026-03-15T09:52:20Z</time>
      </trkpt>
      <trkpt lat="45.70632" lon="6.27315">
        <ele>1450</ele>
        <time>2026-03-15T09:52:24Z</time>
      </trkpt>
      <trkpt lat="45.70632" lon="6.27313">
        <ele>1451</ele>
        <time>2026-03-15T09:52:28Z</time>
      </trkpt>
      <trkpt lat="45.70631" lon="6.27311">
        <ele>1451</ele>
        <time>2026-03-15T09:52:31Z</time>
      </trkpt>
      <trkpt lat="45.7063" lon="6.27308">
        <ele>1453</ele>
        <time>2026-03-15T09:52:35Z</time>
      </trkpt>
      <trkpt lat="45.70629" lon="6.27305">
        <ele>1453</ele>
        <time>2026-03-15T09:52:39Z</time>
      </trkpt>
      <trkpt lat="45.70629" lon="6.27302">
        <ele>1453</ele>
        <time>2026-03-15T09:52:43Z</time>
      </trkpt>
      <trkpt lat="45.70628" lon="6.273">
        <ele>1454</ele>
        <time>2026-03-15T09:52:47Z</time>
      </trkpt>
      <trkpt lat="45.70627" lon="6.27298">
        <ele>1454</ele>
        <time>2026-03-15T09:52:51Z</time>
      </trkpt>
      <trkpt lat="45.70627" lon="6.27295">
        <ele>1456</ele>
        <time>2026-03-15T09:52:55Z</time>
      </trkpt>
      <trkpt lat="45.70625" lon="6.27293">
        <ele>1456</ele>
        <time>2026-03-15T09:52:59Z</time>
      </trkpt>
      <trkpt lat="45.70624" lon="6.2729">
        <ele>1456</ele>
        <time>2026-03-15T09:53:03Z</time>
      </trkpt>
      <trkpt lat="45.70623" lon="6.27288">
        <ele>1456</ele>
        <time>2026-03-15T09:53:07Z</time>
      </trkpt>
      <trkpt lat="45.70622" lon="6.27285">
        <ele>1456</ele>
        <time>2026-03-15T09:53:11Z</time>
      </trkpt>
      <trkpt lat="45.70622" lon="6.27283">
        <ele>1457</ele>
        <time>2026-03-15T09:53:15Z</time>
      </trkpt>
      <trkpt lat="45.70621" lon="6.2728">
        <ele>1457</ele>
        <time>2026-03-15T09:53:23Z</time>
      </trkpt>
      <trkpt lat="45.7062" lon="6.27278">
        <ele>1457</ele>
        <time>2026-03-15T09:53:27Z</time>
      </trkpt>
      <trkpt lat="45.70618" lon="6.27276">
        <ele>1457</ele>
        <time>2026-03-15T09:53:31Z</time>
      </trkpt>
      <trkpt lat="45.70616" lon="6.27276">
        <ele>1458</ele>
        <time>2026-03-15T09:53:35Z</time>
      </trkpt>
      <trkpt lat="45.70614" lon="6.27275">
        <ele>1458</ele>
        <time>2026-03-15T09:53:40Z</time>
      </trkpt>
      <trkpt lat="45.70612" lon="6.27275">
        <ele>1458</ele>
        <time>2026-03-15T09:53:44Z</time>
      </trkpt>
      <trkpt lat="45.7061" lon="6.27275">
        <ele>1459</ele>
        <time>2026-03-15T09:53:48Z</time>
      </trkpt>
      <trkpt lat="45.70608" lon="6.27276">
        <ele>1459</ele>
        <time>2026-03-15T09:53:52Z</time>
      </trkpt>
      <trkpt lat="45.70606" lon="6.27276">
        <ele>1459</ele>
        <time>2026-03-15T09:53:55Z</time>
      </trkpt>
      <trkpt lat="45.70604" lon="6.27276">
        <ele>1459</ele>
        <time>2026-03-15T09:53:59Z</time>
      </trkpt>
      <trkpt lat="45.70604" lon="6.27277">
        <ele>1459</ele>
        <time>2026-03-15T09:54:00Z</time>
      </trkpt>
      <trkpt lat="45.70602" lon="6.27277">
        <ele>1461</ele>
        <time>2026-03-15T09:54:05Z</time>
      </trkpt>
      <trkpt lat="45.706" lon="6.27278">
        <ele>1461</ele>
        <time>2026-03-15T09:54:09Z</time>
      </trkpt>
      <trkpt lat="45.70598" lon="6.27278">
        <ele>1461</ele>
        <time>2026-03-15T09:54:12Z</time>
      </trkpt>
      <trkpt lat="45.70596" lon="6.27278">
        <ele>1462</ele>
        <time>2026-03-15T09:54:14Z</time>
      </trkpt>
      <trkpt lat="45.70594" lon="6.27278">
        <ele>1462</ele>
        <time>2026-03-15T09:54:17Z</time>
      </trkpt>
      <trkpt lat="45.70593" lon="6.27278">
        <ele>1462</ele>
        <time>2026-03-15T09:54:20Z</time>
      </trkpt>
      <trkpt lat="45.70591" lon="6.27276">
        <ele>1464</ele>
        <time>2026-03-15T09:54:27Z</time>
      </trkpt>
      <trkpt lat="45.7059" lon="6.27274">
        <ele>1464</ele>
        <time>2026-03-15T09:54:32Z</time>
      </trkpt>
      <trkpt lat="45.70588" lon="6.27274">
        <ele>1465</ele>
        <time>2026-03-15T09:54:35Z</time>
      </trkpt>
      <trkpt lat="45.70586" lon="6.27273">
        <ele>1465</ele>
        <time>2026-03-15T09:54:40Z</time>
      </trkpt>
      <trkpt lat="45.70584" lon="6.27272">
        <ele>1467</ele>
        <time>2026-03-15T09:54:45Z</time>
      </trkpt>
      <trkpt lat="45.70582" lon="6.2727">
        <ele>1467</ele>
        <time>2026-03-15T09:54:49Z</time>
      </trkpt>
      <trkpt lat="45.70581" lon="6.27269">
        <ele>1467</ele>
        <time>2026-03-15T09:54:52Z</time>
      </trkpt>
      <trkpt lat="45.70579" lon="6.27268">
        <ele>1468</ele>
        <time>2026-03-15T09:54:58Z</time>
      </trkpt>
      <trkpt lat="45.70578" lon="6.27267">
        <ele>1468</ele>
        <time>2026-03-15T09:55:01Z</time>
      </trkpt>
      <trkpt lat="45.70577" lon="6.27265">
        <ele>1470</ele>
        <time>2026-03-15T09:55:06Z</time>
      </trkpt>
      <trkpt lat="45.70575" lon="6.27263">
        <ele>1470</ele>
        <time>2026-03-15T09:55:10Z</time>
      </trkpt>
      <trkpt lat="45.70574" lon="6.27259">
        <ele>1470</ele>
        <time>2026-03-15T09:55:14Z</time>
      </trkpt>
      <trkpt lat="45.70572" lon="6.27256">
        <ele>1470</ele>
        <time>2026-03-15T09:55:18Z</time>
      </trkpt>
      <trkpt lat="45.7057" lon="6.27255">
        <ele>1470</ele>
        <time>2026-03-15T09:55:21Z</time>
      </trkpt>
      <trkpt lat="45.70568" lon="6.27255">
        <ele>1470</ele>
        <time>2026-03-15T09:55:23Z</time>
      </trkpt>
      <trkpt lat="45.70566" lon="6.27254">
        <ele>1471</ele>
        <time>2026-03-15T09:55:26Z</time>
      </trkpt>
      <trkpt lat="45.70564" lon="6.27253">
        <ele>1471</ele>
        <time>2026-03-15T09:55:28Z</time>
      </trkpt>
      <trkpt lat="45.70562" lon="6.27252">
        <ele>1471</ele>
        <time>2026-03-15T09:55:31Z</time>
      </trkpt>
      <trkpt lat="45.70559" lon="6.2725">
        <ele>1471</ele>
        <time>2026-03-15T09:55:34Z</time>
      </trkpt>
      <trkpt lat="45.70558" lon="6.27249">
        <ele>1471</ele>
        <time>2026-03-15T09:55:37Z</time>
      </trkpt>
      <trkpt lat="45.70556" lon="6.27247">
        <ele>1471</ele>
        <time>2026-03-15T09:55:40Z</time>
      </trkpt>
      <trkpt lat="45.70553" lon="6.27245">
        <ele>1471</ele>
        <time>2026-03-15T09:55:44Z</time>
      </trkpt>
      <trkpt lat="45.70551" lon="6.27244">
        <ele>1471</ele>
        <time>2026-03-15T09:55:47Z</time>
      </trkpt>
      <trkpt lat="45.70548" lon="6.27243">
        <ele>1471</ele>
        <time>2026-03-15T09:55:50Z</time>
      </trkpt>
      <trkpt lat="45.70546" lon="6.27241">
        <ele>1471</ele>
        <time>2026-03-15T09:55:53Z</time>
      </trkpt>
      <trkpt lat="45.70545" lon="6.27239">
        <ele>1470</ele>
        <time>2026-03-15T09:55:56Z</time>
      </trkpt>
      <trkpt lat="45.70543" lon="6.27238">
        <ele>1470</ele>
        <time>2026-03-15T09:55:59Z</time>
      </trkpt>
      <trkpt lat="45.7054" lon="6.27236">
        <ele>1470</ele>
        <time>2026-03-15T09:56:02Z</time>
      </trkpt>
      <trkpt lat="45.70538" lon="6.27234">
        <ele>1470</ele>
        <time>2026-03-15T09:56:04Z</time>
      </trkpt>
      <trkpt lat="45.70537" lon="6.27232">
        <ele>1470</ele>
        <time>2026-03-15T09:56:06Z</time>
      </trkpt>
      <trkpt lat="45.70535" lon="6.2723">
        <ele>1470</ele>
        <time>2026-03-15T09:56:08Z</time>
      </trkpt>
      <trkpt lat="45.70534" lon="6.27227">
        <ele>1470</ele>
        <time>2026-03-15T09:56:10Z</time>
      </trkpt>
      <trkpt lat="45.70532" lon="6.27225">
        <ele>1470</ele>
        <time>2026-03-15T09:56:13Z</time>
      </trkpt>
      <trkpt lat="45.7053" lon="6.27222">
        <ele>1470</ele>
        <time>2026-03-15T09:56:16Z</time>
      </trkpt>
      <trkpt lat="45.70529" lon="6.2722">
        <ele>1470</ele>
        <time>2026-03-15T09:56:18Z</time>
      </trkpt>
      <trkpt lat="45.70527" lon="6.27218">
        <ele>1470</ele>
        <time>2026-03-15T09:56:21Z</time>
      </trkpt>
      <trkpt lat="45.70522" lon="6.27209">
        <ele>1470</ele>
        <time>2026-03-15T09:56:31Z</time>
      </trkpt>
      <trkpt lat="45.7052" lon="6.27207">
        <ele>1470</ele>
        <time>2026-03-15T09:56:34Z</time>
      </trkpt>
      <trkpt lat="45.70518" lon="6.27204">
        <ele>1470</ele>
        <time>2026-03-15T09:56:37Z</time>
      </trkpt>
      <trkpt lat="45.70516" lon="6.27202">
        <ele>1470</ele>
        <time>2026-03-15T09:56:40Z</time>
      </trkpt>
      <trkpt lat="45.70514" lon="6.27201">
        <ele>1470</ele>
        <time>2026-03-15T09:56:43Z</time>
      </trkpt>
      <trkpt lat="45.70512" lon="6.27198">
        <ele>1469</ele>
        <time>2026-03-15T09:56:46Z</time>
      </trkpt>
      <trkpt lat="45.7051" lon="6.27197">
        <ele>1469</ele>
        <time>2026-03-15T09:56:49Z</time>
      </trkpt>
      <trkpt lat="45.70508" lon="6.27197">
        <ele>1469</ele>
        <time>2026-03-15T09:56:52Z</time>
      </trkpt>
      <trkpt lat="45.70506" lon="6.27197">
        <ele>1469</ele>
        <time>2026-03-15T09:56:55Z</time>
      </trkpt>
      <trkpt lat="45.70504" lon="6.27198">
        <ele>1469</ele>
        <time>2026-03-15T09:56:59Z</time>
      </trkpt>
      <trkpt lat="45.70503" lon="6.27199">
        <ele>1469</ele>
        <time>2026-03-15T09:57:03Z</time>
      </trkpt>
      <trkpt lat="45.70501" lon="6.272">
        <ele>1470</ele>
        <time>2026-03-15T09:57:06Z</time>
      </trkpt>
      <trkpt lat="45.705" lon="6.27202">
        <ele>1470</ele>
        <time>2026-03-15T09:57:09Z</time>
      </trkpt>
      <trkpt lat="45.70495" lon="6.27206">
        <ele>1470</ele>
        <time>2026-03-15T09:57:21Z</time>
      </trkpt>
      <trkpt lat="45.70494" lon="6.27209">
        <ele>1471</ele>
        <time>2026-03-15T09:57:27Z</time>
      </trkpt>
      <trkpt lat="45.70494" lon="6.27212">
        <ele>1471</ele>
        <time>2026-03-15T09:57:31Z</time>
      </trkpt>
      <trkpt lat="45.70495" lon="6.27215">
        <ele>1473</ele>
        <time>2026-03-15T09:57:37Z</time>
      </trkpt>
      <trkpt lat="45.70495" lon="6.27215">
        <ele>1473</ele>
        <time>2026-03-15T09:57:43Z</time>
      </trkpt>
      <trkpt lat="45.70495" lon="6.27218">
        <ele>1475</ele>
        <time>2026-03-15T09:57:53Z</time>
      </trkpt>
      <trkpt lat="45.70497" lon="6.2722">
        <ele>1476</ele>
        <time>2026-03-15T09:58:07Z</time>
      </trkpt>
      <trkpt lat="45.70502" lon="6.27218">
        <ele>1476</ele>
        <time>2026-03-15T09:58:21Z</time>
      </trkpt>
      <trkpt lat="45.70506" lon="6.2722">
        <ele>1477</ele>
        <time>2026-03-15T09:58:25Z</time>
      </trkpt>
      <trkpt lat="45.70511" lon="6.27222">
        <ele>1477</ele>
        <time>2026-03-15T09:58:31Z</time>
      </trkpt>
      <trkpt lat="45.70512" lon="6.27225">
        <ele>1478</ele>
        <time>2026-03-15T09:58:36Z</time>
      </trkpt>
      <trkpt lat="45.70513" lon="6.27227">
        <ele>1478</ele>
        <time>2026-03-15T09:58:40Z</time>
      </trkpt>
      <trkpt lat="45.70515" lon="6.27231">
        <ele>1479</ele>
        <time>2026-03-15T09:58:48Z</time>
      </trkpt>
      <trkpt lat="45.70517" lon="6.27233">
        <ele>1479</ele>
        <time>2026-03-15T09:58:51Z</time>
      </trkpt>
      <trkpt lat="45.70519" lon="6.27237">
        <ele>1480</ele>
        <time>2026-03-15T09:59:00Z</time>
      </trkpt>
      <trkpt lat="45.7052" lon="6.27239">
        <ele>1481</ele>
        <time>2026-03-15T09:59:11Z</time>
      </trkpt>
      <trkpt lat="45.70521" lon="6.27241">
        <ele>1483</ele>
        <time>2026-03-15T09:59:17Z</time>
      </trkpt>
      <trkpt lat="45.70523" lon="6.27243">
        <ele>1483</ele>
        <time>2026-03-15T09:59:25Z</time>
      </trkpt>
      <trkpt lat="45.70527" lon="6.27248">
        <ele>1483</ele>
        <time>2026-03-15T09:59:33Z</time>
      </trkpt>
      <trkpt lat="45.70523" lon="6.27257">
        <ele>1484</ele>
        <time>2026-03-15T09:59:51Z</time>
      </trkpt>
      <trkpt lat="45.70521" lon="6.27256">
        <ele>1486</ele>
        <time>2026-03-15T09:59:55Z</time>
      </trkpt>
      <trkpt lat="45.70519" lon="6.27254">
        <ele>1486</ele>
        <time>2026-03-15T10:00:00Z</time>
      </trkpt>
      <trkpt lat="45.70519" lon="6.27257">
        <ele>1486</ele>
        <time>2026-03-15T10:00:12Z</time>
      </trkpt>
      <trkpt lat="45.70519" lon="6.27259">
        <ele>1486</ele>
        <time>2026-03-15T10:00:19Z</time>
      </trkpt>
      <trkpt lat="45.70519" lon="6.2726">
        <ele>1486</ele>
        <time>2026-03-15T10:00:20Z</time>
      </trkpt>
      <trkpt lat="45.70519" lon="6.27263">
        <ele>1488</ele>
        <time>2026-03-15T10:00:28Z</time>
      </trkpt>
      <trkpt lat="45.70517" lon="6.27262">
        <ele>1488</ele>
        <time>2026-03-15T10:00:37Z</time>
      </trkpt>
      <trkpt lat="45.70515" lon="6.27262">
        <ele>1489</ele>
        <time>2026-03-15T10:00:51Z</time>
      </trkpt>
      <trkpt lat="45.70514" lon="6.27262">
        <ele>1489</ele>
        <time>2026-03-15T10:00:57Z</time>
      </trkpt>
      <trkpt lat="45.70512" lon="6.27262">
        <ele>1489</ele>
        <time>2026-03-15T10:01:02Z</time>
      </trkpt>
      <trkpt lat="45.7051" lon="6.27261">
        <ele>1490</ele>
        <time>2026-03-15T10:01:09Z</time>
      </trkpt>
      <trkpt lat="45.70509" lon="6.27263">
        <ele>1491</ele>
        <time>2026-03-15T10:01:15Z</time>
      </trkpt>
      <trkpt lat="45.70507" lon="6.27264">
        <ele>1492</ele>
        <time>2026-03-15T10:01:26Z</time>
      </trkpt>
      <trkpt lat="45.70509" lon="6.27262">
        <ele>1493</ele>
        <time>2026-03-15T10:01:36Z</time>
      </trkpt>
      <trkpt lat="45.7051" lon="6.2726">
        <ele>1493</ele>
        <time>2026-03-15T10:01:38Z</time>
      </trkpt>
      <trkpt lat="45.7051" lon="6.27264">
        <ele>1493</ele>
        <time>2026-03-15T10:01:52Z</time>
      </trkpt>
      <trkpt lat="45.70511" lon="6.27267">
        <ele>1494</ele>
        <time>2026-03-15T10:01:57Z</time>
      </trkpt>
      <trkpt lat="45.70512" lon="6.27269">
        <ele>1494</ele>
        <time>2026-03-15T10:02:01Z</time>
      </trkpt>
      <trkpt lat="45.70513" lon="6.27272">
        <ele>1494</ele>
        <time>2026-03-15T10:02:04Z</time>
      </trkpt>
      <trkpt lat="45.70515" lon="6.27273">
        <ele>1495</ele>
        <time>2026-03-15T10:02:07Z</time>
      </trkpt>
      <trkpt lat="45.70516" lon="6.27276">
        <ele>1495</ele>
        <time>2026-03-15T10:02:10Z</time>
      </trkpt>
      <trkpt lat="45.70516" lon="6.27278">
        <ele>1495</ele>
        <time>2026-03-15T10:02:13Z</time>
      </trkpt>
      <trkpt lat="45.70517" lon="6.2728">
        <ele>1496</ele>
        <time>2026-03-15T10:02:19Z</time>
      </trkpt>
      <trkpt lat="45.70517" lon="6.27284">
        <ele>1496</ele>
        <time>2026-03-15T10:02:24Z</time>
      </trkpt>
      <trkpt lat="45.70518" lon="6.27286">
        <ele>1497</ele>
        <time>2026-03-15T10:02:28Z</time>
      </trkpt>
      <trkpt lat="45.70518" lon="6.27288">
        <ele>1497</ele>
        <time>2026-03-15T10:02:32Z</time>
      </trkpt>
      <trkpt lat="45.70516" lon="6.27289">
        <ele>1498</ele>
        <time>2026-03-15T10:02:37Z</time>
      </trkpt>
      <trkpt lat="45.70515" lon="6.27289">
        <ele>1498</ele>
        <time>2026-03-15T10:02:40Z</time>
      </trkpt>
      <trkpt lat="45.70512" lon="6.27289">
        <ele>1498</ele>
        <time>2026-03-15T10:02:43Z</time>
      </trkpt>
      <trkpt lat="45.7051" lon="6.27289">
        <ele>1499</ele>
        <time>2026-03-15T10:02:47Z</time>
      </trkpt>
      <trkpt lat="45.70508" lon="6.27289">
        <ele>1499</ele>
        <time>2026-03-15T10:02:51Z</time>
      </trkpt>
      <trkpt lat="45.70506" lon="6.27288">
        <ele>1500</ele>
        <time>2026-03-15T10:02:56Z</time>
      </trkpt>
      <trkpt lat="45.70504" lon="6.27288">
        <ele>1500</ele>
        <time>2026-03-15T10:02:59Z</time>
      </trkpt>
      <trkpt lat="45.70502" lon="6.27287">
        <ele>1500</ele>
        <time>2026-03-15T10:03:02Z</time>
      </trkpt>
      <trkpt lat="45.705" lon="6.27287">
        <ele>1501</ele>
        <time>2026-03-15T10:03:06Z</time>
      </trkpt>
      <trkpt lat="45.70498" lon="6.27288">
        <ele>1501</ele>
        <time>2026-03-15T10:03:10Z</time>
      </trkpt>
      <trkpt lat="45.70496" lon="6.27288">
        <ele>1502</ele>
        <time>2026-03-15T10:03:17Z</time>
      </trkpt>
      <trkpt lat="45.70495" lon="6.27288">
        <ele>1502</ele>
        <time>2026-03-15T10:03:21Z</time>
      </trkpt>
      <trkpt lat="45.70493" lon="6.27288">
        <ele>1504</ele>
        <time>2026-03-15T10:03:31Z</time>
      </trkpt>
      <trkpt lat="45.70491" lon="6.27288">
        <ele>1505</ele>
        <time>2026-03-15T10:03:47Z</time>
      </trkpt>
      <trkpt lat="45.70489" lon="6.27288">
        <ele>1505</ele>
        <time>2026-03-15T10:03:51Z</time>
      </trkpt>
      <trkpt lat="45.70487" lon="6.27288">
        <ele>1506</ele>
        <time>2026-03-15T10:04:01Z</time>
      </trkpt>
      <trkpt lat="45.70485" lon="6.27288">
        <ele>1507</ele>
        <time>2026-03-15T10:04:09Z</time>
      </trkpt>
      <trkpt lat="45.70485" lon="6.27288">
        <ele>1507</ele>
        <time>2026-03-15T10:04:13Z</time>
      </trkpt>
      <trkpt lat="45.70483" lon="6.27289">
        <ele>1509</ele>
        <time>2026-03-15T10:04:17Z</time>
      </trkpt>
      <trkpt lat="45.7048" lon="6.2729">
        <ele>1509</ele>
        <time>2026-03-15T10:04:20Z</time>
      </trkpt>
      <trkpt lat="45.70478" lon="6.27289">
        <ele>1509</ele>
        <time>2026-03-15T10:04:24Z</time>
      </trkpt>
      <trkpt lat="45.70476" lon="6.27289">
        <ele>1509</ele>
        <time>2026-03-15T10:04:28Z</time>
      </trkpt>
      <trkpt lat="45.70474" lon="6.27288">
        <ele>1509</ele>
        <time>2026-03-15T10:04:32Z</time>
      </trkpt>
      <trkpt lat="45.70472" lon="6.27291">
        <ele>1509</ele>
        <time>2026-03-15T10:05:43Z</time>
      </trkpt>
      <trkpt lat="45.7047" lon="6.2729">
        <ele>1508</ele>
        <time>2026-03-15T10:05:51Z</time>
      </trkpt>
      <trkpt lat="45.70469" lon="6.27289">
        <ele>1509</ele>
        <time>2026-03-15T10:05:57Z</time>
      </trkpt>
      <trkpt lat="45.70467" lon="6.27289">
        <ele>1509</ele>
        <time>2026-03-15T10:06:03Z</time>
      </trkpt>
      <trkpt lat="45.70464" lon="6.27288">
        <ele>1509</ele>
        <time>2026-03-15T10:06:07Z</time>
      </trkpt>
      <trkpt lat="45.70462" lon="6.27287">
        <ele>1509</ele>
        <time>2026-03-15T10:06:11Z</time>
      </trkpt>
      <trkpt lat="45.7046" lon="6.27286">
        <ele>1510</ele>
        <time>2026-03-15T10:06:15Z</time>
      </trkpt>
      <trkpt lat="45.70458" lon="6.27285">
        <ele>1510</ele>
        <time>2026-03-15T10:06:18Z</time>
      </trkpt>
      <trkpt lat="45.70456" lon="6.27284">
        <ele>1510</ele>
        <time>2026-03-15T10:06:22Z</time>
      </trkpt>
      <trkpt lat="45.70454" lon="6.27283">
        <ele>1510</ele>
        <time>2026-03-15T10:06:25Z</time>
      </trkpt>
      <trkpt lat="45.70452" lon="6.27282">
        <ele>1510</ele>
        <time>2026-03-15T10:06:28Z</time>
      </trkpt>
      <trkpt lat="45.70451" lon="6.27281">
        <ele>1510</ele>
        <time>2026-03-15T10:06:31Z</time>
      </trkpt>
      <trkpt lat="45.70449" lon="6.2728">
        <ele>1510</ele>
        <time>2026-03-15T10:06:34Z</time>
      </trkpt>
      <trkpt lat="45.70447" lon="6.27278">
        <ele>1512</ele>
        <time>2026-03-15T10:06:37Z</time>
      </trkpt>
      <trkpt lat="45.70445" lon="6.27277">
        <ele>1512</ele>
        <time>2026-03-15T10:06:41Z</time>
      </trkpt>
      <trkpt lat="45.70443" lon="6.27277">
        <ele>1512</ele>
        <time>2026-03-15T10:06:45Z</time>
      </trkpt>
      <trkpt lat="45.70441" lon="6.27276">
        <ele>1512</ele>
        <time>2026-03-15T10:06:51Z</time>
      </trkpt>
      <trkpt lat="45.70439" lon="6.27275">
        <ele>1513</ele>
        <time>2026-03-15T10:06:55Z</time>
      </trkpt>
      <trkpt lat="45.70437" lon="6.27274">
        <ele>1513</ele>
        <time>2026-03-15T10:06:59Z</time>
      </trkpt>
      <trkpt lat="45.70436" lon="6.27274">
        <ele>1513</ele>
        <time>2026-03-15T10:07:03Z</time>
      </trkpt>
      <trkpt lat="45.70434" lon="6.27274">
        <ele>1514</ele>
        <time>2026-03-15T10:07:08Z</time>
      </trkpt>
      <trkpt lat="45.70433" lon="6.27273">
        <ele>1514</ele>
        <time>2026-03-15T10:07:11Z</time>
      </trkpt>
      <trkpt lat="45.70432" lon="6.27271">
        <ele>1516</ele>
        <time>2026-03-15T10:07:16Z</time>
      </trkpt>
      <trkpt lat="45.7043" lon="6.27271">
        <ele>1516</ele>
        <time>2026-03-15T10:07:19Z</time>
      </trkpt>
      <trkpt lat="45.70428" lon="6.27271">
        <ele>1516</ele>
        <time>2026-03-15T10:07:22Z</time>
      </trkpt>
      <trkpt lat="45.70426" lon="6.27268">
        <ele>1517</ele>
        <time>2026-03-15T10:07:26Z</time>
      </trkpt>
      <trkpt lat="45.70426" lon="6.27266">
        <ele>1517</ele>
        <time>2026-03-15T10:07:29Z</time>
      </trkpt>
      <trkpt lat="45.70425" lon="6.27262">
        <ele>1517</ele>
        <time>2026-03-15T10:07:33Z</time>
      </trkpt>
      <trkpt lat="45.70424" lon="6.27256">
        <ele>1517</ele>
        <time>2026-03-15T10:07:39Z</time>
      </trkpt>
      <trkpt lat="45.70424" lon="6.27254">
        <ele>1517</ele>
        <time>2026-03-15T10:07:42Z</time>
      </trkpt>
      <trkpt lat="45.70423" lon="6.27247">
        <ele>1518</ele>
        <time>2026-03-15T10:07:50Z</time>
      </trkpt>
      <trkpt lat="45.70423" lon="6.27244">
        <ele>1518</ele>
        <time>2026-03-15T10:07:53Z</time>
      </trkpt>
      <trkpt lat="45.70422" lon="6.27241">
        <ele>1518</ele>
        <time>2026-03-15T10:07:56Z</time>
      </trkpt>
      <trkpt lat="45.70422" lon="6.27239">
        <ele>1518</ele>
        <time>2026-03-15T10:07:59Z</time>
      </trkpt>
      <trkpt lat="45.70422" lon="6.27236">
        <ele>1518</ele>
        <time>2026-03-15T10:08:02Z</time>
      </trkpt>
      <trkpt lat="45.70423" lon="6.27233">
        <ele>1519</ele>
        <time>2026-03-15T10:08:06Z</time>
      </trkpt>
      <trkpt lat="45.70423" lon="6.2723">
        <ele>1519</ele>
        <time>2026-03-15T10:08:11Z</time>
      </trkpt>
      <trkpt lat="45.70423" lon="6.27227">
        <ele>1519</ele>
        <time>2026-03-15T10:08:15Z</time>
      </trkpt>
      <trkpt lat="45.70423" lon="6.27224">
        <ele>1519</ele>
        <time>2026-03-15T10:08:21Z</time>
      </trkpt>
      <trkpt lat="45.70422" lon="6.27221">
        <ele>1520</ele>
        <time>2026-03-15T10:08:27Z</time>
      </trkpt>
      <trkpt lat="45.70422" lon="6.27219">
        <ele>1520</ele>
        <time>2026-03-15T10:08:32Z</time>
      </trkpt>
      <trkpt lat="45.70421" lon="6.27216">
        <ele>1521</ele>
        <time>2026-03-15T10:08:38Z</time>
      </trkpt>
      <trkpt lat="45.7042" lon="6.27214">
        <ele>1521</ele>
        <time>2026-03-15T10:08:42Z</time>
      </trkpt>
      <trkpt lat="45.70418" lon="6.27212">
        <ele>1522</ele>
        <time>2026-03-15T10:08:48Z</time>
      </trkpt>
      <trkpt lat="45.70418" lon="6.27211">
        <ele>1522</ele>
        <time>2026-03-15T10:08:51Z</time>
      </trkpt>
      <trkpt lat="45.70417" lon="6.27209">
        <ele>1524</ele>
        <time>2026-03-15T10:08:56Z</time>
      </trkpt>
      <trkpt lat="45.70416" lon="6.27206">
        <ele>1524</ele>
        <time>2026-03-15T10:09:02Z</time>
      </trkpt>
      <trkpt lat="45.70415" lon="6.27204">
        <ele>1524</ele>
        <time>2026-03-15T10:09:08Z</time>
      </trkpt>
      <trkpt lat="45.70414" lon="6.27204">
        <ele>1525</ele>
        <time>2026-03-15T10:09:17Z</time>
      </trkpt>
      <trkpt lat="45.70413" lon="6.27206">
        <ele>1525</ele>
        <time>2026-03-15T10:09:21Z</time>
      </trkpt>
      <trkpt lat="45.70412" lon="6.27209">
        <ele>1527</ele>
        <time>2026-03-15T10:09:26Z</time>
      </trkpt>
      <trkpt lat="45.7041" lon="6.27211">
        <ele>1527</ele>
        <time>2026-03-15T10:09:33Z</time>
      </trkpt>
      <trkpt lat="45.70408" lon="6.27213">
        <ele>1526</ele>
        <time>2026-03-15T10:09:40Z</time>
      </trkpt>
      <trkpt lat="45.70407" lon="6.27214">
        <ele>1526</ele>
        <time>2026-03-15T10:09:44Z</time>
      </trkpt>
      <trkpt lat="45.70405" lon="6.27214">
        <ele>1527</ele>
        <time>2026-03-15T10:09:49Z</time>
      </trkpt>
      <trkpt lat="45.70405" lon="6.27215">
        <ele>1529</ele>
        <time>2026-03-15T10:09:56Z</time>
      </trkpt>
      <trkpt lat="45.70402" lon="6.27216">
        <ele>1529</ele>
        <time>2026-03-15T10:10:00Z</time>
      </trkpt>
      <trkpt lat="45.70401" lon="6.27217">
        <ele>1529</ele>
        <time>2026-03-15T10:10:03Z</time>
      </trkpt>
      <trkpt lat="45.70399" lon="6.27218">
        <ele>1529</ele>
        <time>2026-03-15T10:10:06Z</time>
      </trkpt>
      <trkpt lat="45.70397" lon="6.27219">
        <ele>1529</ele>
        <time>2026-03-15T10:10:10Z</time>
      </trkpt>
      <trkpt lat="45.70395" lon="6.27219">
        <ele>1529</ele>
        <time>2026-03-15T10:10:14Z</time>
      </trkpt>
      <trkpt lat="45.70393" lon="6.27219">
        <ele>1530</ele>
        <time>2026-03-15T10:10:20Z</time>
      </trkpt>
      <trkpt lat="45.70393" lon="6.27222">
        <ele>1531</ele>
        <time>2026-03-15T10:10:25Z</time>
      </trkpt>
      <trkpt lat="45.70393" lon="6.27225">
        <ele>1531</ele>
        <time>2026-03-15T10:10:29Z</time>
      </trkpt>
      <trkpt lat="45.70394" lon="6.27226">
        <ele>1531</ele>
        <time>2026-03-15T10:10:31Z</time>
      </trkpt>
      <trkpt lat="45.70394" lon="6.27229">
        <ele>1533</ele>
        <time>2026-03-15T10:10:36Z</time>
      </trkpt>
      <trkpt lat="45.70394" lon="6.27232">
        <ele>1533</ele>
        <time>2026-03-15T10:10:41Z</time>
      </trkpt>
      <trkpt lat="45.70393" lon="6.27234">
        <ele>1533</ele>
        <time>2026-03-15T10:10:45Z</time>
      </trkpt>
      <trkpt lat="45.70391" lon="6.27233">
        <ele>1533</ele>
        <time>2026-03-15T10:10:49Z</time>
      </trkpt>
      <trkpt lat="45.70389" lon="6.27232">
        <ele>1533</ele>
        <time>2026-03-15T10:10:53Z</time>
      </trkpt>
      <trkpt lat="45.70388" lon="6.2723">
        <ele>1534</ele>
        <time>2026-03-15T10:11:01Z</time>
      </trkpt>
      <trkpt lat="45.70386" lon="6.27229">
        <ele>1535</ele>
        <time>2026-03-15T10:11:07Z</time>
      </trkpt>
      <trkpt lat="45.70384" lon="6.27227">
        <ele>1535</ele>
        <time>2026-03-15T10:11:11Z</time>
      </trkpt>
      <trkpt lat="45.70382" lon="6.27226">
        <ele>1535</ele>
        <time>2026-03-15T10:11:17Z</time>
      </trkpt>
      <trkpt lat="45.70383" lon="6.27227">
        <ele>1536</ele>
        <time>2026-03-15T10:11:32Z</time>
      </trkpt>
      <trkpt lat="45.70383" lon="6.2723">
        <ele>1537</ele>
        <time>2026-03-15T10:11:42Z</time>
      </trkpt>
      <trkpt lat="45.70383" lon="6.27233">
        <ele>1537</ele>
        <time>2026-03-15T10:11:47Z</time>
      </trkpt>
      <trkpt lat="45.70384" lon="6.27236">
        <ele>1537</ele>
        <time>2026-03-15T10:11:51Z</time>
      </trkpt>
      <trkpt lat="45.70385" lon="6.27238">
        <ele>1537</ele>
        <time>2026-03-15T10:11:55Z</time>
      </trkpt>
      <trkpt lat="45.70386" lon="6.27241">
        <ele>1537</ele>
        <time>2026-03-15T10:12:01Z</time>
      </trkpt>
      <trkpt lat="45.70388" lon="6.27243">
        <ele>1539</ele>
        <time>2026-03-15T10:12:05Z</time>
      </trkpt>
      <trkpt lat="45.70388" lon="6.27246">
        <ele>1539</ele>
        <time>2026-03-15T10:12:10Z</time>
      </trkpt>
      <trkpt lat="45.70388" lon="6.27248">
        <ele>1539</ele>
        <time>2026-03-15T10:12:14Z</time>
      </trkpt>
      <trkpt lat="45.70387" lon="6.2725">
        <ele>1539</ele>
        <time>2026-03-15T10:12:17Z</time>
      </trkpt>
      <trkpt lat="45.70386" lon="6.27253">
        <ele>1539</ele>
        <time>2026-03-15T10:12:21Z</time>
      </trkpt>
      <trkpt lat="45.70386" lon="6.27256">
        <ele>1540</ele>
        <time>2026-03-15T10:12:25Z</time>
      </trkpt>
      <trkpt lat="45.70385" lon="6.27259">
        <ele>1540</ele>
        <time>2026-03-15T10:12:29Z</time>
      </trkpt>
      <trkpt lat="45.70384" lon="6.27258">
        <ele>1541</ele>
        <time>2026-03-15T10:12:40Z</time>
      </trkpt>
      <trkpt lat="45.70382" lon="6.27257">
        <ele>1541</ele>
        <time>2026-03-15T10:12:45Z</time>
      </trkpt>
      <trkpt lat="45.7038" lon="6.27255">
        <ele>1541</ele>
        <time>2026-03-15T10:12:53Z</time>
      </trkpt>
      <trkpt lat="45.70379" lon="6.27253">
        <ele>1542</ele>
        <time>2026-03-15T10:12:57Z</time>
      </trkpt>
      <trkpt lat="45.70377" lon="6.27252">
        <ele>1542</ele>
        <time>2026-03-15T10:13:01Z</time>
      </trkpt>
      <trkpt lat="45.70376" lon="6.2725">
        <ele>1544</ele>
        <time>2026-03-15T10:13:06Z</time>
      </trkpt>
      <trkpt lat="45.70374" lon="6.27247">
        <ele>1544</ele>
        <time>2026-03-15T10:13:11Z</time>
      </trkpt>
      <trkpt lat="45.70373" lon="6.27245">
        <ele>1545</ele>
        <time>2026-03-15T10:13:16Z</time>
      </trkpt>
      <trkpt lat="45.70372" lon="6.27243">
        <ele>1545</ele>
        <time>2026-03-15T10:13:21Z</time>
      </trkpt>
      <trkpt lat="45.7037" lon="6.27241">
        <ele>1546</ele>
        <time>2026-03-15T10:13:26Z</time>
      </trkpt>
      <trkpt lat="45.7037" lon="6.27239">
        <ele>1546</ele>
        <time>2026-03-15T10:13:33Z</time>
      </trkpt>
      <trkpt lat="45.70369" lon="6.27237">
        <ele>1547</ele>
        <time>2026-03-15T10:13:37Z</time>
      </trkpt>
      <trkpt lat="45.70367" lon="6.27234">
        <ele>1547</ele>
        <time>2026-03-15T10:13:41Z</time>
      </trkpt>
      <trkpt lat="45.70366" lon="6.27232">
        <ele>1547</ele>
        <time>2026-03-15T10:13:45Z</time>
      </trkpt>
      <trkpt lat="45.70365" lon="6.27229">
        <ele>1548</ele>
        <time>2026-03-15T10:13:58Z</time>
      </trkpt>
      <trkpt lat="45.70365" lon="6.27228">
        <ele>1548</ele>
        <time>2026-03-15T10:14:01Z</time>
      </trkpt>
      <trkpt lat="45.70364" lon="6.27225">
        <ele>1550</ele>
        <time>2026-03-15T10:14:05Z</time>
      </trkpt>
      <trkpt lat="45.70363" lon="6.27223">
        <ele>1550</ele>
        <time>2026-03-15T10:14:10Z</time>
      </trkpt>
      <trkpt lat="45.70362" lon="6.27221">
        <ele>1550</ele>
        <time>2026-03-15T10:14:14Z</time>
      </trkpt>
      <trkpt lat="45.70361" lon="6.27218">
        <ele>1550</ele>
        <time>2026-03-15T10:14:18Z</time>
      </trkpt>
      <trkpt lat="45.70361" lon="6.27216">
        <ele>1550</ele>
        <time>2026-03-15T10:14:21Z</time>
      </trkpt>
      <trkpt lat="45.7036" lon="6.27213">
        <ele>1551</ele>
        <time>2026-03-15T10:14:25Z</time>
      </trkpt>
      <trkpt lat="45.7036" lon="6.27211">
        <ele>1551</ele>
        <time>2026-03-15T10:14:33Z</time>
      </trkpt>
      <trkpt lat="45.70358" lon="6.27209">
        <ele>1552</ele>
        <time>2026-03-15T10:14:40Z</time>
      </trkpt>
      <trkpt lat="45.70357" lon="6.27206">
        <ele>1553</ele>
        <time>2026-03-15T10:14:45Z</time>
      </trkpt>
      <trkpt lat="45.70356" lon="6.27204">
        <ele>1553</ele>
        <time>2026-03-15T10:14:50Z</time>
      </trkpt>
      <trkpt lat="45.70355" lon="6.27201">
        <ele>1553</ele>
        <time>2026-03-15T10:14:54Z</time>
      </trkpt>
      <trkpt lat="45.70355" lon="6.27199">
        <ele>1554</ele>
        <time>2026-03-15T10:15:01Z</time>
      </trkpt>
      <trkpt lat="45.70354" lon="6.27202">
        <ele>1556</ele>
        <time>2026-03-15T10:15:15Z</time>
      </trkpt>
      <trkpt lat="45.70354" lon="6.27205">
        <ele>1556</ele>
        <time>2026-03-15T10:15:19Z</time>
      </trkpt>
      <trkpt lat="45.70354" lon="6.27208">
        <ele>1556</ele>
        <time>2026-03-15T10:15:23Z</time>
      </trkpt>
      <trkpt lat="45.70354" lon="6.27211">
        <ele>1556</ele>
        <time>2026-03-15T10:15:27Z</time>
      </trkpt>
      <trkpt lat="45.70353" lon="6.27212">
        <ele>1556</ele>
        <time>2026-03-15T10:15:31Z</time>
      </trkpt>
      <trkpt lat="45.70352" lon="6.27209">
        <ele>1557</ele>
        <time>2026-03-15T10:15:43Z</time>
      </trkpt>
      <trkpt lat="45.70351" lon="6.27206">
        <ele>1556</ele>
        <time>2026-03-15T10:15:48Z</time>
      </trkpt>
      <trkpt lat="45.7035" lon="6.27204">
        <ele>1556</ele>
        <time>2026-03-15T10:15:51Z</time>
      </trkpt>
      <trkpt lat="45.70349" lon="6.27202">
        <ele>1558</ele>
        <time>2026-03-15T10:15:56Z</time>
      </trkpt>
      <trkpt lat="45.70348" lon="6.272">
        <ele>1558</ele>
        <time>2026-03-15T10:16:00Z</time>
      </trkpt>
      <trkpt lat="45.70347" lon="6.27198">
        <ele>1558</ele>
        <time>2026-03-15T10:16:04Z</time>
      </trkpt>
      <trkpt lat="45.70346" lon="6.27195">
        <ele>1559</ele>
        <time>2026-03-15T10:16:08Z</time>
      </trkpt>
      <trkpt lat="45.70345" lon="6.27192">
        <ele>1559</ele>
        <time>2026-03-15T10:16:16Z</time>
      </trkpt>
      <trkpt lat="45.70344" lon="6.2719">
        <ele>1559</ele>
        <time>2026-03-15T10:16:22Z</time>
      </trkpt>
      <trkpt lat="45.70343" lon="6.27188">
        <ele>1560</ele>
        <time>2026-03-15T10:16:29Z</time>
      </trkpt>
      <trkpt lat="45.70343" lon="6.27188">
        <ele>1560</ele>
        <time>2026-03-15T10:16:31Z</time>
      </trkpt>
      <trkpt lat="45.70341" lon="6.27185">
        <ele>1562</ele>
        <time>2026-03-15T10:16:35Z</time>
      </trkpt>
      <trkpt lat="45.7034" lon="6.27183">
        <ele>1562</ele>
        <time>2026-03-15T10:16:40Z</time>
      </trkpt>
      <trkpt lat="45.70338" lon="6.27182">
        <ele>1562</ele>
        <time>2026-03-15T10:16:45Z</time>
      </trkpt>
      <trkpt lat="45.70337" lon="6.27179">
        <ele>1562</ele>
        <time>2026-03-15T10:16:50Z</time>
      </trkpt>
      <trkpt lat="45.70336" lon="6.27177">
        <ele>1563</ele>
        <time>2026-03-15T10:17:00Z</time>
      </trkpt>
      <trkpt lat="45.70335" lon="6.27176">
        <ele>1563</ele>
        <time>2026-03-15T10:17:04Z</time>
      </trkpt>
      <trkpt lat="45.70334" lon="6.27173">
        <ele>1563</ele>
        <time>2026-03-15T10:17:10Z</time>
      </trkpt>
      <trkpt lat="45.70334" lon="6.27172">
        <ele>1564</ele>
        <time>2026-03-15T10:17:21Z</time>
      </trkpt>
      <trkpt lat="45.70334" lon="6.27169">
        <ele>1565</ele>
        <time>2026-03-15T10:17:31Z</time>
      </trkpt>
      <trkpt lat="45.70333" lon="6.27167">
        <ele>1565</ele>
        <time>2026-03-15T10:17:40Z</time>
      </trkpt>
      <trkpt lat="45.70333" lon="6.27168">
        <ele>1567</ele>
        <time>2026-03-15T10:17:57Z</time>
      </trkpt>
      <trkpt lat="45.70333" lon="6.27171">
        <ele>1567</ele>
        <time>2026-03-15T10:18:02Z</time>
      </trkpt>
      <trkpt lat="45.70333" lon="6.27174">
        <ele>1567</ele>
        <time>2026-03-15T10:18:06Z</time>
      </trkpt>
      <trkpt lat="45.70332" lon="6.27176">
        <ele>1567</ele>
        <time>2026-03-15T10:18:10Z</time>
      </trkpt>
      <trkpt lat="45.70332" lon="6.27179">
        <ele>1567</ele>
        <time>2026-03-15T10:18:14Z</time>
      </trkpt>
      <trkpt lat="45.70332" lon="6.27181">
        <ele>1567</ele>
        <time>2026-03-15T10:18:21Z</time>
      </trkpt>
      <trkpt lat="45.7033" lon="6.27183">
        <ele>1569</ele>
        <time>2026-03-15T10:18:31Z</time>
      </trkpt>
      <trkpt lat="45.70329" lon="6.27185">
        <ele>1568</ele>
        <time>2026-03-15T10:18:37Z</time>
      </trkpt>
      <trkpt lat="45.70328" lon="6.27186">
        <ele>1568</ele>
        <time>2026-03-15T10:18:41Z</time>
      </trkpt>
      <trkpt lat="45.70328" lon="6.27189">
        <ele>1569</ele>
        <time>2026-03-15T10:19:04Z</time>
      </trkpt>
      <trkpt lat="45.70328" lon="6.27191">
        <ele>1569</ele>
        <time>2026-03-15T10:19:07Z</time>
      </trkpt>
      <trkpt lat="45.70329" lon="6.27194">
        <ele>1569</ele>
        <time>2026-03-15T10:19:10Z</time>
      </trkpt>
      <trkpt lat="45.70329" lon="6.27197">
        <ele>1569</ele>
        <time>2026-03-15T10:19:12Z</time>
      </trkpt>
      <trkpt lat="45.70329" lon="6.272">
        <ele>1569</ele>
        <time>2026-03-15T10:19:14Z</time>
      </trkpt>
      <trkpt lat="45.70329" lon="6.27203">
        <ele>1569</ele>
        <time>2026-03-15T10:19:17Z</time>
      </trkpt>
      <trkpt lat="45.70329" lon="6.27206">
        <ele>1569</ele>
        <time>2026-03-15T10:19:20Z</time>
      </trkpt>
      <trkpt lat="45.70328" lon="6.2721">
        <ele>1569</ele>
        <time>2026-03-15T10:19:22Z</time>
      </trkpt>
      <trkpt lat="45.70328" lon="6.27213">
        <ele>1569</ele>
        <time>2026-03-15T10:19:24Z</time>
      </trkpt>
      <trkpt lat="45.70327" lon="6.27216">
        <ele>1569</ele>
        <time>2026-03-15T10:19:27Z</time>
      </trkpt>
      <trkpt lat="45.70327" lon="6.27219">
        <ele>1569</ele>
        <time>2026-03-15T10:19:30Z</time>
      </trkpt>
      <trkpt lat="45.70326" lon="6.27221">
        <ele>1569</ele>
        <time>2026-03-15T10:19:33Z</time>
      </trkpt>
      <trkpt lat="45.70325" lon="6.27224">
        <ele>1569</ele>
        <time>2026-03-15T10:19:36Z</time>
      </trkpt>
      <trkpt lat="45.70325" lon="6.27226">
        <ele>1569</ele>
        <time>2026-03-15T10:19:39Z</time>
      </trkpt>
      <trkpt lat="45.70325" lon="6.27229">
        <ele>1569</ele>
        <time>2026-03-15T10:19:42Z</time>
      </trkpt>
      <trkpt lat="45.70325" lon="6.27232">
        <ele>1568</ele>
        <time>2026-03-15T10:19:45Z</time>
      </trkpt>
      <trkpt lat="45.70325" lon="6.27234">
        <ele>1568</ele>
        <time>2026-03-15T10:19:48Z</time>
      </trkpt>
      <trkpt lat="45.70325" lon="6.27237">
        <ele>1568</ele>
        <time>2026-03-15T10:19:51Z</time>
      </trkpt>
      <trkpt lat="45.70325" lon="6.27239">
        <ele>1568</ele>
        <time>2026-03-15T10:19:54Z</time>
      </trkpt>
      <trkpt lat="45.70325" lon="6.27242">
        <ele>1569</ele>
        <time>2026-03-15T10:19:57Z</time>
      </trkpt>
      <trkpt lat="45.70325" lon="6.27245">
        <ele>1569</ele>
        <time>2026-03-15T10:20:00Z</time>
      </trkpt>
      <trkpt lat="45.70324" lon="6.27248">
        <ele>1569</ele>
        <time>2026-03-15T10:20:03Z</time>
      </trkpt>
      <trkpt lat="45.70324" lon="6.27251">
        <ele>1569</ele>
        <time>2026-03-15T10:20:06Z</time>
      </trkpt>
      <trkpt lat="45.70324" lon="6.27253">
        <ele>1569</ele>
        <time>2026-03-15T10:20:09Z</time>
      </trkpt>
      <trkpt lat="45.70323" lon="6.27255">
        <ele>1569</ele>
        <time>2026-03-15T10:20:11Z</time>
      </trkpt>
      <trkpt lat="45.70323" lon="6.27257">
        <ele>1569</ele>
        <time>2026-03-15T10:20:14Z</time>
      </trkpt>
      <trkpt lat="45.70322" lon="6.2726">
        <ele>1571</ele>
        <time>2026-03-15T10:20:17Z</time>
      </trkpt>
      <trkpt lat="45.70322" lon="6.27262">
        <ele>1571</ele>
        <time>2026-03-15T10:20:20Z</time>
      </trkpt>
      <trkpt lat="45.70321" lon="6.27265">
        <ele>1571</ele>
        <time>2026-03-15T10:20:23Z</time>
      </trkpt>
      <trkpt lat="45.70321" lon="6.27267">
        <ele>1571</ele>
        <time>2026-03-15T10:20:27Z</time>
      </trkpt>
      <trkpt lat="45.7032" lon="6.2727">
        <ele>1571</ele>
        <time>2026-03-15T10:20:31Z</time>
      </trkpt>
      <trkpt lat="45.70319" lon="6.27274">
        <ele>1571</ele>
        <time>2026-03-15T10:20:35Z</time>
      </trkpt>
      <trkpt lat="45.70319" lon="6.27276">
        <ele>1571</ele>
        <time>2026-03-15T10:20:38Z</time>
      </trkpt>
      <trkpt lat="45.70318" lon="6.27278">
        <ele>1571</ele>
        <time>2026-03-15T10:20:41Z</time>
      </trkpt>
      <trkpt lat="45.70318" lon="6.27281">
        <ele>1572</ele>
        <time>2026-03-15T10:20:45Z</time>
      </trkpt>
      <trkpt lat="45.70317" lon="6.27284">
        <ele>1572</ele>
        <time>2026-03-15T10:20:49Z</time>
      </trkpt>
      <trkpt lat="45.70317" lon="6.27287">
        <ele>1572</ele>
        <time>2026-03-15T10:20:53Z</time>
      </trkpt>
      <trkpt lat="45.70317" lon="6.2729">
        <ele>1573</ele>
        <time>2026-03-15T10:20:57Z</time>
      </trkpt>
      <trkpt lat="45.70317" lon="6.27292">
        <ele>1573</ele>
        <time>2026-03-15T10:21:01Z</time>
      </trkpt>
      <trkpt lat="45.70317" lon="6.27296">
        <ele>1574</ele>
        <time>2026-03-15T10:21:06Z</time>
      </trkpt>
      <trkpt lat="45.70318" lon="6.27299">
        <ele>1574</ele>
        <time>2026-03-15T10:21:11Z</time>
      </trkpt>
      <trkpt lat="45.70318" lon="6.27301">
        <ele>1576</ele>
        <time>2026-03-15T10:21:15Z</time>
      </trkpt>
      <trkpt lat="45.70318" lon="6.27304">
        <ele>1576</ele>
        <time>2026-03-15T10:21:19Z</time>
      </trkpt>
      <trkpt lat="45.70318" lon="6.27306">
        <ele>1576</ele>
        <time>2026-03-15T10:21:23Z</time>
      </trkpt>
      <trkpt lat="45.70319" lon="6.27309">
        <ele>1577</ele>
        <time>2026-03-15T10:21:28Z</time>
      </trkpt>
      <trkpt lat="45.70319" lon="6.27312">
        <ele>1577</ele>
        <time>2026-03-15T10:21:32Z</time>
      </trkpt>
      <trkpt lat="45.70319" lon="6.27315">
        <ele>1578</ele>
        <time>2026-03-15T10:21:36Z</time>
      </trkpt>
      <trkpt lat="45.7032" lon="6.27317">
        <ele>1578</ele>
        <time>2026-03-15T10:21:41Z</time>
      </trkpt>
      <trkpt lat="45.7032" lon="6.2732">
        <ele>1579</ele>
        <time>2026-03-15T10:21:46Z</time>
      </trkpt>
      <trkpt lat="45.7032" lon="6.27323">
        <ele>1579</ele>
        <time>2026-03-15T10:21:51Z</time>
      </trkpt>
      <trkpt lat="45.7032" lon="6.27326">
        <ele>1580</ele>
        <time>2026-03-15T10:21:56Z</time>
      </trkpt>
      <trkpt lat="45.7032" lon="6.27329">
        <ele>1581</ele>
        <time>2026-03-15T10:22:06Z</time>
      </trkpt>
      <trkpt lat="45.70319" lon="6.27331">
        <ele>1581</ele>
        <time>2026-03-15T10:22:25Z</time>
      </trkpt>
      <trkpt lat="45.70318" lon="6.27334">
        <ele>1581</ele>
        <time>2026-03-15T10:22:29Z</time>
      </trkpt>
      <trkpt lat="45.70317" lon="6.27335">
        <ele>1581</ele>
        <time>2026-03-15T10:22:31Z</time>
      </trkpt>
      <trkpt lat="45.70317" lon="6.27337">
        <ele>1583</ele>
        <time>2026-03-15T10:22:36Z</time>
      </trkpt>
      <trkpt lat="45.70318" lon="6.27339">
        <ele>1583</ele>
        <time>2026-03-15T10:22:49Z</time>
      </trkpt>
      <trkpt lat="45.70319" lon="6.27341">
        <ele>1582</ele>
        <time>2026-03-15T10:23:14Z</time>
      </trkpt>
      <trkpt lat="45.70318" lon="6.27343">
        <ele>1582</ele>
        <time>2026-03-15T10:25:42Z</time>
      </trkpt>
      <trkpt lat="45.70316" lon="6.27345">
        <ele>1582</ele>
        <time>2026-03-15T10:27:18Z</time>
      </trkpt>
      <trkpt lat="45.70316" lon="6.27347">
        <ele>1583</ele>
        <time>2026-03-15T10:27:57Z</time>
      </trkpt>
      <trkpt lat="45.70315" lon="6.2735">
        <ele>1583</ele>
        <time>2026-03-15T10:28:01Z</time>
      </trkpt>
      <trkpt lat="45.70314" lon="6.27348">
        <ele>1581</ele>
        <time>2026-03-15T10:29:56Z</time>
      </trkpt>
      <trkpt lat="45.70313" lon="6.27345">
        <ele>1581</ele>
        <time>2026-03-15T10:29:59Z</time>
      </trkpt>
      <trkpt lat="45.70311" lon="6.27343">
        <ele>1581</ele>
        <time>2026-03-15T10:30:03Z</time>
      </trkpt>
      <trkpt lat="45.7031" lon="6.27341">
        <ele>1581</ele>
        <time>2026-03-15T10:30:06Z</time>
      </trkpt>
      <trkpt lat="45.70308" lon="6.27338">
        <ele>1581</ele>
        <time>2026-03-15T10:30:10Z</time>
      </trkpt>
      <trkpt lat="45.70308" lon="6.27336">
        <ele>1581</ele>
        <time>2026-03-15T10:30:13Z</time>
      </trkpt>
      <trkpt lat="45.70307" lon="6.27333">
        <ele>1582</ele>
        <time>2026-03-15T10:30:17Z</time>
      </trkpt>
      <trkpt lat="45.70306" lon="6.2733">
        <ele>1582</ele>
        <time>2026-03-15T10:30:21Z</time>
      </trkpt>
      <trkpt lat="45.70305" lon="6.27327">
        <ele>1582</ele>
        <time>2026-03-15T10:30:25Z</time>
      </trkpt>
      <trkpt lat="45.70304" lon="6.27325">
        <ele>1582</ele>
        <time>2026-03-15T10:30:29Z</time>
      </trkpt>
      <trkpt lat="45.70303" lon="6.27322">
        <ele>1582</ele>
        <time>2026-03-15T10:30:33Z</time>
      </trkpt>
      <trkpt lat="45.70302" lon="6.2732">
        <ele>1583</ele>
        <time>2026-03-15T10:30:36Z</time>
      </trkpt>
      <trkpt lat="45.70301" lon="6.27317">
        <ele>1583</ele>
        <time>2026-03-15T10:30:40Z</time>
      </trkpt>
      <trkpt lat="45.70301" lon="6.27315">
        <ele>1583</ele>
        <time>2026-03-15T10:30:43Z</time>
      </trkpt>
      <trkpt lat="45.703" lon="6.27312">
        <ele>1584</ele>
        <time>2026-03-15T10:30:47Z</time>
      </trkpt>
      <trkpt lat="45.70299" lon="6.27309">
        <ele>1584</ele>
        <time>2026-03-15T10:30:51Z</time>
      </trkpt>
      <trkpt lat="45.70298" lon="6.27306">
        <ele>1585</ele>
        <time>2026-03-15T10:30:55Z</time>
      </trkpt>
      <trkpt lat="45.70297" lon="6.27304">
        <ele>1585</ele>
        <time>2026-03-15T10:30:59Z</time>
      </trkpt>
      <trkpt lat="45.70297" lon="6.27302">
        <ele>1585</ele>
        <time>2026-03-15T10:31:01Z</time>
      </trkpt>
      <trkpt lat="45.70296" lon="6.273">
        <ele>1587</ele>
        <time>2026-03-15T10:31:05Z</time>
      </trkpt>
      <trkpt lat="45.70294" lon="6.27297">
        <ele>1587</ele>
        <time>2026-03-15T10:31:09Z</time>
      </trkpt>
      <trkpt lat="45.70294" lon="6.27295">
        <ele>1587</ele>
        <time>2026-03-15T10:31:13Z</time>
      </trkpt>
      <trkpt lat="45.70293" lon="6.27292">
        <ele>1588</ele>
        <time>2026-03-15T10:31:17Z</time>
      </trkpt>
      <trkpt lat="45.70291" lon="6.2729">
        <ele>1588</ele>
        <time>2026-03-15T10:31:21Z</time>
      </trkpt>
      <trkpt lat="45.7029" lon="6.27287">
        <ele>1588</ele>
        <time>2026-03-15T10:31:25Z</time>
      </trkpt>
      <trkpt lat="45.70289" lon="6.27285">
        <ele>1588</ele>
        <time>2026-03-15T10:31:28Z</time>
      </trkpt>
      <trkpt lat="45.70288" lon="6.27283">
        <ele>1588</ele>
        <time>2026-03-15T10:31:31Z</time>
      </trkpt>
      <trkpt lat="45.70286" lon="6.27281">
        <ele>1588</ele>
        <time>2026-03-15T10:31:34Z</time>
      </trkpt>
      <trkpt lat="45.70285" lon="6.27279">
        <ele>1590</ele>
        <time>2026-03-15T10:31:37Z</time>
      </trkpt>
      <trkpt lat="45.70284" lon="6.27276">
        <ele>1590</ele>
        <time>2026-03-15T10:31:40Z</time>
      </trkpt>
      <trkpt lat="45.70283" lon="6.27274">
        <ele>1590</ele>
        <time>2026-03-15T10:31:43Z</time>
      </trkpt>
      <trkpt lat="45.70282" lon="6.27272">
        <ele>1590</ele>
        <time>2026-03-15T10:31:46Z</time>
      </trkpt>
      <trkpt lat="45.70281" lon="6.2727">
        <ele>1590</ele>
        <time>2026-03-15T10:31:49Z</time>
      </trkpt>
      <trkpt lat="45.7028" lon="6.27268">
        <ele>1590</ele>
        <time>2026-03-15T10:31:52Z</time>
      </trkpt>
      <trkpt lat="45.70278" lon="6.27265">
        <ele>1591</ele>
        <time>2026-03-15T10:31:56Z</time>
      </trkpt>
      <trkpt lat="45.70277" lon="6.27262">
        <ele>1591</ele>
        <time>2026-03-15T10:32:00Z</time>
      </trkpt>
      <trkpt lat="45.70275" lon="6.2726">
        <ele>1591</ele>
        <time>2026-03-15T10:32:04Z</time>
      </trkpt>
      <trkpt lat="45.70274" lon="6.27258">
        <ele>1591</ele>
        <time>2026-03-15T10:32:08Z</time>
      </trkpt>
      <trkpt lat="45.70273" lon="6.27256">
        <ele>1591</ele>
        <time>2026-03-15T10:32:11Z</time>
      </trkpt>
      <trkpt lat="45.70272" lon="6.27254">
        <ele>1593</ele>
        <time>2026-03-15T10:32:15Z</time>
      </trkpt>
      <trkpt lat="45.70271" lon="6.27251">
        <ele>1593</ele>
        <time>2026-03-15T10:32:19Z</time>
      </trkpt>
      <trkpt lat="45.7027" lon="6.27249">
        <ele>1593</ele>
        <time>2026-03-15T10:32:23Z</time>
      </trkpt>
      <trkpt lat="45.70269" lon="6.27247">
        <ele>1594</ele>
        <time>2026-03-15T10:32:28Z</time>
      </trkpt>
      <trkpt lat="45.70268" lon="6.27244">
        <ele>1594</ele>
        <time>2026-03-15T10:32:32Z</time>
      </trkpt>
      <trkpt lat="45.70267" lon="6.27242">
        <ele>1595</ele>
        <time>2026-03-15T10:32:37Z</time>
      </trkpt>
      <trkpt lat="45.70266" lon="6.27239">
        <ele>1595</ele>
        <time>2026-03-15T10:32:42Z</time>
      </trkpt>
      <trkpt lat="45.70265" lon="6.27237">
        <ele>1596</ele>
        <time>2026-03-15T10:32:47Z</time>
      </trkpt>
      <trkpt lat="45.70265" lon="6.27235">
        <ele>1596</ele>
        <time>2026-03-15T10:32:51Z</time>
      </trkpt>
      <trkpt lat="45.70264" lon="6.27232">
        <ele>1597</ele>
        <time>2026-03-15T10:32:56Z</time>
      </trkpt>
      <trkpt lat="45.70263" lon="6.2723">
        <ele>1597</ele>
        <time>2026-03-15T10:33:01Z</time>
      </trkpt>
      <trkpt lat="45.70262" lon="6.27227">
        <ele>1598</ele>
        <time>2026-03-15T10:33:06Z</time>
      </trkpt>
      <trkpt lat="45.70261" lon="6.27224">
        <ele>1598</ele>
        <time>2026-03-15T10:33:11Z</time>
      </trkpt>
      <trkpt lat="45.7026" lon="6.27222">
        <ele>1600</ele>
        <time>2026-03-15T10:33:16Z</time>
      </trkpt>
      <trkpt lat="45.70259" lon="6.27219">
        <ele>1600</ele>
        <time>2026-03-15T10:33:21Z</time>
      </trkpt>
      <trkpt lat="45.70259" lon="6.27217">
        <ele>1601</ele>
        <time>2026-03-15T10:33:26Z</time>
      </trkpt>
      <trkpt lat="45.70258" lon="6.27214">
        <ele>1601</ele>
        <time>2026-03-15T10:33:31Z</time>
      </trkpt>
      <trkpt lat="45.70257" lon="6.27212">
        <ele>1602</ele>
        <time>2026-03-15T10:33:37Z</time>
      </trkpt>
      <trkpt lat="45.70256" lon="6.27209">
        <ele>1602</ele>
        <time>2026-03-15T10:33:43Z</time>
      </trkpt>
      <trkpt lat="45.70256" lon="6.27206">
        <ele>1602</ele>
        <time>2026-03-15T10:33:49Z</time>
      </trkpt>
      <trkpt lat="45.70255" lon="6.27205">
        <ele>1602</ele>
        <time>2026-03-15T10:33:51Z</time>
      </trkpt>
      <trkpt lat="45.70255" lon="6.27202">
        <ele>1603</ele>
        <time>2026-03-15T10:33:57Z</time>
      </trkpt>
      <trkpt lat="45.70254" lon="6.272">
        <ele>1603</ele>
        <time>2026-03-15T10:34:02Z</time>
      </trkpt>
      <trkpt lat="45.70254" lon="6.27197">
        <ele>1604</ele>
        <time>2026-03-15T10:34:08Z</time>
      </trkpt>
      <trkpt lat="45.70253" lon="6.27194">
        <ele>1604</ele>
        <time>2026-03-15T10:34:13Z</time>
      </trkpt>
      <trkpt lat="45.70252" lon="6.27192">
        <ele>1605</ele>
        <time>2026-03-15T10:34:19Z</time>
      </trkpt>
      <trkpt lat="45.70252" lon="6.27189">
        <ele>1605</ele>
        <time>2026-03-15T10:34:24Z</time>
      </trkpt>
      <trkpt lat="45.70251" lon="6.27187">
        <ele>1606</ele>
        <time>2026-03-15T10:34:29Z</time>
      </trkpt>
      <trkpt lat="45.7025" lon="6.27186">
        <ele>1606</ele>
        <time>2026-03-15T10:34:31Z</time>
      </trkpt>
      <trkpt lat="45.7025" lon="6.27184">
        <ele>1608</ele>
        <time>2026-03-15T10:34:36Z</time>
      </trkpt>
      <trkpt lat="45.70249" lon="6.27181">
        <ele>1608</ele>
        <time>2026-03-15T10:34:41Z</time>
      </trkpt>
      <trkpt lat="45.70248" lon="6.27179">
        <ele>1609</ele>
        <time>2026-03-15T10:34:46Z</time>
      </trkpt>
      <trkpt lat="45.70247" lon="6.27176">
        <ele>1609</ele>
        <time>2026-03-15T10:34:51Z</time>
      </trkpt>
      <trkpt lat="45.70246" lon="6.27173">
        <ele>1610</ele>
        <time>2026-03-15T10:34:56Z</time>
      </trkpt>
      <trkpt lat="45.70246" lon="6.2717">
        <ele>1610</ele>
        <time>2026-03-15T10:35:01Z</time>
      </trkpt>
      <trkpt lat="45.70245" lon="6.27168">
        <ele>1611</ele>
        <time>2026-03-15T10:35:06Z</time>
      </trkpt>
      <trkpt lat="45.70244" lon="6.27165">
        <ele>1611</ele>
        <time>2026-03-15T10:35:11Z</time>
      </trkpt>
      <trkpt lat="45.70244" lon="6.27162">
        <ele>1612</ele>
        <time>2026-03-15T10:35:16Z</time>
      </trkpt>
      <trkpt lat="45.70243" lon="6.27159">
        <ele>1612</ele>
        <time>2026-03-15T10:35:21Z</time>
      </trkpt>
      <trkpt lat="45.70243" lon="6.27156">
        <ele>1614</ele>
        <time>2026-03-15T10:35:26Z</time>
      </trkpt>
      <trkpt lat="45.70242" lon="6.27154">
        <ele>1614</ele>
        <time>2026-03-15T10:35:31Z</time>
      </trkpt>
      <trkpt lat="45.70241" lon="6.27151">
        <ele>1615</ele>
        <time>2026-03-15T10:35:36Z</time>
      </trkpt>
      <trkpt lat="45.70241" lon="6.27148">
        <ele>1615</ele>
        <time>2026-03-15T10:35:41Z</time>
      </trkpt>
      <trkpt lat="45.7024" lon="6.27145">
        <ele>1616</ele>
        <time>2026-03-15T10:35:46Z</time>
      </trkpt>
      <trkpt lat="45.70239" lon="6.27142">
        <ele>1616</ele>
        <time>2026-03-15T10:35:50Z</time>
      </trkpt>
      <trkpt lat="45.70239" lon="6.2714">
        <ele>1616</ele>
        <time>2026-03-15T10:35:54Z</time>
      </trkpt>
      <trkpt lat="45.70238" lon="6.27138">
        <ele>1617</ele>
        <time>2026-03-15T10:35:58Z</time>
      </trkpt>
      <trkpt lat="45.70237" lon="6.27136">
        <ele>1617</ele>
        <time>2026-03-15T10:36:02Z</time>
      </trkpt>
      <trkpt lat="45.70235" lon="6.27134">
        <ele>1618</ele>
        <time>2026-03-15T10:36:07Z</time>
      </trkpt>
      <trkpt lat="45.70233" lon="6.27133">
        <ele>1618</ele>
        <time>2026-03-15T10:36:12Z</time>
      </trkpt>
      <trkpt lat="45.70231" lon="6.27132">
        <ele>1619</ele>
        <time>2026-03-15T10:36:17Z</time>
      </trkpt>
      <trkpt lat="45.70229" lon="6.27133">
        <ele>1619</ele>
        <time>2026-03-15T10:36:22Z</time>
      </trkpt>
      <trkpt lat="45.70227" lon="6.27134">
        <ele>1620</ele>
        <time>2026-03-15T10:36:27Z</time>
      </trkpt>
      <trkpt lat="45.70225" lon="6.27136">
        <ele>1620</ele>
        <time>2026-03-15T10:36:31Z</time>
      </trkpt>
      <trkpt lat="45.70224" lon="6.27138">
        <ele>1621</ele>
        <time>2026-03-15T10:36:35Z</time>
      </trkpt>
      <trkpt lat="45.70223" lon="6.27141">
        <ele>1621</ele>
        <time>2026-03-15T10:36:39Z</time>
      </trkpt>
      <trkpt lat="45.70223" lon="6.27142">
        <ele>1621</ele>
        <time>2026-03-15T10:36:41Z</time>
      </trkpt>
      <trkpt lat="45.70222" lon="6.27144">
        <ele>1623</ele>
        <time>2026-03-15T10:36:45Z</time>
      </trkpt>
      <trkpt lat="45.70222" lon="6.27147">
        <ele>1623</ele>
        <time>2026-03-15T10:36:49Z</time>
      </trkpt>
      <trkpt lat="45.70221" lon="6.2715">
        <ele>1623</ele>
        <time>2026-03-15T10:36:53Z</time>
      </trkpt>
      <trkpt lat="45.70221" lon="6.27153">
        <ele>1624</ele>
        <time>2026-03-15T10:36:57Z</time>
      </trkpt>
      <trkpt lat="45.70221" lon="6.27155">
        <ele>1624</ele>
        <time>2026-03-15T10:37:01Z</time>
      </trkpt>
      <trkpt lat="45.70221" lon="6.27158">
        <ele>1625</ele>
        <time>2026-03-15T10:37:05Z</time>
      </trkpt>
      <trkpt lat="45.7022" lon="6.27161">
        <ele>1625</ele>
        <time>2026-03-15T10:37:09Z</time>
      </trkpt>
      <trkpt lat="45.7022" lon="6.27163">
        <ele>1625</ele>
        <time>2026-03-15T10:37:13Z</time>
      </trkpt>
      <trkpt lat="45.7022" lon="6.27166">
        <ele>1626</ele>
        <time>2026-03-15T10:37:17Z</time>
      </trkpt>
      <trkpt lat="45.70219" lon="6.27169">
        <ele>1626</ele>
        <time>2026-03-15T10:37:21Z</time>
      </trkpt>
      <trkpt lat="45.70219" lon="6.27171">
        <ele>1627</ele>
        <time>2026-03-15T10:37:25Z</time>
      </trkpt>
      <trkpt lat="45.70219" lon="6.27174">
        <ele>1627</ele>
        <time>2026-03-15T10:37:29Z</time>
      </trkpt>
      <trkpt lat="45.70219" lon="6.27177">
        <ele>1627</ele>
        <time>2026-03-15T10:37:33Z</time>
      </trkpt>
      <trkpt lat="45.70219" lon="6.2718">
        <ele>1628</ele>
        <time>2026-03-15T10:37:37Z</time>
      </trkpt>
      <trkpt lat="45.70218" lon="6.27183">
        <ele>1628</ele>
        <time>2026-03-15T10:37:41Z</time>
      </trkpt>
      <trkpt lat="45.70218" lon="6.27186">
        <ele>1628</ele>
        <time>2026-03-15T10:37:45Z</time>
      </trkpt>
      <trkpt lat="45.70217" lon="6.27189">
        <ele>1628</ele>
        <time>2026-03-15T10:37:49Z</time>
      </trkpt>
      <trkpt lat="45.70217" lon="6.2719">
        <ele>1628</ele>
        <time>2026-03-15T10:37:51Z</time>
      </trkpt>
      <trkpt lat="45.70216" lon="6.27193">
        <ele>1630</ele>
        <time>2026-03-15T10:37:55Z</time>
      </trkpt>
      <trkpt lat="45.70215" lon="6.27196">
        <ele>1630</ele>
        <time>2026-03-15T10:37:59Z</time>
      </trkpt>
      <trkpt lat="45.70215" lon="6.27198">
        <ele>1630</ele>
        <time>2026-03-15T10:38:02Z</time>
      </trkpt>
      <trkpt lat="45.70214" lon="6.27201">
        <ele>1631</ele>
        <time>2026-03-15T10:38:06Z</time>
      </trkpt>
      <trkpt lat="45.70213" lon="6.27203">
        <ele>1631</ele>
        <time>2026-03-15T10:38:10Z</time>
      </trkpt>
      <trkpt lat="45.70213" lon="6.27206">
        <ele>1631</ele>
        <time>2026-03-15T10:38:14Z</time>
      </trkpt>
      <trkpt lat="45.70212" lon="6.27209">
        <ele>1631</ele>
        <time>2026-03-15T10:38:18Z</time>
      </trkpt>
      <trkpt lat="45.70212" lon="6.27211">
        <ele>1631</ele>
        <time>2026-03-15T10:38:21Z</time>
      </trkpt>
      <trkpt lat="45.70211" lon="6.27213">
        <ele>1633</ele>
        <time>2026-03-15T10:38:25Z</time>
      </trkpt>
      <trkpt lat="45.7021" lon="6.27216">
        <ele>1633</ele>
        <time>2026-03-15T10:38:30Z</time>
      </trkpt>
      <trkpt lat="45.7021" lon="6.27218">
        <ele>1633</ele>
        <time>2026-03-15T10:38:34Z</time>
      </trkpt>
      <trkpt lat="45.70209" lon="6.27221">
        <ele>1634</ele>
        <time>2026-03-15T10:38:38Z</time>
      </trkpt>
      <trkpt lat="45.70208" lon="6.27223">
        <ele>1634</ele>
        <time>2026-03-15T10:38:42Z</time>
      </trkpt>
      <trkpt lat="45.70207" lon="6.27226">
        <ele>1635</ele>
        <time>2026-03-15T10:38:46Z</time>
      </trkpt>
      <trkpt lat="45.70206" lon="6.27228">
        <ele>1635</ele>
        <time>2026-03-15T10:38:50Z</time>
      </trkpt>
      <trkpt lat="45.70206" lon="6.27228">
        <ele>1635</ele>
        <time>2026-03-15T10:38:51Z</time>
      </trkpt>
      <trkpt lat="45.70204" lon="6.2723">
        <ele>1637</ele>
        <time>2026-03-15T10:38:55Z</time>
      </trkpt>
      <trkpt lat="45.70202" lon="6.27231">
        <ele>1637</ele>
        <time>2026-03-15T10:39:00Z</time>
      </trkpt>
      <trkpt lat="45.702" lon="6.27232">
        <ele>1637</ele>
        <time>2026-03-15T10:39:04Z</time>
      </trkpt>
      <trkpt lat="45.70198" lon="6.27232">
        <ele>1638</ele>
        <time>2026-03-15T10:39:08Z</time>
      </trkpt>
      <trkpt lat="45.70196" lon="6.27231">
        <ele>1638</ele>
        <time>2026-03-15T10:39:12Z</time>
      </trkpt>
      <trkpt lat="45.70194" lon="6.2723">
        <ele>1639</ele>
        <time>2026-03-15T10:39:16Z</time>
      </trkpt>
      <trkpt lat="45.70193" lon="6.27228">
        <ele>1639</ele>
        <time>2026-03-15T10:39:20Z</time>
      </trkpt>
      <trkpt lat="45.70191" lon="6.27226">
        <ele>1639</ele>
        <time>2026-03-15T10:39:24Z</time>
      </trkpt>
      <trkpt lat="45.7019" lon="6.27224">
        <ele>1640</ele>
        <time>2026-03-15T10:39:28Z</time>
      </trkpt>
      <trkpt lat="45.70189" lon="6.27222">
        <ele>1640</ele>
        <time>2026-03-15T10:39:32Z</time>
      </trkpt>
      <trkpt lat="45.70188" lon="6.2722">
        <ele>1641</ele>
        <time>2026-03-15T10:39:36Z</time>
      </trkpt>
      <trkpt lat="45.70187" lon="6.27217">
        <ele>1641</ele>
        <time>2026-03-15T10:39:56Z</time>
      </trkpt>
      <trkpt lat="45.70186" lon="6.27214">
        <ele>1641</ele>
        <time>2026-03-15T10:40:00Z</time>
      </trkpt>
      <trkpt lat="45.70186" lon="6.27213">
        <ele>1641</ele>
        <time>2026-03-15T10:40:01Z</time>
      </trkpt>
      <trkpt lat="45.70185" lon="6.27211">
        <ele>1644</ele>
        <time>2026-03-15T10:40:05Z</time>
      </trkpt>
      <trkpt lat="45.70185" lon="6.27208">
        <ele>1644</ele>
        <time>2026-03-15T10:40:09Z</time>
      </trkpt>
      <trkpt lat="45.70184" lon="6.27205">
        <ele>1644</ele>
        <time>2026-03-15T10:40:13Z</time>
      </trkpt>
      <trkpt lat="45.70183" lon="6.27203">
        <ele>1645</ele>
        <time>2026-03-15T10:40:17Z</time>
      </trkpt>
      <trkpt lat="45.70182" lon="6.272">
        <ele>1645</ele>
        <time>2026-03-15T10:40:22Z</time>
      </trkpt>
      <trkpt lat="45.70181" lon="6.27197">
        <ele>1645</ele>
        <time>2026-03-15T10:40:27Z</time>
      </trkpt>
      <trkpt lat="45.70181" lon="6.27195">
        <ele>1645</ele>
        <time>2026-03-15T10:40:31Z</time>
      </trkpt>
      <trkpt lat="45.7018" lon="6.27192">
        <ele>1647</ele>
        <time>2026-03-15T10:40:36Z</time>
      </trkpt>
      <trkpt lat="45.70179" lon="6.27189">
        <ele>1647</ele>
        <time>2026-03-15T10:40:40Z</time>
      </trkpt>
      <trkpt lat="45.70179" lon="6.27187">
        <ele>1647</ele>
        <time>2026-03-15T10:40:44Z</time>
      </trkpt>
      <trkpt lat="45.70178" lon="6.27184">
        <ele>1647</ele>
        <time>2026-03-15T10:40:48Z</time>
      </trkpt>
      <trkpt lat="45.70178" lon="6.27182">
        <ele>1647</ele>
        <time>2026-03-15T10:40:51Z</time>
      </trkpt>
      <trkpt lat="45.70177" lon="6.27179">
        <ele>1649</ele>
        <time>2026-03-15T10:40:56Z</time>
      </trkpt>
      <trkpt lat="45.70177" lon="6.27176">
        <ele>1649</ele>
        <time>2026-03-15T10:41:01Z</time>
      </trkpt>
      <trkpt lat="45.70176" lon="6.27174">
        <ele>1650</ele>
        <time>2026-03-15T10:41:05Z</time>
      </trkpt>
      <trkpt lat="45.70176" lon="6.27171">
        <ele>1650</ele>
        <time>2026-03-15T10:41:09Z</time>
      </trkpt>
      <trkpt lat="45.70175" lon="6.27169">
        <ele>1650</ele>
        <time>2026-03-15T10:41:13Z</time>
      </trkpt>
      <trkpt lat="45.70175" lon="6.27166">
        <ele>1651</ele>
        <time>2026-03-15T10:41:17Z</time>
      </trkpt>
      <trkpt lat="45.70174" lon="6.27164">
        <ele>1651</ele>
        <time>2026-03-15T10:41:21Z</time>
      </trkpt>
      <trkpt lat="45.70174" lon="6.27161">
        <ele>1651</ele>
        <time>2026-03-15T10:41:26Z</time>
      </trkpt>
      <trkpt lat="45.70173" lon="6.27158">
        <ele>1651</ele>
        <time>2026-03-15T10:41:31Z</time>
      </trkpt>
      <trkpt lat="45.70173" lon="6.27155">
        <ele>1653</ele>
        <time>2026-03-15T10:41:36Z</time>
      </trkpt>
      <trkpt lat="45.70172" lon="6.27152">
        <ele>1653</ele>
        <time>2026-03-15T10:41:41Z</time>
      </trkpt>
      <trkpt lat="45.70172" lon="6.27149">
        <ele>1654</ele>
        <time>2026-03-15T10:41:46Z</time>
      </trkpt>
      <trkpt lat="45.70171" lon="6.27147">
        <ele>1654</ele>
        <time>2026-03-15T10:41:51Z</time>
      </trkpt>
      <trkpt lat="45.7017" lon="6.27144">
        <ele>1655</ele>
        <time>2026-03-15T10:41:55Z</time>
      </trkpt>
      <trkpt lat="45.7017" lon="6.27141">
        <ele>1655</ele>
        <time>2026-03-15T10:42:00Z</time>
      </trkpt>
      <trkpt lat="45.70169" lon="6.27139">
        <ele>1655</ele>
        <time>2026-03-15T10:42:04Z</time>
      </trkpt>
      <trkpt lat="45.70169" lon="6.27136">
        <ele>1656</ele>
        <time>2026-03-15T10:42:09Z</time>
      </trkpt>
      <trkpt lat="45.70168" lon="6.27134">
        <ele>1656</ele>
        <time>2026-03-15T10:42:13Z</time>
      </trkpt>
      <trkpt lat="45.70168" lon="6.27131">
        <ele>1657</ele>
        <time>2026-03-15T10:42:18Z</time>
      </trkpt>
      <trkpt lat="45.70168" lon="6.2713">
        <ele>1657</ele>
        <time>2026-03-15T10:42:21Z</time>
      </trkpt>
      <trkpt lat="45.70167" lon="6.27127">
        <ele>1659</ele>
        <time>2026-03-15T10:42:26Z</time>
      </trkpt>
      <trkpt lat="45.70166" lon="6.27124">
        <ele>1659</ele>
        <time>2026-03-15T10:42:31Z</time>
      </trkpt>
      <trkpt lat="45.70166" lon="6.27121">
        <ele>1660</ele>
        <time>2026-03-15T10:42:36Z</time>
      </trkpt>
      <trkpt lat="45.70165" lon="6.27118">
        <ele>1660</ele>
        <time>2026-03-15T10:42:41Z</time>
      </trkpt>
      <trkpt lat="45.70165" lon="6.27115">
        <ele>1661</ele>
        <time>2026-03-15T10:42:46Z</time>
      </trkpt>
      <trkpt lat="45.70164" lon="6.27112">
        <ele>1661</ele>
        <time>2026-03-15T10:42:51Z</time>
      </trkpt>
      <trkpt lat="45.70163" lon="6.2711">
        <ele>1662</ele>
        <time>2026-03-15T10:42:55Z</time>
      </trkpt>
      <trkpt lat="45.70163" lon="6.27107">
        <ele>1662</ele>
        <time>2026-03-15T10:42:59Z</time>
      </trkpt>
      <trkpt lat="45.70162" lon="6.27105">
        <ele>1662</ele>
        <time>2026-03-15T10:43:03Z</time>
      </trkpt>
      <trkpt lat="45.70162" lon="6.27102">
        <ele>1663</ele>
        <time>2026-03-15T10:43:07Z</time>
      </trkpt>
      <trkpt lat="45.70161" lon="6.27099">
        <ele>1663</ele>
        <time>2026-03-15T10:43:11Z</time>
      </trkpt>
      <trkpt lat="45.7016" lon="6.27097">
        <ele>1664</ele>
        <time>2026-03-15T10:43:15Z</time>
      </trkpt>
      <trkpt lat="45.70159" lon="6.27094">
        <ele>1664</ele>
        <time>2026-03-15T10:43:19Z</time>
      </trkpt>
      <trkpt lat="45.70158" lon="6.27092">
        <ele>1664</ele>
        <time>2026-03-15T10:43:23Z</time>
      </trkpt>
      <trkpt lat="45.70157" lon="6.2709">
        <ele>1665</ele>
        <time>2026-03-15T10:43:27Z</time>
      </trkpt>
      <trkpt lat="45.70156" lon="6.27088">
        <ele>1665</ele>
        <time>2026-03-15T10:43:31Z</time>
      </trkpt>
      <trkpt lat="45.70154" lon="6.27087">
        <ele>1666</ele>
        <time>2026-03-15T10:43:35Z</time>
      </trkpt>
      <trkpt lat="45.70152" lon="6.27087">
        <ele>1666</ele>
        <time>2026-03-15T10:43:39Z</time>
      </trkpt>
      <trkpt lat="45.7015" lon="6.27087">
        <ele>1666</ele>
        <time>2026-03-15T10:43:43Z</time>
      </trkpt>
      <trkpt lat="45.70148" lon="6.27087">
        <ele>1667</ele>
        <time>2026-03-15T10:43:48Z</time>
      </trkpt>
      <trkpt lat="45.70147" lon="6.27088">
        <ele>1667</ele>
        <time>2026-03-15T10:43:51Z</time>
      </trkpt>
      <trkpt lat="45.70145" lon="6.2709">
        <ele>1669</ele>
        <time>2026-03-15T10:43:56Z</time>
      </trkpt>
      <trkpt lat="45.70144" lon="6.27092">
        <ele>1669</ele>
        <time>2026-03-15T10:44:00Z</time>
      </trkpt>
      <trkpt lat="45.70143" lon="6.27095">
        <ele>1669</ele>
        <time>2026-03-15T10:44:04Z</time>
      </trkpt>
      <trkpt lat="45.70143" lon="6.27097">
        <ele>1669</ele>
        <time>2026-03-15T10:44:08Z</time>
      </trkpt>
      <trkpt lat="45.70142" lon="6.27099">
        <ele>1669</ele>
        <time>2026-03-15T10:44:12Z</time>
      </trkpt>
      <trkpt lat="45.70142" lon="6.27103">
        <ele>1670</ele>
        <time>2026-03-15T10:44:17Z</time>
      </trkpt>
      <trkpt lat="45.70142" lon="6.27105">
        <ele>1670</ele>
        <time>2026-03-15T10:44:21Z</time>
      </trkpt>
      <trkpt lat="45.70141" lon="6.27108">
        <ele>1672</ele>
        <time>2026-03-15T10:44:25Z</time>
      </trkpt>
      <trkpt lat="45.70141" lon="6.27111">
        <ele>1672</ele>
        <time>2026-03-15T10:44:30Z</time>
      </trkpt>
      <trkpt lat="45.70141" lon="6.27114">
        <ele>1672</ele>
        <time>2026-03-15T10:44:34Z</time>
      </trkpt>
      <trkpt lat="45.70141" lon="6.27116">
        <ele>1673</ele>
        <time>2026-03-15T10:44:38Z</time>
      </trkpt>
      <trkpt lat="45.70141" lon="6.27119">
        <ele>1673</ele>
        <time>2026-03-15T10:44:42Z</time>
      </trkpt>
      <trkpt lat="45.7014" lon="6.27122">
        <ele>1674</ele>
        <time>2026-03-15T10:44:46Z</time>
      </trkpt>
      <trkpt lat="45.7014" lon="6.27124">
        <ele>1674</ele>
        <time>2026-03-15T10:44:50Z</time>
      </trkpt>
      <trkpt lat="45.70139" lon="6.27127">
        <ele>1674</ele>
        <time>2026-03-15T10:44:53Z</time>
      </trkpt>
      <trkpt lat="45.70139" lon="6.27129">
        <ele>1675</ele>
        <time>2026-03-15T10:44:57Z</time>
      </trkpt>
      <trkpt lat="45.70138" lon="6.27132">
        <ele>1675</ele>
        <time>2026-03-15T10:45:01Z</time>
      </trkpt>
      <trkpt lat="45.70138" lon="6.27135">
        <ele>1677</ele>
        <time>2026-03-15T10:45:05Z</time>
      </trkpt>
      <trkpt lat="45.70137" lon="6.27138">
        <ele>1677</ele>
        <time>2026-03-15T10:45:09Z</time>
      </trkpt>
      <trkpt lat="45.70137" lon="6.2714">
        <ele>1677</ele>
        <time>2026-03-15T10:45:13Z</time>
      </trkpt>
      <trkpt lat="45.70136" lon="6.27143">
        <ele>1677</ele>
        <time>2026-03-15T10:45:17Z</time>
      </trkpt>
      <trkpt lat="45.70136" lon="6.27146">
        <ele>1677</ele>
        <time>2026-03-15T10:45:21Z</time>
      </trkpt>
      <trkpt lat="45.70135" lon="6.27149">
        <ele>1678</ele>
        <time>2026-03-15T10:45:25Z</time>
      </trkpt>
      <trkpt lat="45.70134" lon="6.27152">
        <ele>1678</ele>
        <time>2026-03-15T10:45:29Z</time>
      </trkpt>
      <trkpt lat="45.70133" lon="6.27154">
        <ele>1678</ele>
        <time>2026-03-15T10:45:33Z</time>
      </trkpt>
      <trkpt lat="45.70133" lon="6.27157">
        <ele>1679</ele>
        <time>2026-03-15T10:45:37Z</time>
      </trkpt>
      <trkpt lat="45.70132" lon="6.27159">
        <ele>1679</ele>
        <time>2026-03-15T10:45:41Z</time>
      </trkpt>
      <trkpt lat="45.70131" lon="6.27162">
        <ele>1679</ele>
        <time>2026-03-15T10:45:45Z</time>
      </trkpt>
      <trkpt lat="45.70131" lon="6.27165">
        <ele>1679</ele>
        <time>2026-03-15T10:45:49Z</time>
      </trkpt>
      <trkpt lat="45.7013" lon="6.27167">
        <ele>1679</ele>
        <time>2026-03-15T10:45:52Z</time>
      </trkpt>
      <trkpt lat="45.70129" lon="6.27169">
        <ele>1680</ele>
        <time>2026-03-15T10:45:56Z</time>
      </trkpt>
      <trkpt lat="45.70128" lon="6.27172">
        <ele>1680</ele>
        <time>2026-03-15T10:46:00Z</time>
      </trkpt>
      <trkpt lat="45.70128" lon="6.27172">
        <ele>1680</ele>
        <time>2026-03-15T10:46:01Z</time>
      </trkpt>
      <trkpt lat="45.70126" lon="6.27171">
        <ele>1682</ele>
        <time>2026-03-15T10:46:05Z</time>
      </trkpt>
      <trkpt lat="45.70124" lon="6.2717">
        <ele>1682</ele>
        <time>2026-03-15T10:46:09Z</time>
      </trkpt>
      <trkpt lat="45.70123" lon="6.27168">
        <ele>1682</ele>
        <time>2026-03-15T10:46:13Z</time>
      </trkpt>
      <trkpt lat="45.70121" lon="6.27165">
        <ele>1683</ele>
        <time>2026-03-15T10:46:20Z</time>
      </trkpt>
      <trkpt lat="45.7012" lon="6.27163">
        <ele>1683</ele>
        <time>2026-03-15T10:46:24Z</time>
      </trkpt>
      <trkpt lat="45.70118" lon="6.27162">
        <ele>1684</ele>
        <time>2026-03-15T10:46:29Z</time>
      </trkpt>
      <trkpt lat="45.70118" lon="6.27161">
        <ele>1684</ele>
        <time>2026-03-15T10:46:31Z</time>
      </trkpt>
      <trkpt lat="45.70117" lon="6.27158">
        <ele>1686</ele>
        <time>2026-03-15T10:46:36Z</time>
      </trkpt>
      <trkpt lat="45.70116" lon="6.27155">
        <ele>1686</ele>
        <time>2026-03-15T10:46:41Z</time>
      </trkpt>
      <trkpt lat="45.70115" lon="6.27153">
        <ele>1687</ele>
        <time>2026-03-15T10:46:46Z</time>
      </trkpt>
      <trkpt lat="45.70114" lon="6.2715">
        <ele>1687</ele>
        <time>2026-03-15T10:46:51Z</time>
      </trkpt>
      <trkpt lat="45.70113" lon="6.27147">
        <ele>1688</ele>
        <time>2026-03-15T10:46:57Z</time>
      </trkpt>
      <trkpt lat="45.70112" lon="6.27145">
        <ele>1688</ele>
        <time>2026-03-15T10:47:03Z</time>
      </trkpt>
      <trkpt lat="45.70112" lon="6.27143">
        <ele>1688</ele>
        <time>2026-03-15T10:47:09Z</time>
      </trkpt>
      <trkpt lat="45.70111" lon="6.27142">
        <ele>1688</ele>
        <time>2026-03-15T10:47:11Z</time>
      </trkpt>
      <trkpt lat="45.70111" lon="6.27139">
        <ele>1690</ele>
        <time>2026-03-15T10:47:17Z</time>
      </trkpt>
      <trkpt lat="45.7011" lon="6.27137">
        <ele>1690</ele>
        <time>2026-03-15T10:47:23Z</time>
      </trkpt>
      <trkpt lat="45.70109" lon="6.27135">
        <ele>1691</ele>
        <time>2026-03-15T10:47:29Z</time>
      </trkpt>
      <trkpt lat="45.70107" lon="6.27134">
        <ele>1691</ele>
        <time>2026-03-15T10:47:37Z</time>
      </trkpt>
      <trkpt lat="45.70106" lon="6.27134">
        <ele>1691</ele>
        <time>2026-03-15T10:47:41Z</time>
      </trkpt>
      <trkpt lat="45.70105" lon="6.27137">
        <ele>1693</ele>
        <time>2026-03-15T10:47:50Z</time>
      </trkpt>
      <trkpt lat="45.70104" lon="6.27139">
        <ele>1693</ele>
        <time>2026-03-15T10:47:55Z</time>
      </trkpt>
      <trkpt lat="45.70102" lon="6.27141">
        <ele>1693</ele>
        <time>2026-03-15T10:48:00Z</time>
      </trkpt>
      <trkpt lat="45.70101" lon="6.27144">
        <ele>1693</ele>
        <time>2026-03-15T10:48:04Z</time>
      </trkpt>
      <trkpt lat="45.701" lon="6.27145">
        <ele>1694</ele>
        <time>2026-03-15T10:48:09Z</time>
      </trkpt>
      <trkpt lat="45.70099" lon="6.27144">
        <ele>1695</ele>
        <time>2026-03-15T10:48:23Z</time>
      </trkpt>
      <trkpt lat="45.70098" lon="6.27141">
        <ele>1695</ele>
        <time>2026-03-15T10:48:28Z</time>
      </trkpt>
      <trkpt lat="45.70097" lon="6.27139">
        <ele>1695</ele>
        <time>2026-03-15T10:48:32Z</time>
      </trkpt>
      <trkpt lat="45.70097" lon="6.27137">
        <ele>1695</ele>
        <time>2026-03-15T10:48:37Z</time>
      </trkpt>
      <trkpt lat="45.70096" lon="6.27135">
        <ele>1695</ele>
        <time>2026-03-15T10:48:41Z</time>
      </trkpt>
      <trkpt lat="45.70096" lon="6.27132">
        <ele>1697</ele>
        <time>2026-03-15T10:48:46Z</time>
      </trkpt>
      <trkpt lat="45.70095" lon="6.2713">
        <ele>1697</ele>
        <time>2026-03-15T10:48:52Z</time>
      </trkpt>
      <trkpt lat="45.70093" lon="6.27131">
        <ele>1698</ele>
        <time>2026-03-15T10:49:08Z</time>
      </trkpt>
      <trkpt lat="45.70091" lon="6.27132">
        <ele>1698</ele>
        <time>2026-03-15T10:49:13Z</time>
      </trkpt>
      <trkpt lat="45.70089" lon="6.27133">
        <ele>1699</ele>
        <time>2026-03-15T10:49:18Z</time>
      </trkpt>
      <trkpt lat="45.70088" lon="6.27133">
        <ele>1699</ele>
        <time>2026-03-15T10:49:21Z</time>
      </trkpt>
      <trkpt lat="45.70086" lon="6.27132">
        <ele>1701</ele>
        <time>2026-03-15T10:49:27Z</time>
      </trkpt>
      <trkpt lat="45.70085" lon="6.27133">
        <ele>1701</ele>
        <time>2026-03-15T10:49:32Z</time>
      </trkpt>
      <trkpt lat="45.70083" lon="6.27134">
        <ele>1702</ele>
        <time>2026-03-15T10:49:37Z</time>
      </trkpt>
      <trkpt lat="45.70081" lon="6.27135">
        <ele>1702</ele>
        <time>2026-03-15T10:49:42Z</time>
      </trkpt>
      <trkpt lat="45.70079" lon="6.27136">
        <ele>1703</ele>
        <time>2026-03-15T10:49:47Z</time>
      </trkpt>
      <trkpt lat="45.70078" lon="6.27138">
        <ele>1703</ele>
        <time>2026-03-15T10:49:52Z</time>
      </trkpt>
      <trkpt lat="45.70076" lon="6.27139">
        <ele>1704</ele>
        <time>2026-03-15T10:49:58Z</time>
      </trkpt>
      <trkpt lat="45.70075" lon="6.27139">
        <ele>1704</ele>
        <time>2026-03-15T10:50:01Z</time>
      </trkpt>
      <trkpt lat="45.70073" lon="6.2714">
        <ele>1706</ele>
        <time>2026-03-15T10:50:08Z</time>
      </trkpt>
      <trkpt lat="45.70071" lon="6.27141">
        <ele>1706</ele>
        <time>2026-03-15T10:50:14Z</time>
      </trkpt>
      <trkpt lat="45.7007" lon="6.27142">
        <ele>1707</ele>
        <time>2026-03-15T10:50:20Z</time>
      </trkpt>
      <trkpt lat="45.70068" lon="6.27144">
        <ele>1708</ele>
        <time>2026-03-15T10:50:49Z</time>
      </trkpt>
      <trkpt lat="45.70067" lon="6.27146">
        <ele>1708</ele>
        <time>2026-03-15T10:50:53Z</time>
      </trkpt>
      <trkpt lat="45.70066" lon="6.27148">
        <ele>1709</ele>
        <time>2026-03-15T10:50:59Z</time>
      </trkpt>
      <trkpt lat="45.70065" lon="6.2715">
        <ele>1710</ele>
        <time>2026-03-15T10:51:11Z</time>
      </trkpt>
      <trkpt lat="45.70065" lon="6.27152">
        <ele>1711</ele>
        <time>2026-03-15T10:51:19Z</time>
      </trkpt>
      <trkpt lat="45.70064" lon="6.27155">
        <ele>1711</ele>
        <time>2026-03-15T10:51:24Z</time>
      </trkpt>
      <trkpt lat="45.70063" lon="6.27157">
        <ele>1712</ele>
        <time>2026-03-15T10:51:29Z</time>
      </trkpt>
      <trkpt lat="45.70063" lon="6.2716">
        <ele>1712</ele>
        <time>2026-03-15T10:51:33Z</time>
      </trkpt>
      <trkpt lat="45.7006" lon="6.2716">
        <ele>1713</ele>
        <time>2026-03-15T10:51:41Z</time>
      </trkpt>
      <trkpt lat="45.70059" lon="6.27158">
        <ele>1714</ele>
        <time>2026-03-15T10:51:46Z</time>
      </trkpt>
      <trkpt lat="45.70057" lon="6.27156">
        <ele>1714</ele>
        <time>2026-03-15T10:51:51Z</time>
      </trkpt>
      <trkpt lat="45.70056" lon="6.27158">
        <ele>1716</ele>
        <time>2026-03-15T10:52:13Z</time>
      </trkpt>
      <trkpt lat="45.70056" lon="6.27161">
        <ele>1716</ele>
        <time>2026-03-15T10:52:18Z</time>
      </trkpt>
      <trkpt lat="45.70055" lon="6.27163">
        <ele>1716</ele>
        <time>2026-03-15T10:52:22Z</time>
      </trkpt>
      <trkpt lat="45.70054" lon="6.27166">
        <ele>1717</ele>
        <time>2026-03-15T10:52:28Z</time>
      </trkpt>
      <trkpt lat="45.70054" lon="6.27168">
        <ele>1717</ele>
        <time>2026-03-15T10:52:33Z</time>
      </trkpt>
      <trkpt lat="45.70052" lon="6.27171">
        <ele>1718</ele>
        <time>2026-03-15T10:52:38Z</time>
      </trkpt>
      <trkpt lat="45.70051" lon="6.27172">
        <ele>1718</ele>
        <time>2026-03-15T10:52:43Z</time>
      </trkpt>
      <trkpt lat="45.70051" lon="6.27174">
        <ele>1719</ele>
        <time>2026-03-15T10:52:57Z</time>
      </trkpt>
      <trkpt lat="45.70051" lon="6.27176">
        <ele>1719</ele>
        <time>2026-03-15T10:53:01Z</time>
      </trkpt>
      <trkpt lat="45.70051" lon="6.27179">
        <ele>1721</ele>
        <time>2026-03-15T10:53:08Z</time>
      </trkpt>
      <trkpt lat="45.70051" lon="6.27181">
        <ele>1721</ele>
        <time>2026-03-15T10:53:11Z</time>
      </trkpt>
      <trkpt lat="45.70051" lon="6.27183">
        <ele>1723</ele>
        <time>2026-03-15T10:53:17Z</time>
      </trkpt>
      <trkpt lat="45.70052" lon="6.27186">
        <ele>1723</ele>
        <time>2026-03-15T10:53:23Z</time>
      </trkpt>
      <trkpt lat="45.70052" lon="6.27189">
        <ele>1723</ele>
        <time>2026-03-15T10:53:33Z</time>
      </trkpt>
      <trkpt lat="45.70051" lon="6.27191">
        <ele>1724</ele>
        <time>2026-03-15T10:53:39Z</time>
      </trkpt>
      <trkpt lat="45.70051" lon="6.27192">
        <ele>1724</ele>
        <time>2026-03-15T10:53:41Z</time>
      </trkpt>
      <trkpt lat="45.7005" lon="6.27194">
        <ele>1726</ele>
        <time>2026-03-15T10:53:46Z</time>
      </trkpt>
      <trkpt lat="45.70048" lon="6.27196">
        <ele>1726</ele>
        <time>2026-03-15T10:53:51Z</time>
      </trkpt>
      <trkpt lat="45.70047" lon="6.27198">
        <ele>1726</ele>
        <time>2026-03-15T10:53:55Z</time>
      </trkpt>
      <trkpt lat="45.70045" lon="6.272">
        <ele>1726</ele>
        <time>2026-03-15T10:54:00Z</time>
      </trkpt>
      <trkpt lat="45.70044" lon="6.27201">
        <ele>1726</ele>
        <time>2026-03-15T10:54:04Z</time>
      </trkpt>
      <trkpt lat="45.70042" lon="6.27203">
        <ele>1727</ele>
        <time>2026-03-15T10:54:09Z</time>
      </trkpt>
      <trkpt lat="45.70041" lon="6.27204">
        <ele>1727</ele>
        <time>2026-03-15T10:54:12Z</time>
      </trkpt>
      <trkpt lat="45.70039" lon="6.27206">
        <ele>1728</ele>
        <time>2026-03-15T10:54:16Z</time>
      </trkpt>
      <trkpt lat="45.70037" lon="6.27207">
        <ele>1728</ele>
        <time>2026-03-15T10:54:20Z</time>
      </trkpt>
      <trkpt lat="45.70036" lon="6.27207">
        <ele>1728</ele>
        <time>2026-03-15T10:54:24Z</time>
      </trkpt>
      <trkpt lat="45.70034" lon="6.27206">
        <ele>1729</ele>
        <time>2026-03-15T10:54:29Z</time>
      </trkpt>
      <trkpt lat="45.70033" lon="6.27206">
        <ele>1729</ele>
        <time>2026-03-15T10:54:31Z</time>
      </trkpt>
      <trkpt lat="45.70031" lon="6.27204">
        <ele>1731</ele>
        <time>2026-03-15T10:54:36Z</time>
      </trkpt>
      <trkpt lat="45.7003" lon="6.27203">
        <ele>1731</ele>
        <time>2026-03-15T10:54:41Z</time>
      </trkpt>
      <trkpt lat="45.70028" lon="6.27201">
        <ele>1732</ele>
        <time>2026-03-15T10:54:46Z</time>
      </trkpt>
      <trkpt lat="45.70027" lon="6.27199">
        <ele>1732</ele>
        <time>2026-03-15T10:54:51Z</time>
      </trkpt>
      <trkpt lat="45.70026" lon="6.27196">
        <ele>1732</ele>
        <time>2026-03-15T10:54:57Z</time>
      </trkpt>
      <trkpt lat="45.70024" lon="6.27194">
        <ele>1732</ele>
        <time>2026-03-15T10:55:02Z</time>
      </trkpt>
      <trkpt lat="45.70023" lon="6.27191">
        <ele>1733</ele>
        <time>2026-03-15T10:55:07Z</time>
      </trkpt>
      <trkpt lat="45.70023" lon="6.27189">
        <ele>1733</ele>
        <time>2026-03-15T10:55:11Z</time>
      </trkpt>
      <trkpt lat="45.70022" lon="6.27186">
        <ele>1735</ele>
        <time>2026-03-15T10:55:16Z</time>
      </trkpt>
      <trkpt lat="45.70021" lon="6.27184">
        <ele>1735</ele>
        <time>2026-03-15T10:55:21Z</time>
      </trkpt>
      <trkpt lat="45.7002" lon="6.27181">
        <ele>1735</ele>
        <time>2026-03-15T10:55:27Z</time>
      </trkpt>
      <trkpt lat="45.70019" lon="6.27179">
        <ele>1735</ele>
        <time>2026-03-15T10:55:32Z</time>
      </trkpt>
      <trkpt lat="45.70018" lon="6.27176">
        <ele>1736</ele>
        <time>2026-03-15T10:55:41Z</time>
      </trkpt>
      <trkpt lat="45.70016" lon="6.27174">
        <ele>1737</ele>
        <time>2026-03-15T10:55:47Z</time>
      </trkpt>
      <trkpt lat="45.70015" lon="6.27173">
        <ele>1738</ele>
        <time>2026-03-15T10:55:58Z</time>
      </trkpt>
      <trkpt lat="45.70014" lon="6.2717">
        <ele>1738</ele>
        <time>2026-03-15T10:56:02Z</time>
      </trkpt>
      <trkpt lat="45.70013" lon="6.27167">
        <ele>1738</ele>
        <time>2026-03-15T10:56:06Z</time>
      </trkpt>
      <trkpt lat="45.70013" lon="6.27164">
        <ele>1738</ele>
        <time>2026-03-15T10:56:10Z</time>
      </trkpt>
      <trkpt lat="45.70013" lon="6.27162">
        <ele>1738</ele>
        <time>2026-03-15T10:56:13Z</time>
      </trkpt>
      <trkpt lat="45.70012" lon="6.27159">
        <ele>1739</ele>
        <time>2026-03-15T10:56:17Z</time>
      </trkpt>
      <trkpt lat="45.70012" lon="6.27156">
        <ele>1739</ele>
        <time>2026-03-15T10:56:21Z</time>
      </trkpt>
      <trkpt lat="45.70012" lon="6.27153">
        <ele>1741</ele>
        <time>2026-03-15T10:56:25Z</time>
      </trkpt>
      <trkpt lat="45.70012" lon="6.2715">
        <ele>1741</ele>
        <time>2026-03-15T10:56:29Z</time>
      </trkpt>
      <trkpt lat="45.70012" lon="6.27147">
        <ele>1741</ele>
        <time>2026-03-15T10:56:33Z</time>
      </trkpt>
      <trkpt lat="45.70011" lon="6.27144">
        <ele>1741</ele>
        <time>2026-03-15T10:56:38Z</time>
      </trkpt>
      <trkpt lat="45.70011" lon="6.27142">
        <ele>1741</ele>
        <time>2026-03-15T10:56:42Z</time>
      </trkpt>
      <trkpt lat="45.7001" lon="6.27139">
        <ele>1742</ele>
        <time>2026-03-15T10:56:47Z</time>
      </trkpt>
      <trkpt lat="45.70009" lon="6.27137">
        <ele>1742</ele>
        <time>2026-03-15T10:56:51Z</time>
      </trkpt>
      <trkpt lat="45.70008" lon="6.27135">
        <ele>1743</ele>
        <time>2026-03-15T10:56:56Z</time>
      </trkpt>
      <trkpt lat="45.70006" lon="6.27134">
        <ele>1743</ele>
        <time>2026-03-15T10:57:01Z</time>
      </trkpt>
      <trkpt lat="45.70004" lon="6.27133">
        <ele>1743</ele>
        <time>2026-03-15T10:57:05Z</time>
      </trkpt>
      <trkpt lat="45.70002" lon="6.27134">
        <ele>1743</ele>
        <time>2026-03-15T10:57:09Z</time>
      </trkpt>
      <trkpt lat="45.70001" lon="6.27135">
        <ele>1743</ele>
        <time>2026-03-15T10:57:13Z</time>
      </trkpt>
      <trkpt lat="45.69999" lon="6.27137">
        <ele>1744</ele>
        <time>2026-03-15T10:57:18Z</time>
      </trkpt>
      <trkpt lat="45.69998" lon="6.27139">
        <ele>1744</ele>
        <time>2026-03-15T10:57:22Z</time>
      </trkpt>
      <trkpt lat="45.69997" lon="6.27142">
        <ele>1745</ele>
        <time>2026-03-15T10:57:27Z</time>
      </trkpt>
      <trkpt lat="45.69996" lon="6.27143">
        <ele>1745</ele>
        <time>2026-03-15T10:57:31Z</time>
      </trkpt>
      <trkpt lat="45.69995" lon="6.27146">
        <ele>1746</ele>
        <time>2026-03-15T10:57:36Z</time>
      </trkpt>
      <trkpt lat="45.69994" lon="6.27148">
        <ele>1746</ele>
        <time>2026-03-15T10:57:41Z</time>
      </trkpt>
      <trkpt lat="45.69993" lon="6.27151">
        <ele>1748</ele>
        <time>2026-03-15T10:57:46Z</time>
      </trkpt>
      <trkpt lat="45.69993" lon="6.27153">
        <ele>1748</ele>
        <time>2026-03-15T10:57:51Z</time>
      </trkpt>
      <trkpt lat="45.69992" lon="6.27156">
        <ele>1749</ele>
        <time>2026-03-15T10:57:56Z</time>
      </trkpt>
      <trkpt lat="45.69991" lon="6.27158">
        <ele>1749</ele>
        <time>2026-03-15T10:58:01Z</time>
      </trkpt>
      <trkpt lat="45.69991" lon="6.27161">
        <ele>1750</ele>
        <time>2026-03-15T10:58:06Z</time>
      </trkpt>
      <trkpt lat="45.6999" lon="6.27164">
        <ele>1750</ele>
        <time>2026-03-15T10:58:11Z</time>
      </trkpt>
      <trkpt lat="45.6999" lon="6.27167">
        <ele>1751</ele>
        <time>2026-03-15T10:58:16Z</time>
      </trkpt>
      <trkpt lat="45.69989" lon="6.2717">
        <ele>1751</ele>
        <time>2026-03-15T10:58:21Z</time>
      </trkpt>
      <trkpt lat="45.69988" lon="6.27172">
        <ele>1752</ele>
        <time>2026-03-15T10:58:26Z</time>
      </trkpt>
      <trkpt lat="45.69988" lon="6.27175">
        <ele>1752</ele>
        <time>2026-03-15T10:58:31Z</time>
      </trkpt>
      <trkpt lat="45.69987" lon="6.27178">
        <ele>1753</ele>
        <time>2026-03-15T10:58:36Z</time>
      </trkpt>
      <trkpt lat="45.69987" lon="6.27181">
        <ele>1753</ele>
        <time>2026-03-15T10:58:41Z</time>
      </trkpt>
      <trkpt lat="45.69986" lon="6.27184">
        <ele>1754</ele>
        <time>2026-03-15T10:58:46Z</time>
      </trkpt>
      <trkpt lat="45.69986" lon="6.27187">
        <ele>1754</ele>
        <time>2026-03-15T10:59:25Z</time>
      </trkpt>
      <trkpt lat="45.69985" lon="6.27189">
        <ele>1754</ele>
        <time>2026-03-15T10:59:30Z</time>
      </trkpt>
      <trkpt lat="45.69985" lon="6.27191">
        <ele>1754</ele>
        <time>2026-03-15T10:59:34Z</time>
      </trkpt>
      <trkpt lat="45.69984" lon="6.27194">
        <ele>1755</ele>
        <time>2026-03-15T10:59:39Z</time>
      </trkpt>
      <trkpt lat="45.69984" lon="6.27196">
        <ele>1755</ele>
        <time>2026-03-15T10:59:43Z</time>
      </trkpt>
      <trkpt lat="45.69983" lon="6.272">
        <ele>1756</ele>
        <time>2026-03-15T10:59:48Z</time>
      </trkpt>
      <trkpt lat="45.69983" lon="6.27202">
        <ele>1756</ele>
        <time>2026-03-15T10:59:52Z</time>
      </trkpt>
      <trkpt lat="45.69982" lon="6.27205">
        <ele>1757</ele>
        <time>2026-03-15T10:59:57Z</time>
      </trkpt>
      <trkpt lat="45.69981" lon="6.27207">
        <ele>1757</ele>
        <time>2026-03-15T11:00:01Z</time>
      </trkpt>
      <trkpt lat="45.69981" lon="6.2721">
        <ele>1758</ele>
        <time>2026-03-15T11:00:06Z</time>
      </trkpt>
      <trkpt lat="45.6998" lon="6.27213">
        <ele>1758</ele>
        <time>2026-03-15T11:00:10Z</time>
      </trkpt>
      <trkpt lat="45.69979" lon="6.27215">
        <ele>1758</ele>
        <time>2026-03-15T11:00:14Z</time>
      </trkpt>
      <trkpt lat="45.69979" lon="6.27218">
        <ele>1759</ele>
        <time>2026-03-15T11:00:19Z</time>
      </trkpt>
      <trkpt lat="45.69978" lon="6.27219">
        <ele>1759</ele>
        <time>2026-03-15T11:00:21Z</time>
      </trkpt>
      <trkpt lat="45.69977" lon="6.27222">
        <ele>1761</ele>
        <time>2026-03-15T11:00:26Z</time>
      </trkpt>
      <trkpt lat="45.69976" lon="6.27224">
        <ele>1761</ele>
        <time>2026-03-15T11:00:31Z</time>
      </trkpt>
      <trkpt lat="45.69976" lon="6.27227">
        <ele>1761</ele>
        <time>2026-03-15T11:00:36Z</time>
      </trkpt>
      <trkpt lat="45.69975" lon="6.27229">
        <ele>1761</ele>
        <time>2026-03-15T11:00:41Z</time>
      </trkpt>
      <trkpt lat="45.69974" lon="6.27232">
        <ele>1763</ele>
        <time>2026-03-15T11:00:47Z</time>
      </trkpt>
      <trkpt lat="45.69973" lon="6.27234">
        <ele>1763</ele>
        <time>2026-03-15T11:00:53Z</time>
      </trkpt>
      <trkpt lat="45.69972" lon="6.27237">
        <ele>1764</ele>
        <time>2026-03-15T11:00:59Z</time>
      </trkpt>
      <trkpt lat="45.69971" lon="6.27239">
        <ele>1765</ele>
        <time>2026-03-15T11:01:05Z</time>
      </trkpt>
      <trkpt lat="45.6997" lon="6.27242">
        <ele>1765</ele>
        <time>2026-03-15T11:01:11Z</time>
      </trkpt>
      <trkpt lat="45.69969" lon="6.27244">
        <ele>1766</ele>
        <time>2026-03-15T11:01:16Z</time>
      </trkpt>
      <trkpt lat="45.69968" lon="6.27247">
        <ele>1766</ele>
        <time>2026-03-15T11:01:21Z</time>
      </trkpt>
      <trkpt lat="45.69968" lon="6.27249">
        <ele>1767</ele>
        <time>2026-03-15T11:01:26Z</time>
      </trkpt>
      <trkpt lat="45.69967" lon="6.27252">
        <ele>1767</ele>
        <time>2026-03-15T11:01:31Z</time>
      </trkpt>
      <trkpt lat="45.69966" lon="6.27254">
        <ele>1769</ele>
        <time>2026-03-15T11:01:51Z</time>
      </trkpt>
      <trkpt lat="45.69966" lon="6.27256">
        <ele>1769</ele>
        <time>2026-03-15T11:02:06Z</time>
      </trkpt>
      <trkpt lat="45.69964" lon="6.27259">
        <ele>1769</ele>
        <time>2026-03-15T11:02:11Z</time>
      </trkpt>
      <trkpt lat="45.69964" lon="6.27261">
        <ele>1770</ele>
        <time>2026-03-15T11:02:15Z</time>
      </trkpt>
      <trkpt lat="45.69963" lon="6.27263">
        <ele>1770</ele>
        <time>2026-03-15T11:02:20Z</time>
      </trkpt>
      <trkpt lat="45.69961" lon="6.27266">
        <ele>1771</ele>
        <time>2026-03-15T11:02:25Z</time>
      </trkpt>
      <trkpt lat="45.6996" lon="6.27268">
        <ele>1771</ele>
        <time>2026-03-15T11:02:29Z</time>
      </trkpt>
      <trkpt lat="45.6996" lon="6.27269">
        <ele>1771</ele>
        <time>2026-03-15T11:02:31Z</time>
      </trkpt>
      <trkpt lat="45.69958" lon="6.27271">
        <ele>1773</ele>
        <time>2026-03-15T11:02:35Z</time>
      </trkpt>
      <trkpt lat="45.69957" lon="6.27272">
        <ele>1773</ele>
        <time>2026-03-15T11:02:39Z</time>
      </trkpt>
      <trkpt lat="45.69955" lon="6.27274">
        <ele>1773</ele>
        <time>2026-03-15T11:02:43Z</time>
      </trkpt>
      <trkpt lat="45.69953" lon="6.27275">
        <ele>1774</ele>
        <time>2026-03-15T11:02:48Z</time>
      </trkpt>
      <trkpt lat="45.69952" lon="6.27275">
        <ele>1775</ele>
        <time>2026-03-15T11:02:58Z</time>
      </trkpt>
      <trkpt lat="45.69949" lon="6.27275">
        <ele>1775</ele>
        <time>2026-03-15T11:03:03Z</time>
      </trkpt>
      <trkpt lat="45.69947" lon="6.27274">
        <ele>1775</ele>
        <time>2026-03-15T11:03:08Z</time>
      </trkpt>
      <trkpt lat="45.69945" lon="6.27274">
        <ele>1775</ele>
        <time>2026-03-15T11:03:13Z</time>
      </trkpt>
      <trkpt lat="45.69943" lon="6.27273">
        <ele>1776</ele>
        <time>2026-03-15T11:03:18Z</time>
      </trkpt>
      <trkpt lat="45.69942" lon="6.27272">
        <ele>1776</ele>
        <time>2026-03-15T11:03:21Z</time>
      </trkpt>
      <trkpt lat="45.69941" lon="6.27272">
        <ele>1778</ele>
        <time>2026-03-15T11:03:26Z</time>
      </trkpt>
      <trkpt lat="45.69939" lon="6.27271">
        <ele>1778</ele>
        <time>2026-03-15T11:03:31Z</time>
      </trkpt>
      <trkpt lat="45.69937" lon="6.2727">
        <ele>1779</ele>
        <time>2026-03-15T11:03:37Z</time>
      </trkpt>
      <trkpt lat="45.69936" lon="6.27269">
        <ele>1779</ele>
        <time>2026-03-15T11:03:42Z</time>
      </trkpt>
      <trkpt lat="45.69934" lon="6.27268">
        <ele>1780</ele>
        <time>2026-03-15T11:03:48Z</time>
      </trkpt>
      <trkpt lat="45.69933" lon="6.27266">
        <ele>1780</ele>
        <time>2026-03-15T11:03:53Z</time>
      </trkpt>
      <trkpt lat="45.69931" lon="6.27265">
        <ele>1781</ele>
        <time>2026-03-15T11:03:59Z</time>
      </trkpt>
      <trkpt lat="45.6993" lon="6.27264">
        <ele>1781</ele>
        <time>2026-03-15T11:04:04Z</time>
      </trkpt>
      <trkpt lat="45.69928" lon="6.27262">
        <ele>1782</ele>
        <time>2026-03-15T11:04:10Z</time>
      </trkpt>
      <trkpt lat="45.69927" lon="6.27261">
        <ele>1783</ele>
        <time>2026-03-15T11:04:15Z</time>
      </trkpt>
      <trkpt lat="45.69925" lon="6.27259">
        <ele>1783</ele>
        <time>2026-03-15T11:04:20Z</time>
      </trkpt>
      <trkpt lat="45.69924" lon="6.27257">
        <ele>1784</ele>
        <time>2026-03-15T11:04:25Z</time>
      </trkpt>
      <trkpt lat="45.69922" lon="6.27255">
        <ele>1784</ele>
        <time>2026-03-15T11:04:30Z</time>
      </trkpt>
      <trkpt lat="45.69921" lon="6.27253">
        <ele>1785</ele>
        <time>2026-03-15T11:04:35Z</time>
      </trkpt>
      <trkpt lat="45.6992" lon="6.27251">
        <ele>1785</ele>
        <time>2026-03-15T11:04:40Z</time>
      </trkpt>
      <trkpt lat="45.69919" lon="6.27249">
        <ele>1786</ele>
        <time>2026-03-15T11:04:45Z</time>
      </trkpt>
      <trkpt lat="45.69918" lon="6.27247">
        <ele>1786</ele>
        <time>2026-03-15T11:04:51Z</time>
      </trkpt>
      <trkpt lat="45.69917" lon="6.27244">
        <ele>1786</ele>
        <time>2026-03-15T11:04:57Z</time>
      </trkpt>
      <trkpt lat="45.69916" lon="6.27243">
        <ele>1786</ele>
        <time>2026-03-15T11:05:01Z</time>
      </trkpt>
      <trkpt lat="45.69914" lon="6.2724">
        <ele>1788</ele>
        <time>2026-03-15T11:05:07Z</time>
      </trkpt>
      <trkpt lat="45.69913" lon="6.27239">
        <ele>1788</ele>
        <time>2026-03-15T11:05:11Z</time>
      </trkpt>
      <trkpt lat="45.69912" lon="6.27236">
        <ele>1790</ele>
        <time>2026-03-15T11:05:17Z</time>
      </trkpt>
      <trkpt lat="45.69911" lon="6.27234">
        <ele>1790</ele>
        <time>2026-03-15T11:05:22Z</time>
      </trkpt>
      <trkpt lat="45.6991" lon="6.27232">
        <ele>1791</ele>
        <time>2026-03-15T11:05:27Z</time>
      </trkpt>
      <trkpt lat="45.69909" lon="6.27229">
        <ele>1791</ele>
        <time>2026-03-15T11:05:32Z</time>
      </trkpt>
      <trkpt lat="45.69909" lon="6.27227">
        <ele>1791</ele>
        <time>2026-03-15T11:05:37Z</time>
      </trkpt>
      <trkpt lat="45.69908" lon="6.27225">
        <ele>1791</ele>
        <time>2026-03-15T11:05:42Z</time>
      </trkpt>
      <trkpt lat="45.69907" lon="6.27222">
        <ele>1792</ele>
        <time>2026-03-15T11:05:48Z</time>
      </trkpt>
      <trkpt lat="45.69907" lon="6.27219">
        <ele>1792</ele>
        <time>2026-03-15T11:05:53Z</time>
      </trkpt>
      <trkpt lat="45.69906" lon="6.27216">
        <ele>1792</ele>
        <time>2026-03-15T11:05:59Z</time>
      </trkpt>
      <trkpt lat="45.69906" lon="6.27216">
        <ele>1792</ele>
        <time>2026-03-15T11:06:01Z</time>
      </trkpt>
      <trkpt lat="45.69905" lon="6.27213">
        <ele>1794</ele>
        <time>2026-03-15T11:06:07Z</time>
      </trkpt>
      <trkpt lat="45.69905" lon="6.27211">
        <ele>1794</ele>
        <time>2026-03-15T11:06:11Z</time>
      </trkpt>
      <trkpt lat="45.69904" lon="6.27208">
        <ele>1796</ele>
        <time>2026-03-15T11:06:18Z</time>
      </trkpt>
      <trkpt lat="45.69904" lon="6.27206">
        <ele>1796</ele>
        <time>2026-03-15T11:06:24Z</time>
      </trkpt>
      <trkpt lat="45.69903" lon="6.27203">
        <ele>1796</ele>
        <time>2026-03-15T11:06:30Z</time>
      </trkpt>
      <trkpt lat="45.69903" lon="6.27201">
        <ele>1796</ele>
        <time>2026-03-15T11:06:34Z</time>
      </trkpt>
      <trkpt lat="45.69902" lon="6.27198">
        <ele>1797</ele>
        <time>2026-03-15T11:06:39Z</time>
      </trkpt>
      <trkpt lat="45.69901" lon="6.27196">
        <ele>1797</ele>
        <time>2026-03-15T11:06:43Z</time>
      </trkpt>
      <trkpt lat="45.699" lon="6.27194">
        <ele>1798</ele>
        <time>2026-03-15T11:06:48Z</time>
      </trkpt>
      <trkpt lat="45.69899" lon="6.27192">
        <ele>1798</ele>
        <time>2026-03-15T11:06:52Z</time>
      </trkpt>
      <trkpt lat="45.69898" lon="6.27189">
        <ele>1799</ele>
        <time>2026-03-15T11:06:57Z</time>
      </trkpt>
      <trkpt lat="45.69897" lon="6.27187">
        <ele>1799</ele>
        <time>2026-03-15T11:07:01Z</time>
      </trkpt>
      <trkpt lat="45.69896" lon="6.27184">
        <ele>1799</ele>
        <time>2026-03-15T11:07:06Z</time>
      </trkpt>
      <trkpt lat="45.69895" lon="6.27182">
        <ele>1799</ele>
        <time>2026-03-15T11:07:11Z</time>
      </trkpt>
      <trkpt lat="45.69894" lon="6.27179">
        <ele>1800</ele>
        <time>2026-03-15T11:07:16Z</time>
      </trkpt>
      <trkpt lat="45.69893" lon="6.27177">
        <ele>1800</ele>
        <time>2026-03-15T11:07:21Z</time>
      </trkpt>
      <trkpt lat="45.69892" lon="6.27175">
        <ele>1802</ele>
        <time>2026-03-15T11:07:26Z</time>
      </trkpt>
      <trkpt lat="45.69891" lon="6.27173">
        <ele>1802</ele>
        <time>2026-03-15T11:07:31Z</time>
      </trkpt>
      <trkpt lat="45.6989" lon="6.2717">
        <ele>1802</ele>
        <time>2026-03-15T11:07:36Z</time>
      </trkpt>
      <trkpt lat="45.69889" lon="6.27168">
        <ele>1802</ele>
        <time>2026-03-15T11:07:41Z</time>
      </trkpt>
      <trkpt lat="45.69888" lon="6.27165">
        <ele>1803</ele>
        <time>2026-03-15T11:07:46Z</time>
      </trkpt>
      <trkpt lat="45.69887" lon="6.27163">
        <ele>1803</ele>
        <time>2026-03-15T11:07:51Z</time>
      </trkpt>
      <trkpt lat="45.69886" lon="6.2716">
        <ele>1804</ele>
        <time>2026-03-15T11:07:56Z</time>
      </trkpt>
      <trkpt lat="45.69886" lon="6.27157">
        <ele>1804</ele>
        <time>2026-03-15T11:08:01Z</time>
      </trkpt>
      <trkpt lat="45.69885" lon="6.27154">
        <ele>1806</ele>
        <time>2026-03-15T11:08:06Z</time>
      </trkpt>
      <trkpt lat="45.69884" lon="6.27152">
        <ele>1806</ele>
        <time>2026-03-15T11:08:11Z</time>
      </trkpt>
      <trkpt lat="45.69883" lon="6.27149">
        <ele>1806</ele>
        <time>2026-03-15T11:08:16Z</time>
      </trkpt>
      <trkpt lat="45.69882" lon="6.27146">
        <ele>1806</ele>
        <time>2026-03-15T11:08:21Z</time>
      </trkpt>
      <trkpt lat="45.69882" lon="6.27143">
        <ele>1807</ele>
        <time>2026-03-15T11:08:26Z</time>
      </trkpt>
      <trkpt lat="45.69881" lon="6.27141">
        <ele>1807</ele>
        <time>2026-03-15T11:08:31Z</time>
      </trkpt>
      <trkpt lat="45.6988" lon="6.27138">
        <ele>1808</ele>
        <time>2026-03-15T11:08:36Z</time>
      </trkpt>
      <trkpt lat="45.6988" lon="6.27136">
        <ele>1808</ele>
        <time>2026-03-15T11:08:41Z</time>
      </trkpt>
      <trkpt lat="45.69879" lon="6.27133">
        <ele>1810</ele>
        <time>2026-03-15T11:08:46Z</time>
      </trkpt>
      <trkpt lat="45.69878" lon="6.27131">
        <ele>1810</ele>
        <time>2026-03-15T11:08:51Z</time>
      </trkpt>
      <trkpt lat="45.69878" lon="6.27128">
        <ele>1811</ele>
        <time>2026-03-15T11:08:56Z</time>
      </trkpt>
      <trkpt lat="45.69878" lon="6.27126">
        <ele>1811</ele>
        <time>2026-03-15T11:09:01Z</time>
      </trkpt>
      <trkpt lat="45.69877" lon="6.27123">
        <ele>1812</ele>
        <time>2026-03-15T11:09:06Z</time>
      </trkpt>
      <trkpt lat="45.69877" lon="6.2712">
        <ele>1812</ele>
        <time>2026-03-15T11:09:11Z</time>
      </trkpt>
      <trkpt lat="45.69876" lon="6.27118">
        <ele>1813</ele>
        <time>2026-03-15T11:09:16Z</time>
      </trkpt>
      <trkpt lat="45.69875" lon="6.27115">
        <ele>1813</ele>
        <time>2026-03-15T11:09:21Z</time>
      </trkpt>
      <trkpt lat="45.69873" lon="6.27113">
        <ele>1814</ele>
        <time>2026-03-15T11:09:26Z</time>
      </trkpt>
      <trkpt lat="45.69871" lon="6.27112">
        <ele>1814</ele>
        <time>2026-03-15T11:09:31Z</time>
      </trkpt>
      <trkpt lat="45.69869" lon="6.27112">
        <ele>1814</ele>
        <time>2026-03-15T11:09:36Z</time>
      </trkpt>
      <trkpt lat="45.69867" lon="6.27112">
        <ele>1814</ele>
        <time>2026-03-15T11:09:41Z</time>
      </trkpt>
      <trkpt lat="45.69866" lon="6.27113">
        <ele>1815</ele>
        <time>2026-03-15T11:10:22Z</time>
      </trkpt>
      <trkpt lat="45.69864" lon="6.27115">
        <ele>1815</ele>
        <time>2026-03-15T11:10:28Z</time>
      </trkpt>
      <trkpt lat="45.69863" lon="6.27116">
        <ele>1815</ele>
        <time>2026-03-15T11:10:31Z</time>
      </trkpt>
      <trkpt lat="45.69861" lon="6.27117">
        <ele>1817</ele>
        <time>2026-03-15T11:10:37Z</time>
      </trkpt>
      <trkpt lat="45.6986" lon="6.27119">
        <ele>1817</ele>
        <time>2026-03-15T11:10:43Z</time>
      </trkpt>
      <trkpt lat="45.69858" lon="6.27121">
        <ele>1818</ele>
        <time>2026-03-15T11:10:48Z</time>
      </trkpt>
      <trkpt lat="45.69857" lon="6.27122">
        <ele>1818</ele>
        <time>2026-03-15T11:10:51Z</time>
      </trkpt>
      <trkpt lat="45.69856" lon="6.27124">
        <ele>1820</ele>
        <time>2026-03-15T11:10:56Z</time>
      </trkpt>
      <trkpt lat="45.69854" lon="6.27126">
        <ele>1820</ele>
        <time>2026-03-15T11:11:01Z</time>
      </trkpt>
      <trkpt lat="45.69853" lon="6.27128">
        <ele>1821</ele>
        <time>2026-03-15T11:11:06Z</time>
      </trkpt>
      <trkpt lat="45.69852" lon="6.2713">
        <ele>1821</ele>
        <time>2026-03-15T11:11:11Z</time>
      </trkpt>
      <trkpt lat="45.69851" lon="6.27131">
        <ele>1822</ele>
        <time>2026-03-15T11:11:21Z</time>
      </trkpt>
      <trkpt lat="45.6985" lon="6.27133">
        <ele>1824</ele>
        <time>2026-03-15T11:11:30Z</time>
      </trkpt>
      <trkpt lat="45.69848" lon="6.27135">
        <ele>1824</ele>
        <time>2026-03-15T11:11:36Z</time>
      </trkpt>
      <trkpt lat="45.69847" lon="6.27137">
        <ele>1824</ele>
        <time>2026-03-15T11:11:41Z</time>
      </trkpt>
      <trkpt lat="45.69845" lon="6.27139">
        <ele>1825</ele>
        <time>2026-03-15T11:11:47Z</time>
      </trkpt>
      <trkpt lat="45.69844" lon="6.27141">
        <ele>1825</ele>
        <time>2026-03-15T11:11:52Z</time>
      </trkpt>
      <trkpt lat="45.69843" lon="6.27142">
        <ele>1826</ele>
        <time>2026-03-15T11:11:56Z</time>
      </trkpt>
      <trkpt lat="45.69842" lon="6.27144">
        <ele>1826</ele>
        <time>2026-03-15T11:12:00Z</time>
      </trkpt>
      <trkpt lat="45.6984" lon="6.27146">
        <ele>1826</ele>
        <time>2026-03-15T11:12:04Z</time>
      </trkpt>
      <trkpt lat="45.69839" lon="6.27148">
        <ele>1827</ele>
        <time>2026-03-15T11:12:09Z</time>
      </trkpt>
      <trkpt lat="45.69838" lon="6.27151">
        <ele>1827</ele>
        <time>2026-03-15T11:12:14Z</time>
      </trkpt>
      <trkpt lat="45.69837" lon="6.27153">
        <ele>1827</ele>
        <time>2026-03-15T11:12:18Z</time>
      </trkpt>
      <trkpt lat="45.69835" lon="6.27154">
        <ele>1827</ele>
        <time>2026-03-15T11:12:22Z</time>
      </trkpt>
      <trkpt lat="45.69834" lon="6.27156">
        <ele>1828</ele>
        <time>2026-03-15T11:12:27Z</time>
      </trkpt>
      <trkpt lat="45.69832" lon="6.27158">
        <ele>1828</ele>
        <time>2026-03-15T11:12:31Z</time>
      </trkpt>
      <trkpt lat="45.6983" lon="6.27159">
        <ele>1829</ele>
        <time>2026-03-15T11:12:35Z</time>
      </trkpt>
      <trkpt lat="45.69829" lon="6.27161">
        <ele>1829</ele>
        <time>2026-03-15T11:12:39Z</time>
      </trkpt>
      <trkpt lat="45.69828" lon="6.27164">
        <ele>1829</ele>
        <time>2026-03-15T11:12:47Z</time>
      </trkpt>
      <trkpt lat="45.69826" lon="6.27166">
        <ele>1829</ele>
        <time>2026-03-15T11:12:51Z</time>
      </trkpt>
      <trkpt lat="45.69825" lon="6.27169">
        <ele>1830</ele>
        <time>2026-03-15T11:12:55Z</time>
      </trkpt>
      <trkpt lat="45.69823" lon="6.27171">
        <ele>1830</ele>
        <time>2026-03-15T11:12:59Z</time>
      </trkpt>
      <trkpt lat="45.69822" lon="6.27172">
        <ele>1830</ele>
        <time>2026-03-15T11:13:02Z</time>
      </trkpt>
      <trkpt lat="45.6982" lon="6.27174">
        <ele>1831</ele>
        <time>2026-03-15T11:13:06Z</time>
      </trkpt>
      <trkpt lat="45.69818" lon="6.27176">
        <ele>1831</ele>
        <time>2026-03-15T11:13:10Z</time>
      </trkpt>
      <trkpt lat="45.69817" lon="6.27178">
        <ele>1831</ele>
        <time>2026-03-15T11:13:14Z</time>
      </trkpt>
      <trkpt lat="45.69816" lon="6.27181">
        <ele>1832</ele>
        <time>2026-03-15T11:13:19Z</time>
      </trkpt>
      <trkpt lat="45.69815" lon="6.27183">
        <ele>1832</ele>
        <time>2026-03-15T11:13:24Z</time>
      </trkpt>
      <trkpt lat="45.69816" lon="6.27185">
        <ele>1833</ele>
        <time>2026-03-15T11:13:30Z</time>
      </trkpt>
      <trkpt lat="45.69817" lon="6.27187">
        <ele>1833</ele>
        <time>2026-03-15T11:13:34Z</time>
      </trkpt>
      <trkpt lat="45.69819" lon="6.27188">
        <ele>1834</ele>
        <time>2026-03-15T11:13:40Z</time>
      </trkpt>
      <trkpt lat="45.69818" lon="6.27186">
        <ele>1835</ele>
        <time>2026-03-15T11:15:00Z</time>
      </trkpt>
      <trkpt lat="45.69819" lon="6.27183">
        <ele>1834</ele>
        <time>2026-03-15T11:15:08Z</time>
      </trkpt>
      <trkpt lat="45.69821" lon="6.27181">
        <ele>1834</ele>
        <time>2026-03-15T11:15:57Z</time>
      </trkpt>
      <trkpt lat="45.69822" lon="6.27179">
        <ele>1835</ele>
        <time>2026-03-15T11:16:05Z</time>
      </trkpt>
      <trkpt lat="45.69822" lon="6.27181">
        <ele>1835</ele>
        <time>2026-03-15T11:17:01Z</time>
      </trkpt>
      <trkpt lat="45.6982" lon="6.27182">
        <ele>1835</ele>
        <time>2026-03-15T11:17:50Z</time>
      </trkpt>
      <trkpt lat="45.69821" lon="6.27184">
        <ele>1834</ele>
        <time>2026-03-15T11:18:29Z</time>
      </trkpt>
      <trkpt lat="45.6982" lon="6.27186">
        <ele>1834</ele>
        <time>2026-03-15T11:18:46Z</time>
      </trkpt>
      <trkpt lat="45.69818" lon="6.27188">
        <ele>1834</ele>
        <time>2026-03-15T11:18:51Z</time>
      </trkpt>
      <trkpt lat="45.69817" lon="6.2719">
        <ele>1834</ele>
        <time>2026-03-15T11:18:56Z</time>
      </trkpt>
      <trkpt lat="45.69816" lon="6.2719">
        <ele>1834</ele>
        <time>2026-03-15T11:19:01Z</time>
      </trkpt>
      <trkpt lat="45.69818" lon="6.27189">
        <ele>1832</ele>
        <time>2026-03-15T11:20:16Z</time>
      </trkpt>
      <trkpt lat="45.6982" lon="6.27188">
        <ele>1832</ele>
        <time>2026-03-15T11:20:21Z</time>
      </trkpt>
      <trkpt lat="45.6982" lon="6.27185">
        <ele>1833</ele>
        <time>2026-03-15T11:20:34Z</time>
      </trkpt>
      <trkpt lat="45.6982" lon="6.27183">
        <ele>1834</ele>
        <time>2026-03-15T11:21:01Z</time>
      </trkpt>
      <trkpt lat="45.69821" lon="6.27184">
        <ele>1832</ele>
        <time>2026-03-15T11:22:11Z</time>
      </trkpt>
      <trkpt lat="45.69822" lon="6.27181">
        <ele>1833</ele>
        <time>2026-03-15T11:22:36Z</time>
      </trkpt>
      <trkpt lat="45.6982" lon="6.27182">
        <ele>1833</ele>
        <time>2026-03-15T11:22:48Z</time>
      </trkpt>
      <trkpt lat="45.69821" lon="6.27185">
        <ele>1833</ele>
        <time>2026-03-15T11:23:09Z</time>
      </trkpt>
      <trkpt lat="45.69822" lon="6.27183">
        <ele>1833</ele>
        <time>2026-03-15T11:23:56Z</time>
      </trkpt>
      <trkpt lat="45.69824" lon="6.27181">
        <ele>1833</ele>
        <time>2026-03-15T11:24:40Z</time>
      </trkpt>
      <trkpt lat="45.69822" lon="6.27182">
        <ele>1832</ele>
        <time>2026-03-15T11:27:01Z</time>
      </trkpt>
      <trkpt lat="45.69821" lon="6.27183">
        <ele>1832</ele>
        <time>2026-03-15T11:28:00Z</time>
      </trkpt>
      <trkpt lat="45.69819" lon="6.27182">
        <ele>1833</ele>
        <time>2026-03-15T11:28:46Z</time>
      </trkpt>
      <trkpt lat="45.6982" lon="6.27179">
        <ele>1832</ele>
        <time>2026-03-15T11:29:51Z</time>
      </trkpt>
      <trkpt lat="45.6982" lon="6.27181">
        <ele>1831</ele>
        <time>2026-03-15T11:31:01Z</time>
      </trkpt>
      <trkpt lat="45.69819" lon="6.2718">
        <ele>1832</ele>
        <time>2026-03-15T11:41:55Z</time>
      </trkpt>
      <trkpt lat="45.6982" lon="6.27182">
        <ele>1832</ele>
        <time>2026-03-15T11:44:41Z</time>
      </trkpt>
      <trkpt lat="45.69821" lon="6.27183">
        <ele>1833</ele>
        <time>2026-03-15T11:45:33Z</time>
      </trkpt>
      <trkpt lat="45.69821" lon="6.27182">
        <ele>1833</ele>
        <time>2026-03-15T11:46:41Z</time>
      </trkpt>
      <trkpt lat="45.69822" lon="6.27183">
        <ele>1833</ele>
        <time>2026-03-15T11:46:59Z</time>
      </trkpt>
      <trkpt lat="45.69822" lon="6.27183">
        <ele>1833</ele>
        <time>2026-03-15T11:47:01Z</time>
      </trkpt>
      <trkpt lat="45.69821" lon="6.27183">
        <ele>1830</ele>
        <time>2026-03-15T11:47:06Z</time>
      </trkpt>
      <trkpt lat="45.69821" lon="6.27185">
        <ele>1833</ele>
        <time>2026-03-15T11:47:16Z</time>
      </trkpt>
      <trkpt lat="45.69819" lon="6.27184">
        <ele>1833</ele>
        <time>2026-03-15T11:47:34Z</time>
      </trkpt>
      <trkpt lat="45.69818" lon="6.27182">
        <ele>1833</ele>
        <time>2026-03-15T11:48:55Z</time>
      </trkpt>
      <trkpt lat="45.69816" lon="6.27182">
        <ele>1833</ele>
        <time>2026-03-15T11:54:20Z</time>
      </trkpt>
      <trkpt lat="45.69814" lon="6.27183">
        <ele>1832</ele>
        <time>2026-03-15T11:54:26Z</time>
      </trkpt>
      <trkpt lat="45.69814" lon="6.27179">
        <ele>1832</ele>
        <time>2026-03-15T11:54:44Z</time>
      </trkpt>
      <trkpt lat="45.69816" lon="6.27174">
        <ele>1832</ele>
        <time>2026-03-15T11:54:46Z</time>
      </trkpt>
      <trkpt lat="45.69818" lon="6.27172">
        <ele>1832</ele>
        <time>2026-03-15T11:54:48Z</time>
      </trkpt>
      <trkpt lat="45.69819" lon="6.2717">
        <ele>1832</ele>
        <time>2026-03-15T11:54:49Z</time>
      </trkpt>
      <trkpt lat="45.69821" lon="6.27167">
        <ele>1832</ele>
        <time>2026-03-15T11:54:50Z</time>
      </trkpt>
      <trkpt lat="45.69823" lon="6.27165">
        <ele>1832</ele>
        <time>2026-03-15T11:54:51Z</time>
      </trkpt>
      <trkpt lat="45.69825" lon="6.27163">
        <ele>1832</ele>
        <time>2026-03-15T11:54:52Z</time>
      </trkpt>
      <trkpt lat="45.69828" lon="6.27163">
        <ele>1832</ele>
        <time>2026-03-15T11:54:53Z</time>
      </trkpt>
      <trkpt lat="45.6983" lon="6.27164">
        <ele>1832</ele>
        <time>2026-03-15T11:54:54Z</time>
      </trkpt>
      <trkpt lat="45.69832" lon="6.27166">
        <ele>1831</ele>
        <time>2026-03-15T11:54:56Z</time>
      </trkpt>
      <trkpt lat="45.69832" lon="6.27165">
        <ele>1831</ele>
        <time>2026-03-15T11:55:01Z</time>
      </trkpt>
      <trkpt lat="45.69832" lon="6.27163">
        <ele>1828</ele>
        <time>2026-03-15T11:55:08Z</time>
      </trkpt>
      <trkpt lat="45.69834" lon="6.27159">
        <ele>1828</ele>
        <time>2026-03-15T11:55:10Z</time>
      </trkpt>
      <trkpt lat="45.69836" lon="6.27158">
        <ele>1828</ele>
        <time>2026-03-15T11:55:11Z</time>
      </trkpt>
      <trkpt lat="45.69838" lon="6.27158">
        <ele>1828</ele>
        <time>2026-03-15T11:55:12Z</time>
      </trkpt>
      <trkpt lat="45.6984" lon="6.27159">
        <ele>1828</ele>
        <time>2026-03-15T11:55:13Z</time>
      </trkpt>
      <trkpt lat="45.69842" lon="6.27158">
        <ele>1828</ele>
        <time>2026-03-15T11:55:14Z</time>
      </trkpt>
      <trkpt lat="45.69844" lon="6.27156">
        <ele>1828</ele>
        <time>2026-03-15T11:55:15Z</time>
      </trkpt>
      <trkpt lat="45.69847" lon="6.27157">
        <ele>1828</ele>
        <time>2026-03-15T11:55:16Z</time>
      </trkpt>
      <trkpt lat="45.69849" lon="6.27159">
        <ele>1828</ele>
        <time>2026-03-15T11:55:17Z</time>
      </trkpt>
      <trkpt lat="45.6985" lon="6.2716">
        <ele>1828</ele>
        <time>2026-03-15T11:55:18Z</time>
      </trkpt>
      <trkpt lat="45.69853" lon="6.27157">
        <ele>1828</ele>
        <time>2026-03-15T11:55:20Z</time>
      </trkpt>
      <trkpt lat="45.69856" lon="6.27156">
        <ele>1828</ele>
        <time>2026-03-15T11:55:21Z</time>
      </trkpt>
      <trkpt lat="45.69858" lon="6.27158">
        <ele>1828</ele>
        <time>2026-03-15T11:55:22Z</time>
      </trkpt>
      <trkpt lat="45.6986" lon="6.27161">
        <ele>1828</ele>
        <time>2026-03-15T11:55:23Z</time>
      </trkpt>
      <trkpt lat="45.69861" lon="6.27162">
        <ele>1828</ele>
        <time>2026-03-15T11:55:24Z</time>
      </trkpt>
      <trkpt lat="45.69863" lon="6.27163">
        <ele>1823</ele>
        <time>2026-03-15T11:55:25Z</time>
      </trkpt>
      <trkpt lat="45.69865" lon="6.27161">
        <ele>1823</ele>
        <time>2026-03-15T11:55:26Z</time>
      </trkpt>
      <trkpt lat="45.69867" lon="6.27159">
        <ele>1823</ele>
        <time>2026-03-15T11:55:27Z</time>
      </trkpt>
      <trkpt lat="45.69869" lon="6.2716">
        <ele>1823</ele>
        <time>2026-03-15T11:55:28Z</time>
      </trkpt>
      <trkpt lat="45.69871" lon="6.27163">
        <ele>1823</ele>
        <time>2026-03-15T11:55:29Z</time>
      </trkpt>
      <trkpt lat="45.69872" lon="6.27165">
        <ele>1823</ele>
        <time>2026-03-15T11:55:30Z</time>
      </trkpt>
      <trkpt lat="45.69873" lon="6.27168">
        <ele>1823</ele>
        <time>2026-03-15T11:55:31Z</time>
      </trkpt>
      <trkpt lat="45.69875" lon="6.27171">
        <ele>1823</ele>
        <time>2026-03-15T11:55:32Z</time>
      </trkpt>
      <trkpt lat="45.69876" lon="6.27172">
        <ele>1823</ele>
        <time>2026-03-15T11:55:33Z</time>
      </trkpt>
      <trkpt lat="45.69878" lon="6.27172">
        <ele>1823</ele>
        <time>2026-03-15T11:55:34Z</time>
      </trkpt>
      <trkpt lat="45.6988" lon="6.27169">
        <ele>1812</ele>
        <time>2026-03-15T11:55:35Z</time>
      </trkpt>
      <trkpt lat="45.69882" lon="6.27169">
        <ele>1812</ele>
        <time>2026-03-15T11:55:36Z</time>
      </trkpt>
      <trkpt lat="45.69884" lon="6.27171">
        <ele>1812</ele>
        <time>2026-03-15T11:55:37Z</time>
      </trkpt>
      <trkpt lat="45.69886" lon="6.27174">
        <ele>1812</ele>
        <time>2026-03-15T11:55:38Z</time>
      </trkpt>
      <trkpt lat="45.69887" lon="6.27175">
        <ele>1812</ele>
        <time>2026-03-15T11:55:39Z</time>
      </trkpt>
      <trkpt lat="45.69889" lon="6.27176">
        <ele>1812</ele>
        <time>2026-03-15T11:55:40Z</time>
      </trkpt>
      <trkpt lat="45.6989" lon="6.27173">
        <ele>1812</ele>
        <time>2026-03-15T11:55:42Z</time>
      </trkpt>
      <trkpt lat="45.6989" lon="6.27171">
        <ele>1812</ele>
        <time>2026-03-15T11:55:44Z</time>
      </trkpt>
      <trkpt lat="45.69889" lon="6.27169">
        <ele>1805</ele>
        <time>2026-03-15T11:55:46Z</time>
      </trkpt>
      <trkpt lat="45.6989" lon="6.27164">
        <ele>1805</ele>
        <time>2026-03-15T11:55:48Z</time>
      </trkpt>
      <trkpt lat="45.69891" lon="6.27161">
        <ele>1805</ele>
        <time>2026-03-15T11:55:50Z</time>
      </trkpt>
      <trkpt lat="45.69892" lon="6.27163">
        <ele>1804</ele>
        <time>2026-03-15T11:56:01Z</time>
      </trkpt>
      <trkpt lat="45.69894" lon="6.27168">
        <ele>1804</ele>
        <time>2026-03-15T11:56:03Z</time>
      </trkpt>
      <trkpt lat="45.69895" lon="6.27172">
        <ele>1804</ele>
        <time>2026-03-15T11:56:04Z</time>
      </trkpt>
      <trkpt lat="45.69896" lon="6.27175">
        <ele>1802</ele>
        <time>2026-03-15T11:56:05Z</time>
      </trkpt>
      <trkpt lat="45.69898" lon="6.27177">
        <ele>1802</ele>
        <time>2026-03-15T11:56:07Z</time>
      </trkpt>
      <trkpt lat="45.699" lon="6.27176">
        <ele>1802</ele>
        <time>2026-03-15T11:56:09Z</time>
      </trkpt>
      <trkpt lat="45.699" lon="6.27175">
        <ele>1800</ele>
        <time>2026-03-15T11:56:16Z</time>
      </trkpt>
      <trkpt lat="45.699" lon="6.27173">
        <ele>1800</ele>
        <time>2026-03-15T11:56:22Z</time>
      </trkpt>
      <trkpt lat="45.69901" lon="6.27169">
        <ele>1800</ele>
        <time>2026-03-15T11:56:24Z</time>
      </trkpt>
      <trkpt lat="45.69904" lon="6.27169">
        <ele>1799</ele>
        <time>2026-03-15T11:56:25Z</time>
      </trkpt>
      <trkpt lat="45.69907" lon="6.27172">
        <ele>1799</ele>
        <time>2026-03-15T11:56:26Z</time>
      </trkpt>
      <trkpt lat="45.69909" lon="6.27176">
        <ele>1799</ele>
        <time>2026-03-15T11:56:27Z</time>
      </trkpt>
      <trkpt lat="45.6991" lon="6.27179">
        <ele>1799</ele>
        <time>2026-03-15T11:56:28Z</time>
      </trkpt>
      <trkpt lat="45.69911" lon="6.27182">
        <ele>1799</ele>
        <time>2026-03-15T11:56:29Z</time>
      </trkpt>
      <trkpt lat="45.69912" lon="6.27184">
        <ele>1799</ele>
        <time>2026-03-15T11:56:30Z</time>
      </trkpt>
      <trkpt lat="45.69914" lon="6.27185">
        <ele>1799</ele>
        <time>2026-03-15T11:56:31Z</time>
      </trkpt>
      <trkpt lat="45.69916" lon="6.27183">
        <ele>1799</ele>
        <time>2026-03-15T11:56:32Z</time>
      </trkpt>
      <trkpt lat="45.69917" lon="6.2718">
        <ele>1799</ele>
        <time>2026-03-15T11:56:33Z</time>
      </trkpt>
      <trkpt lat="45.69918" lon="6.27177">
        <ele>1799</ele>
        <time>2026-03-15T11:56:34Z</time>
      </trkpt>
      <trkpt lat="45.6992" lon="6.27174">
        <ele>1794</ele>
        <time>2026-03-15T11:56:35Z</time>
      </trkpt>
      <trkpt lat="45.69923" lon="6.27172">
        <ele>1794</ele>
        <time>2026-03-15T11:56:36Z</time>
      </trkpt>
      <trkpt lat="45.69925" lon="6.27175">
        <ele>1794</ele>
        <time>2026-03-15T11:56:37Z</time>
      </trkpt>
      <trkpt lat="45.69927" lon="6.27179">
        <ele>1794</ele>
        <time>2026-03-15T11:56:38Z</time>
      </trkpt>
      <trkpt lat="45.69928" lon="6.27182">
        <ele>1794</ele>
        <time>2026-03-15T11:56:39Z</time>
      </trkpt>
      <trkpt lat="45.69929" lon="6.27185">
        <ele>1794</ele>
        <time>2026-03-15T11:56:40Z</time>
      </trkpt>
      <trkpt lat="45.69929" lon="6.27187">
        <ele>1794</ele>
        <time>2026-03-15T11:56:41Z</time>
      </trkpt>
      <trkpt lat="45.6993" lon="6.2719">
        <ele>1794</ele>
        <time>2026-03-15T11:56:42Z</time>
      </trkpt>
      <trkpt lat="45.69931" lon="6.27193">
        <ele>1794</ele>
        <time>2026-03-15T11:56:43Z</time>
      </trkpt>
      <trkpt lat="45.69932" lon="6.27196">
        <ele>1794</ele>
        <time>2026-03-15T11:56:44Z</time>
      </trkpt>
      <trkpt lat="45.69934" lon="6.27196">
        <ele>1785</ele>
        <time>2026-03-15T11:56:45Z</time>
      </trkpt>
      <trkpt lat="45.69936" lon="6.27193">
        <ele>1785</ele>
        <time>2026-03-15T11:56:46Z</time>
      </trkpt>
      <trkpt lat="45.69936" lon="6.27191">
        <ele>1785</ele>
        <time>2026-03-15T11:56:47Z</time>
      </trkpt>
      <trkpt lat="45.69938" lon="6.27188">
        <ele>1785</ele>
        <time>2026-03-15T11:56:48Z</time>
      </trkpt>
      <trkpt lat="45.6994" lon="6.27186">
        <ele>1785</ele>
        <time>2026-03-15T11:56:49Z</time>
      </trkpt>
      <trkpt lat="45.69942" lon="6.27188">
        <ele>1785</ele>
        <time>2026-03-15T11:56:50Z</time>
      </trkpt>
      <trkpt lat="45.69944" lon="6.27193">
        <ele>1785</ele>
        <time>2026-03-15T11:56:51Z</time>
      </trkpt>
      <trkpt lat="45.69944" lon="6.27198">
        <ele>1785</ele>
        <time>2026-03-15T11:56:52Z</time>
      </trkpt>
      <trkpt lat="45.69945" lon="6.27202">
        <ele>1785</ele>
        <time>2026-03-15T11:56:53Z</time>
      </trkpt>
      <trkpt lat="45.69945" lon="6.27205">
        <ele>1785</ele>
        <time>2026-03-15T11:56:54Z</time>
      </trkpt>
      <trkpt lat="45.69947" lon="6.27208">
        <ele>1781</ele>
        <time>2026-03-15T11:56:56Z</time>
      </trkpt>
      <trkpt lat="45.69948" lon="6.27205">
        <ele>1781</ele>
        <time>2026-03-15T11:56:57Z</time>
      </trkpt>
      <trkpt lat="45.69949" lon="6.27202">
        <ele>1781</ele>
        <time>2026-03-15T11:56:58Z</time>
      </trkpt>
      <trkpt lat="45.69949" lon="6.27199">
        <ele>1781</ele>
        <time>2026-03-15T11:56:59Z</time>
      </trkpt>
      <trkpt lat="45.69951" lon="6.27196">
        <ele>1781</ele>
        <time>2026-03-15T11:57:00Z</time>
      </trkpt>
      <trkpt lat="45.69953" lon="6.27194">
        <ele>1781</ele>
        <time>2026-03-15T11:57:01Z</time>
      </trkpt>
      <trkpt lat="45.69956" lon="6.27196">
        <ele>1781</ele>
        <time>2026-03-15T11:57:02Z</time>
      </trkpt>
      <trkpt lat="45.69958" lon="6.27201">
        <ele>1781</ele>
        <time>2026-03-15T11:57:03Z</time>
      </trkpt>
      <trkpt lat="45.6996" lon="6.27206">
        <ele>1781</ele>
        <time>2026-03-15T11:57:04Z</time>
      </trkpt>
      <trkpt lat="45.69962" lon="6.27211">
        <ele>1769</ele>
        <time>2026-03-15T11:57:05Z</time>
      </trkpt>
      <trkpt lat="45.69964" lon="6.27216">
        <ele>1769</ele>
        <time>2026-03-15T11:57:06Z</time>
      </trkpt>
      <trkpt lat="45.69967" lon="6.27219">
        <ele>1769</ele>
        <time>2026-03-15T11:57:07Z</time>
      </trkpt>
      <trkpt lat="45.69968" lon="6.27222">
        <ele>1769</ele>
        <time>2026-03-15T11:57:08Z</time>
      </trkpt>
      <trkpt lat="45.69969" lon="6.27224">
        <ele>1769</ele>
        <time>2026-03-15T11:57:09Z</time>
      </trkpt>
      <trkpt lat="45.6997" lon="6.27227">
        <ele>1769</ele>
        <time>2026-03-15T11:57:10Z</time>
      </trkpt>
      <trkpt lat="45.69972" lon="6.2723">
        <ele>1769</ele>
        <time>2026-03-15T11:57:11Z</time>
      </trkpt>
      <trkpt lat="45.69973" lon="6.27233">
        <ele>1769</ele>
        <time>2026-03-15T11:57:12Z</time>
      </trkpt>
      <trkpt lat="45.69975" lon="6.27237">
        <ele>1769</ele>
        <time>2026-03-15T11:57:13Z</time>
      </trkpt>
      <trkpt lat="45.69976" lon="6.2724">
        <ele>1769</ele>
        <time>2026-03-15T11:57:14Z</time>
      </trkpt>
      <trkpt lat="45.69976" lon="6.27239">
        <ele>1762</ele>
        <time>2026-03-15T11:57:20Z</time>
      </trkpt>
      <trkpt lat="45.69976" lon="6.27235">
        <ele>1761</ele>
        <time>2026-03-15T11:57:26Z</time>
      </trkpt>
      <trkpt lat="45.69977" lon="6.2723">
        <ele>1761</ele>
        <time>2026-03-15T11:57:27Z</time>
      </trkpt>
      <trkpt lat="45.69979" lon="6.27226">
        <ele>1761</ele>
        <time>2026-03-15T11:57:28Z</time>
      </trkpt>
      <trkpt lat="45.69981" lon="6.27224">
        <ele>1761</ele>
        <time>2026-03-15T11:57:29Z</time>
      </trkpt>
      <trkpt lat="45.6998" lon="6.27224">
        <ele>1759</ele>
        <time>2026-03-15T11:57:37Z</time>
      </trkpt>
      <trkpt lat="45.69981" lon="6.27223">
        <ele>1758</ele>
        <time>2026-03-15T11:58:01Z</time>
      </trkpt>
      <trkpt lat="45.69981" lon="6.27219">
        <ele>1758</ele>
        <time>2026-03-15T11:58:03Z</time>
      </trkpt>
      <trkpt lat="45.69982" lon="6.27214">
        <ele>1758</ele>
        <time>2026-03-15T11:58:05Z</time>
      </trkpt>
      <trkpt lat="45.69983" lon="6.27211">
        <ele>1758</ele>
        <time>2026-03-15T11:58:06Z</time>
      </trkpt>
      <trkpt lat="45.69984" lon="6.27206">
        <ele>1758</ele>
        <time>2026-03-15T11:58:07Z</time>
      </trkpt>
      <trkpt lat="45.69985" lon="6.27201">
        <ele>1758</ele>
        <time>2026-03-15T11:58:08Z</time>
      </trkpt>
      <trkpt lat="45.69986" lon="6.27196">
        <ele>1758</ele>
        <time>2026-03-15T11:58:09Z</time>
      </trkpt>
      <trkpt lat="45.69987" lon="6.27191">
        <ele>1758</ele>
        <time>2026-03-15T11:58:10Z</time>
      </trkpt>
      <trkpt lat="45.69988" lon="6.27186">
        <ele>1758</ele>
        <time>2026-03-15T11:58:11Z</time>
      </trkpt>
      <trkpt lat="45.69989" lon="6.27181">
        <ele>1758</ele>
        <time>2026-03-15T11:58:12Z</time>
      </trkpt>
      <trkpt lat="45.6999" lon="6.27175">
        <ele>1758</ele>
        <time>2026-03-15T11:58:13Z</time>
      </trkpt>
      <trkpt lat="45.69992" lon="6.27169">
        <ele>1758</ele>
        <time>2026-03-15T11:58:14Z</time>
      </trkpt>
      <trkpt lat="45.69994" lon="6.27165">
        <ele>1754</ele>
        <time>2026-03-15T11:58:15Z</time>
      </trkpt>
      <trkpt lat="45.69996" lon="6.27161">
        <ele>1754</ele>
        <time>2026-03-15T11:58:16Z</time>
      </trkpt>
      <trkpt lat="45.69998" lon="6.27156">
        <ele>1754</ele>
        <time>2026-03-15T11:58:17Z</time>
      </trkpt>
      <trkpt lat="45.70001" lon="6.27151">
        <ele>1754</ele>
        <time>2026-03-15T11:58:18Z</time>
      </trkpt>
      <trkpt lat="45.70004" lon="6.27146">
        <ele>1754</ele>
        <time>2026-03-15T11:58:19Z</time>
      </trkpt>
      <trkpt lat="45.70008" lon="6.27141">
        <ele>1754</ele>
        <time>2026-03-15T11:58:20Z</time>
      </trkpt>
      <trkpt lat="45.70011" lon="6.27136">
        <ele>1754</ele>
        <time>2026-03-15T11:58:21Z</time>
      </trkpt>
      <trkpt lat="45.70013" lon="6.27133">
        <ele>1754</ele>
        <time>2026-03-15T11:58:22Z</time>
      </trkpt>
      <trkpt lat="45.70014" lon="6.27135">
        <ele>1741</ele>
        <time>2026-03-15T11:58:36Z</time>
      </trkpt>
      <trkpt lat="45.70015" lon="6.27137">
        <ele>1741</ele>
        <time>2026-03-15T11:58:39Z</time>
      </trkpt>
      <trkpt lat="45.70016" lon="6.27141">
        <ele>1741</ele>
        <time>2026-03-15T11:58:41Z</time>
      </trkpt>
      <trkpt lat="45.70016" lon="6.27143">
        <ele>1741</ele>
        <time>2026-03-15T11:58:42Z</time>
      </trkpt>
      <trkpt lat="45.70016" lon="6.27146">
        <ele>1741</ele>
        <time>2026-03-15T11:58:43Z</time>
      </trkpt>
      <trkpt lat="45.70016" lon="6.2715">
        <ele>1741</ele>
        <time>2026-03-15T11:58:44Z</time>
      </trkpt>
      <trkpt lat="45.70017" lon="6.27154">
        <ele>1740</ele>
        <time>2026-03-15T11:58:45Z</time>
      </trkpt>
      <trkpt lat="45.70017" lon="6.27158">
        <ele>1740</ele>
        <time>2026-03-15T11:58:46Z</time>
      </trkpt>
      <trkpt lat="45.70018" lon="6.27162">
        <ele>1740</ele>
        <time>2026-03-15T11:58:47Z</time>
      </trkpt>
      <trkpt lat="45.70018" lon="6.27167">
        <ele>1740</ele>
        <time>2026-03-15T11:58:48Z</time>
      </trkpt>
      <trkpt lat="45.70019" lon="6.27172">
        <ele>1740</ele>
        <time>2026-03-15T11:58:49Z</time>
      </trkpt>
      <trkpt lat="45.7002" lon="6.27178">
        <ele>1740</ele>
        <time>2026-03-15T11:58:50Z</time>
      </trkpt>
      <trkpt lat="45.70021" lon="6.27184">
        <ele>1740</ele>
        <time>2026-03-15T11:58:51Z</time>
      </trkpt>
      <trkpt lat="45.70022" lon="6.27191">
        <ele>1740</ele>
        <time>2026-03-15T11:58:52Z</time>
      </trkpt>
      <trkpt lat="45.70023" lon="6.27197">
        <ele>1740</ele>
        <time>2026-03-15T11:58:53Z</time>
      </trkpt>
      <trkpt lat="45.70024" lon="6.27204">
        <ele>1740</ele>
        <time>2026-03-15T11:58:54Z</time>
      </trkpt>
      <trkpt lat="45.70025" lon="6.2721">
        <ele>1737</ele>
        <time>2026-03-15T11:58:55Z</time>
      </trkpt>
      <trkpt lat="45.70027" lon="6.27217">
        <ele>1737</ele>
        <time>2026-03-15T11:58:56Z</time>
      </trkpt>
      <trkpt lat="45.70029" lon="6.27224">
        <ele>1737</ele>
        <time>2026-03-15T11:58:57Z</time>
      </trkpt>
      <trkpt lat="45.7003" lon="6.27231">
        <ele>1737</ele>
        <time>2026-03-15T11:58:58Z</time>
      </trkpt>
      <trkpt lat="45.70031" lon="6.27237">
        <ele>1737</ele>
        <time>2026-03-15T11:58:59Z</time>
      </trkpt>
      <trkpt lat="45.70032" lon="6.27242">
        <ele>1737</ele>
        <time>2026-03-15T11:59:00Z</time>
      </trkpt>
      <trkpt lat="45.70033" lon="6.27246">
        <ele>1737</ele>
        <time>2026-03-15T11:59:01Z</time>
      </trkpt>
      <trkpt lat="45.70033" lon="6.27249">
        <ele>1737</ele>
        <time>2026-03-15T11:59:02Z</time>
      </trkpt>
      <trkpt lat="45.70034" lon="6.27253">
        <ele>1737</ele>
        <time>2026-03-15T11:59:04Z</time>
      </trkpt>
      <trkpt lat="45.70032" lon="6.27251">
        <ele>1729</ele>
        <time>2026-03-15T11:59:20Z</time>
      </trkpt>
      <trkpt lat="45.70031" lon="6.27248">
        <ele>1729</ele>
        <time>2026-03-15T11:59:23Z</time>
      </trkpt>
      <trkpt lat="45.7003" lon="6.27245">
        <ele>1729</ele>
        <time>2026-03-15T11:59:25Z</time>
      </trkpt>
      <trkpt lat="45.7003" lon="6.27242">
        <ele>1729</ele>
        <time>2026-03-15T11:59:27Z</time>
      </trkpt>
      <trkpt lat="45.70029" lon="6.27238">
        <ele>1729</ele>
        <time>2026-03-15T11:59:29Z</time>
      </trkpt>
      <trkpt lat="45.70028" lon="6.27236">
        <ele>1729</ele>
        <time>2026-03-15T11:59:32Z</time>
      </trkpt>
      <trkpt lat="45.70028" lon="6.27233">
        <ele>1729</ele>
        <time>2026-03-15T11:59:36Z</time>
      </trkpt>
      <trkpt lat="45.70027" lon="6.2723">
        <ele>1729</ele>
        <time>2026-03-15T11:59:42Z</time>
      </trkpt>
      <trkpt lat="45.70028" lon="6.27228">
        <ele>1729</ele>
        <time>2026-03-15T11:59:45Z</time>
      </trkpt>
      <trkpt lat="45.70027" lon="6.27225">
        <ele>1729</ele>
        <time>2026-03-15T11:59:46Z</time>
      </trkpt>
      <trkpt lat="45.70028" lon="6.27221">
        <ele>1729</ele>
        <time>2026-03-15T11:59:47Z</time>
      </trkpt>
      <trkpt lat="45.70028" lon="6.27217">
        <ele>1729</ele>
        <time>2026-03-15T11:59:48Z</time>
      </trkpt>
      <trkpt lat="45.70028" lon="6.27213">
        <ele>1729</ele>
        <time>2026-03-15T11:59:49Z</time>
      </trkpt>
      <trkpt lat="45.70029" lon="6.27209">
        <ele>1729</ele>
        <time>2026-03-15T11:59:50Z</time>
      </trkpt>
      <trkpt lat="45.7003" lon="6.27206">
        <ele>1729</ele>
        <time>2026-03-15T11:59:51Z</time>
      </trkpt>
      <trkpt lat="45.70031" lon="6.27203">
        <ele>1729</ele>
        <time>2026-03-15T11:59:52Z</time>
      </trkpt>
      <trkpt lat="45.70031" lon="6.272">
        <ele>1729</ele>
        <time>2026-03-15T11:59:53Z</time>
      </trkpt>
      <trkpt lat="45.70032" lon="6.27196">
        <ele>1729</ele>
        <time>2026-03-15T11:59:54Z</time>
      </trkpt>
      <trkpt lat="45.70032" lon="6.27194">
        <ele>1727</ele>
        <time>2026-03-15T11:59:55Z</time>
      </trkpt>
      <trkpt lat="45.70033" lon="6.27189">
        <ele>1727</ele>
        <time>2026-03-15T11:59:57Z</time>
      </trkpt>
      <trkpt lat="45.70034" lon="6.27186">
        <ele>1727</ele>
        <time>2026-03-15T11:59:58Z</time>
      </trkpt>
      <trkpt lat="45.70034" lon="6.27183">
        <ele>1727</ele>
        <time>2026-03-15T11:59:59Z</time>
      </trkpt>
      <trkpt lat="45.70037" lon="6.27183">
        <ele>1727</ele>
        <time>2026-03-15T12:00:01Z</time>
      </trkpt>
      <trkpt lat="45.7004" lon="6.27185">
        <ele>1727</ele>
        <time>2026-03-15T12:00:02Z</time>
      </trkpt>
      <trkpt lat="45.70041" lon="6.27186">
        <ele>1727</ele>
        <time>2026-03-15T12:00:03Z</time>
      </trkpt>
      <trkpt lat="45.70044" lon="6.27186">
        <ele>1722</ele>
        <time>2026-03-15T12:00:05Z</time>
      </trkpt>
      <trkpt lat="45.70046" lon="6.27185">
        <ele>1722</ele>
        <time>2026-03-15T12:00:06Z</time>
      </trkpt>
      <trkpt lat="45.70046" lon="6.27182">
        <ele>1722</ele>
        <time>2026-03-15T12:00:07Z</time>
      </trkpt>
      <trkpt lat="45.70045" lon="6.27179">
        <ele>1722</ele>
        <time>2026-03-15T12:00:08Z</time>
      </trkpt>
      <trkpt lat="45.70043" lon="6.27175">
        <ele>1722</ele>
        <time>2026-03-15T12:00:09Z</time>
      </trkpt>
      <trkpt lat="45.70043" lon="6.27171">
        <ele>1722</ele>
        <time>2026-03-15T12:00:10Z</time>
      </trkpt>
      <trkpt lat="45.70043" lon="6.27166">
        <ele>1722</ele>
        <time>2026-03-15T12:00:11Z</time>
      </trkpt>
      <trkpt lat="45.70044" lon="6.27162">
        <ele>1722</ele>
        <time>2026-03-15T12:00:12Z</time>
      </trkpt>
      <trkpt lat="45.70045" lon="6.27158">
        <ele>1722</ele>
        <time>2026-03-15T12:00:13Z</time>
      </trkpt>
      <trkpt lat="45.70047" lon="6.27155">
        <ele>1722</ele>
        <time>2026-03-15T12:00:14Z</time>
      </trkpt>
      <trkpt lat="45.70048" lon="6.27153">
        <ele>1717</ele>
        <time>2026-03-15T12:00:15Z</time>
      </trkpt>
      <trkpt lat="45.70049" lon="6.2715">
        <ele>1717</ele>
        <time>2026-03-15T12:00:16Z</time>
      </trkpt>
      <trkpt lat="45.70052" lon="6.27149">
        <ele>1717</ele>
        <time>2026-03-15T12:00:17Z</time>
      </trkpt>
      <trkpt lat="45.70055" lon="6.27151">
        <ele>1717</ele>
        <time>2026-03-15T12:00:18Z</time>
      </trkpt>
      <trkpt lat="45.70058" lon="6.27155">
        <ele>1717</ele>
        <time>2026-03-15T12:00:19Z</time>
      </trkpt>
      <trkpt lat="45.7006" lon="6.27159">
        <ele>1717</ele>
        <time>2026-03-15T12:00:20Z</time>
      </trkpt>
      <trkpt lat="45.70063" lon="6.2716">
        <ele>1717</ele>
        <time>2026-03-15T12:00:21Z</time>
      </trkpt>
      <trkpt lat="45.70064" lon="6.27161">
        <ele>1717</ele>
        <time>2026-03-15T12:00:23Z</time>
      </trkpt>
      <trkpt lat="45.70067" lon="6.2716">
        <ele>1708</ele>
        <time>2026-03-15T12:00:26Z</time>
      </trkpt>
      <trkpt lat="45.70067" lon="6.27155">
        <ele>1708</ele>
        <time>2026-03-15T12:00:28Z</time>
      </trkpt>
      <trkpt lat="45.70067" lon="6.2715">
        <ele>1708</ele>
        <time>2026-03-15T12:00:30Z</time>
      </trkpt>
      <trkpt lat="45.70068" lon="6.27146">
        <ele>1708</ele>
        <time>2026-03-15T12:00:31Z</time>
      </trkpt>
      <trkpt lat="45.7007" lon="6.27145">
        <ele>1708</ele>
        <time>2026-03-15T12:00:32Z</time>
      </trkpt>
      <trkpt lat="45.70073" lon="6.27146">
        <ele>1708</ele>
        <time>2026-03-15T12:00:33Z</time>
      </trkpt>
      <trkpt lat="45.70075" lon="6.27148">
        <ele>1708</ele>
        <time>2026-03-15T12:00:34Z</time>
      </trkpt>
      <trkpt lat="45.70077" lon="6.27151">
        <ele>1706</ele>
        <time>2026-03-15T12:00:35Z</time>
      </trkpt>
      <trkpt lat="45.70079" lon="6.27153">
        <ele>1706</ele>
        <time>2026-03-15T12:00:36Z</time>
      </trkpt>
      <trkpt lat="45.70081" lon="6.27154">
        <ele>1706</ele>
        <time>2026-03-15T12:00:37Z</time>
      </trkpt>
      <trkpt lat="45.70082" lon="6.27152">
        <ele>1706</ele>
        <time>2026-03-15T12:00:38Z</time>
      </trkpt>
      <trkpt lat="45.70083" lon="6.27149">
        <ele>1706</ele>
        <time>2026-03-15T12:00:39Z</time>
      </trkpt>
      <trkpt lat="45.70083" lon="6.27146">
        <ele>1706</ele>
        <time>2026-03-15T12:00:40Z</time>
      </trkpt>
      <trkpt lat="45.70084" lon="6.27142">
        <ele>1706</ele>
        <time>2026-03-15T12:00:41Z</time>
      </trkpt>
      <trkpt lat="45.70086" lon="6.27139">
        <ele>1706</ele>
        <time>2026-03-15T12:00:42Z</time>
      </trkpt>
      <trkpt lat="45.7009" lon="6.27139">
        <ele>1706</ele>
        <time>2026-03-15T12:00:43Z</time>
      </trkpt>
      <trkpt lat="45.70094" lon="6.27142">
        <ele>1706</ele>
        <time>2026-03-15T12:00:44Z</time>
      </trkpt>
      <trkpt lat="45.70095" lon="6.27146">
        <ele>1698</ele>
        <time>2026-03-15T12:00:45Z</time>
      </trkpt>
      <trkpt lat="45.70096" lon="6.27148">
        <ele>1698</ele>
        <time>2026-03-15T12:00:46Z</time>
      </trkpt>
      <trkpt lat="45.70098" lon="6.27151">
        <ele>1698</ele>
        <time>2026-03-15T12:00:48Z</time>
      </trkpt>
      <trkpt lat="45.70099" lon="6.27151">
        <ele>1698</ele>
        <time>2026-03-15T12:00:54Z</time>
      </trkpt>
      <trkpt lat="45.70101" lon="6.27149">
        <ele>1693</ele>
        <time>2026-03-15T12:00:56Z</time>
      </trkpt>
      <trkpt lat="45.70102" lon="6.27147">
        <ele>1693</ele>
        <time>2026-03-15T12:00:57Z</time>
      </trkpt>
      <trkpt lat="45.70104" lon="6.27145">
        <ele>1693</ele>
        <time>2026-03-15T12:00:58Z</time>
      </trkpt>
      <trkpt lat="45.70106" lon="6.27143">
        <ele>1693</ele>
        <time>2026-03-15T12:00:59Z</time>
      </trkpt>
      <trkpt lat="45.70109" lon="6.27145">
        <ele>1693</ele>
        <time>2026-03-15T12:01:00Z</time>
      </trkpt>
      <trkpt lat="45.70111" lon="6.2715">
        <ele>1693</ele>
        <time>2026-03-15T12:01:01Z</time>
      </trkpt>
      <trkpt lat="45.70113" lon="6.27155">
        <ele>1693</ele>
        <time>2026-03-15T12:01:02Z</time>
      </trkpt>
      <trkpt lat="45.70115" lon="6.27158">
        <ele>1693</ele>
        <time>2026-03-15T12:01:03Z</time>
      </trkpt>
      <trkpt lat="45.70117" lon="6.2716">
        <ele>1693</ele>
        <time>2026-03-15T12:01:04Z</time>
      </trkpt>
      <trkpt lat="45.70119" lon="6.27157">
        <ele>1692</ele>
        <time>2026-03-15T12:01:06Z</time>
      </trkpt>
      <trkpt lat="45.7012" lon="6.27154">
        <ele>1692</ele>
        <time>2026-03-15T12:01:07Z</time>
      </trkpt>
      <trkpt lat="45.70119" lon="6.27151">
        <ele>1692</ele>
        <time>2026-03-15T12:01:08Z</time>
      </trkpt>
      <trkpt lat="45.70122" lon="6.27151">
        <ele>1692</ele>
        <time>2026-03-15T12:01:10Z</time>
      </trkpt>
      <trkpt lat="45.70124" lon="6.27155">
        <ele>1692</ele>
        <time>2026-03-15T12:01:11Z</time>
      </trkpt>
      <trkpt lat="45.70125" lon="6.27161">
        <ele>1692</ele>
        <time>2026-03-15T12:01:12Z</time>
      </trkpt>
      <trkpt lat="45.70126" lon="6.27165">
        <ele>1692</ele>
        <time>2026-03-15T12:01:13Z</time>
      </trkpt>
      <trkpt lat="45.70128" lon="6.27169">
        <ele>1692</ele>
        <time>2026-03-15T12:01:14Z</time>
      </trkpt>
      <trkpt lat="45.7013" lon="6.27175">
        <ele>1680</ele>
        <time>2026-03-15T12:01:15Z</time>
      </trkpt>
      <trkpt lat="45.70132" lon="6.27181">
        <ele>1680</ele>
        <time>2026-03-15T12:01:16Z</time>
      </trkpt>
      <trkpt lat="45.70133" lon="6.27184">
        <ele>1680</ele>
        <time>2026-03-15T12:01:17Z</time>
      </trkpt>
      <trkpt lat="45.70134" lon="6.27187">
        <ele>1680</ele>
        <time>2026-03-15T12:01:19Z</time>
      </trkpt>
      <trkpt lat="45.70132" lon="6.27185">
        <ele>1677</ele>
        <time>2026-03-15T12:01:26Z</time>
      </trkpt>
      <trkpt lat="45.70131" lon="6.27182">
        <ele>1677</ele>
        <time>2026-03-15T12:01:30Z</time>
      </trkpt>
      <trkpt lat="45.7013" lon="6.2718">
        <ele>1676</ele>
        <time>2026-03-15T12:01:37Z</time>
      </trkpt>
      <trkpt lat="45.7013" lon="6.27177">
        <ele>1676</ele>
        <time>2026-03-15T12:01:43Z</time>
      </trkpt>
      <trkpt lat="45.7013" lon="6.27175">
        <ele>1677</ele>
        <time>2026-03-15T12:01:46Z</time>
      </trkpt>
      <trkpt lat="45.70131" lon="6.2717">
        <ele>1677</ele>
        <time>2026-03-15T12:01:48Z</time>
      </trkpt>
      <trkpt lat="45.70131" lon="6.27167">
        <ele>1677</ele>
        <time>2026-03-15T12:01:49Z</time>
      </trkpt>
      <trkpt lat="45.70132" lon="6.27164">
        <ele>1677</ele>
        <time>2026-03-15T12:01:50Z</time>
      </trkpt>
      <trkpt lat="45.70132" lon="6.27161">
        <ele>1677</ele>
        <time>2026-03-15T12:01:51Z</time>
      </trkpt>
      <trkpt lat="45.70132" lon="6.27158">
        <ele>1677</ele>
        <time>2026-03-15T12:01:52Z</time>
      </trkpt>
      <trkpt lat="45.70132" lon="6.27155">
        <ele>1677</ele>
        <time>2026-03-15T12:01:53Z</time>
      </trkpt>
      <trkpt lat="45.70132" lon="6.27152">
        <ele>1677</ele>
        <time>2026-03-15T12:01:54Z</time>
      </trkpt>
      <trkpt lat="45.70133" lon="6.27148">
        <ele>1676</ele>
        <time>2026-03-15T12:01:55Z</time>
      </trkpt>
      <trkpt lat="45.70133" lon="6.27146">
        <ele>1676</ele>
        <time>2026-03-15T12:01:56Z</time>
      </trkpt>
      <trkpt lat="45.70134" lon="6.27143">
        <ele>1676</ele>
        <time>2026-03-15T12:01:57Z</time>
      </trkpt>
      <trkpt lat="45.70135" lon="6.27139">
        <ele>1676</ele>
        <time>2026-03-15T12:01:58Z</time>
      </trkpt>
      <trkpt lat="45.70136" lon="6.27135">
        <ele>1676</ele>
        <time>2026-03-15T12:01:59Z</time>
      </trkpt>
      <trkpt lat="45.70137" lon="6.27131">
        <ele>1676</ele>
        <time>2026-03-15T12:02:00Z</time>
      </trkpt>
      <trkpt lat="45.70138" lon="6.27128">
        <ele>1676</ele>
        <time>2026-03-15T12:02:01Z</time>
      </trkpt>
      <trkpt lat="45.7014" lon="6.27126">
        <ele>1676</ele>
        <time>2026-03-15T12:02:02Z</time>
      </trkpt>
      <trkpt lat="45.70142" lon="6.27128">
        <ele>1676</ele>
        <time>2026-03-15T12:02:03Z</time>
      </trkpt>
      <trkpt lat="45.70144" lon="6.27132">
        <ele>1676</ele>
        <time>2026-03-15T12:02:04Z</time>
      </trkpt>
      <trkpt lat="45.70145" lon="6.27136">
        <ele>1669</ele>
        <time>2026-03-15T12:02:05Z</time>
      </trkpt>
      <trkpt lat="45.70146" lon="6.27139">
        <ele>1669</ele>
        <time>2026-03-15T12:02:06Z</time>
      </trkpt>
      <trkpt lat="45.70147" lon="6.27142">
        <ele>1669</ele>
        <time>2026-03-15T12:02:08Z</time>
      </trkpt>
      <trkpt lat="45.70148" lon="6.27143">
        <ele>1669</ele>
        <time>2026-03-15T12:02:10Z</time>
      </trkpt>
      <trkpt lat="45.70149" lon="6.27144">
        <ele>1664</ele>
        <time>2026-03-15T12:02:30Z</time>
      </trkpt>
      <trkpt lat="45.7015" lon="6.27146">
        <ele>1664</ele>
        <time>2026-03-15T12:02:35Z</time>
      </trkpt>
      <trkpt lat="45.70152" lon="6.27146">
        <ele>1663</ele>
        <time>2026-03-15T12:02:58Z</time>
      </trkpt>
      <trkpt lat="45.70154" lon="6.27149">
        <ele>1663</ele>
        <time>2026-03-15T12:03:04Z</time>
      </trkpt>
      <trkpt lat="45.70155" lon="6.27153">
        <ele>1662</ele>
        <time>2026-03-15T12:03:05Z</time>
      </trkpt>
      <trkpt lat="45.70157" lon="6.27158">
        <ele>1662</ele>
        <time>2026-03-15T12:03:06Z</time>
      </trkpt>
      <trkpt lat="45.70158" lon="6.27162">
        <ele>1662</ele>
        <time>2026-03-15T12:03:07Z</time>
      </trkpt>
      <trkpt lat="45.70159" lon="6.27166">
        <ele>1662</ele>
        <time>2026-03-15T12:03:08Z</time>
      </trkpt>
      <trkpt lat="45.70159" lon="6.2717">
        <ele>1662</ele>
        <time>2026-03-15T12:03:09Z</time>
      </trkpt>
      <trkpt lat="45.7016" lon="6.27174">
        <ele>1662</ele>
        <time>2026-03-15T12:03:10Z</time>
      </trkpt>
      <trkpt lat="45.70161" lon="6.27175">
        <ele>1662</ele>
        <time>2026-03-15T12:03:11Z</time>
      </trkpt>
      <trkpt lat="45.7016" lon="6.27172">
        <ele>1662</ele>
        <time>2026-03-15T12:03:14Z</time>
      </trkpt>
      <trkpt lat="45.7016" lon="6.27168">
        <ele>1660</ele>
        <time>2026-03-15T12:03:15Z</time>
      </trkpt>
      <trkpt lat="45.70161" lon="6.27164">
        <ele>1660</ele>
        <time>2026-03-15T12:03:16Z</time>
      </trkpt>
      <trkpt lat="45.70162" lon="6.2716">
        <ele>1660</ele>
        <time>2026-03-15T12:03:17Z</time>
      </trkpt>
      <trkpt lat="45.70163" lon="6.27157">
        <ele>1660</ele>
        <time>2026-03-15T12:03:18Z</time>
      </trkpt>
      <trkpt lat="45.70163" lon="6.27152">
        <ele>1660</ele>
        <time>2026-03-15T12:03:20Z</time>
      </trkpt>
      <trkpt lat="45.70164" lon="6.27149">
        <ele>1660</ele>
        <time>2026-03-15T12:03:21Z</time>
      </trkpt>
      <trkpt lat="45.70164" lon="6.27146">
        <ele>1660</ele>
        <time>2026-03-15T12:03:22Z</time>
      </trkpt>
      <trkpt lat="45.70165" lon="6.27142">
        <ele>1660</ele>
        <time>2026-03-15T12:03:23Z</time>
      </trkpt>
      <trkpt lat="45.70167" lon="6.27138">
        <ele>1660</ele>
        <time>2026-03-15T12:03:24Z</time>
      </trkpt>
      <trkpt lat="45.70169" lon="6.27134">
        <ele>1656</ele>
        <time>2026-03-15T12:03:25Z</time>
      </trkpt>
      <trkpt lat="45.7017" lon="6.27133">
        <ele>1656</ele>
        <time>2026-03-15T12:03:26Z</time>
      </trkpt>
      <trkpt lat="45.70171" lon="6.27138">
        <ele>1656</ele>
        <time>2026-03-15T12:03:34Z</time>
      </trkpt>
      <trkpt lat="45.70172" lon="6.27141">
        <ele>1653</ele>
        <time>2026-03-15T12:03:35Z</time>
      </trkpt>
      <trkpt lat="45.70174" lon="6.27143">
        <ele>1653</ele>
        <time>2026-03-15T12:03:37Z</time>
      </trkpt>
      <trkpt lat="45.70174" lon="6.27147">
        <ele>1653</ele>
        <time>2026-03-15T12:03:42Z</time>
      </trkpt>
      <trkpt lat="45.70175" lon="6.27151">
        <ele>1653</ele>
        <time>2026-03-15T12:03:43Z</time>
      </trkpt>
      <trkpt lat="45.70175" lon="6.27156">
        <ele>1653</ele>
        <time>2026-03-15T12:03:44Z</time>
      </trkpt>
      <trkpt lat="45.70175" lon="6.2716">
        <ele>1652</ele>
        <time>2026-03-15T12:03:45Z</time>
      </trkpt>
      <trkpt lat="45.70176" lon="6.27164">
        <ele>1652</ele>
        <time>2026-03-15T12:03:46Z</time>
      </trkpt>
      <trkpt lat="45.70178" lon="6.27168">
        <ele>1652</ele>
        <time>2026-03-15T12:03:47Z</time>
      </trkpt>
      <trkpt lat="45.7018" lon="6.27174">
        <ele>1652</ele>
        <time>2026-03-15T12:03:48Z</time>
      </trkpt>
      <trkpt lat="45.70181" lon="6.27181">
        <ele>1652</ele>
        <time>2026-03-15T12:03:49Z</time>
      </trkpt>
      <trkpt lat="45.70182" lon="6.27186">
        <ele>1652</ele>
        <time>2026-03-15T12:03:50Z</time>
      </trkpt>
      <trkpt lat="45.70184" lon="6.27192">
        <ele>1652</ele>
        <time>2026-03-15T12:03:51Z</time>
      </trkpt>
      <trkpt lat="45.70186" lon="6.27198">
        <ele>1652</ele>
        <time>2026-03-15T12:03:52Z</time>
      </trkpt>
      <trkpt lat="45.70188" lon="6.27205">
        <ele>1652</ele>
        <time>2026-03-15T12:03:53Z</time>
      </trkpt>
      <trkpt lat="45.70191" lon="6.27211">
        <ele>1652</ele>
        <time>2026-03-15T12:03:54Z</time>
      </trkpt>
      <trkpt lat="45.70193" lon="6.2722">
        <ele>1647</ele>
        <time>2026-03-15T12:03:55Z</time>
      </trkpt>
      <trkpt lat="45.70196" lon="6.27228">
        <ele>1647</ele>
        <time>2026-03-15T12:03:56Z</time>
      </trkpt>
      <trkpt lat="45.70199" lon="6.27236">
        <ele>1647</ele>
        <time>2026-03-15T12:03:57Z</time>
      </trkpt>
      <trkpt lat="45.70203" lon="6.27241">
        <ele>1647</ele>
        <time>2026-03-15T12:03:58Z</time>
      </trkpt>
      <trkpt lat="45.70212" lon="6.27231">
        <ele>1647</ele>
        <time>2026-03-15T12:04:01Z</time>
      </trkpt>
      <trkpt lat="45.7021" lon="6.27227">
        <ele>1647</ele>
        <time>2026-03-15T12:04:03Z</time>
      </trkpt>
      <trkpt lat="45.70209" lon="6.27225">
        <ele>1630</ele>
        <time>2026-03-15T12:04:19Z</time>
      </trkpt>
      <trkpt lat="45.70208" lon="6.2722">
        <ele>1630</ele>
        <time>2026-03-15T12:04:21Z</time>
      </trkpt>
      <trkpt lat="45.7021" lon="6.27218">
        <ele>1630</ele>
        <time>2026-03-15T12:04:22Z</time>
      </trkpt>
      <trkpt lat="45.70211" lon="6.27216">
        <ele>1630</ele>
        <time>2026-03-15T12:04:23Z</time>
      </trkpt>
      <trkpt lat="45.70212" lon="6.27213">
        <ele>1630</ele>
        <time>2026-03-15T12:04:24Z</time>
      </trkpt>
      <trkpt lat="45.70212" lon="6.2721">
        <ele>1629</ele>
        <time>2026-03-15T12:04:25Z</time>
      </trkpt>
      <trkpt lat="45.70213" lon="6.27206">
        <ele>1629</ele>
        <time>2026-03-15T12:04:26Z</time>
      </trkpt>
      <trkpt lat="45.70213" lon="6.27201">
        <ele>1629</ele>
        <time>2026-03-15T12:04:27Z</time>
      </trkpt>
      <trkpt lat="45.70213" lon="6.27197">
        <ele>1629</ele>
        <time>2026-03-15T12:04:28Z</time>
      </trkpt>
      <trkpt lat="45.70214" lon="6.27193">
        <ele>1629</ele>
        <time>2026-03-15T12:04:29Z</time>
      </trkpt>
      <trkpt lat="45.70215" lon="6.27188">
        <ele>1629</ele>
        <time>2026-03-15T12:04:30Z</time>
      </trkpt>
      <trkpt lat="45.70216" lon="6.27184">
        <ele>1629</ele>
        <time>2026-03-15T12:04:31Z</time>
      </trkpt>
      <trkpt lat="45.70217" lon="6.27179">
        <ele>1629</ele>
        <time>2026-03-15T12:04:32Z</time>
      </trkpt>
      <trkpt lat="45.70217" lon="6.27174">
        <ele>1629</ele>
        <time>2026-03-15T12:04:33Z</time>
      </trkpt>
      <trkpt lat="45.70218" lon="6.27169">
        <ele>1629</ele>
        <time>2026-03-15T12:04:34Z</time>
      </trkpt>
      <trkpt lat="45.70218" lon="6.27163">
        <ele>1625</ele>
        <time>2026-03-15T12:04:35Z</time>
      </trkpt>
      <trkpt lat="45.70219" lon="6.27157">
        <ele>1625</ele>
        <time>2026-03-15T12:04:36Z</time>
      </trkpt>
      <trkpt lat="45.7022" lon="6.27152">
        <ele>1625</ele>
        <time>2026-03-15T12:04:37Z</time>
      </trkpt>
      <trkpt lat="45.70221" lon="6.27146">
        <ele>1625</ele>
        <time>2026-03-15T12:04:38Z</time>
      </trkpt>
      <trkpt lat="45.70223" lon="6.2714">
        <ele>1625</ele>
        <time>2026-03-15T12:04:39Z</time>
      </trkpt>
      <trkpt lat="45.70225" lon="6.27133">
        <ele>1625</ele>
        <time>2026-03-15T12:04:40Z</time>
      </trkpt>
      <trkpt lat="45.7023" lon="6.27129">
        <ele>1625</ele>
        <time>2026-03-15T12:04:41Z</time>
      </trkpt>
      <trkpt lat="45.70235" lon="6.27129">
        <ele>1625</ele>
        <time>2026-03-15T12:04:42Z</time>
      </trkpt>
      <trkpt lat="45.70243" lon="6.27145">
        <ele>1625</ele>
        <time>2026-03-15T12:04:44Z</time>
      </trkpt>
      <trkpt lat="45.70244" lon="6.27151">
        <ele>1614</ele>
        <time>2026-03-15T12:04:45Z</time>
      </trkpt>
      <trkpt lat="45.70244" lon="6.27154">
        <ele>1614</ele>
        <time>2026-03-15T12:04:46Z</time>
      </trkpt>
      <trkpt lat="45.70243" lon="6.27155">
        <ele>1614</ele>
        <time>2026-03-15T12:04:48Z</time>
      </trkpt>
      <trkpt lat="45.70247" lon="6.27159">
        <ele>1611</ele>
        <time>2026-03-15T12:05:10Z</time>
      </trkpt>
      <trkpt lat="45.70248" lon="6.27163">
        <ele>1611</ele>
        <time>2026-03-15T12:05:11Z</time>
      </trkpt>
      <trkpt lat="45.70248" lon="6.27166">
        <ele>1611</ele>
        <time>2026-03-15T12:05:12Z</time>
      </trkpt>
      <trkpt lat="45.70249" lon="6.27169">
        <ele>1611</ele>
        <time>2026-03-15T12:05:13Z</time>
      </trkpt>
      <trkpt lat="45.70251" lon="6.27171">
        <ele>1611</ele>
        <time>2026-03-15T12:05:15Z</time>
      </trkpt>
      <trkpt lat="45.70253" lon="6.27175">
        <ele>1611</ele>
        <time>2026-03-15T12:05:21Z</time>
      </trkpt>
      <trkpt lat="45.70254" lon="6.2718">
        <ele>1611</ele>
        <time>2026-03-15T12:05:22Z</time>
      </trkpt>
      <trkpt lat="45.70253" lon="6.27185">
        <ele>1611</ele>
        <time>2026-03-15T12:05:23Z</time>
      </trkpt>
      <trkpt lat="45.70254" lon="6.27189">
        <ele>1611</ele>
        <time>2026-03-15T12:05:24Z</time>
      </trkpt>
      <trkpt lat="45.70255" lon="6.27193">
        <ele>1608</ele>
        <time>2026-03-15T12:05:25Z</time>
      </trkpt>
      <trkpt lat="45.70257" lon="6.27198">
        <ele>1608</ele>
        <time>2026-03-15T12:05:26Z</time>
      </trkpt>
      <trkpt lat="45.70258" lon="6.27203">
        <ele>1608</ele>
        <time>2026-03-15T12:05:27Z</time>
      </trkpt>
      <trkpt lat="45.70259" lon="6.27207">
        <ele>1608</ele>
        <time>2026-03-15T12:05:28Z</time>
      </trkpt>
      <trkpt lat="45.7026" lon="6.27211">
        <ele>1608</ele>
        <time>2026-03-15T12:05:29Z</time>
      </trkpt>
      <trkpt lat="45.70261" lon="6.27215">
        <ele>1608</ele>
        <time>2026-03-15T12:05:30Z</time>
      </trkpt>
      <trkpt lat="45.70262" lon="6.27219">
        <ele>1608</ele>
        <time>2026-03-15T12:05:31Z</time>
      </trkpt>
      <trkpt lat="45.70262" lon="6.27222">
        <ele>1608</ele>
        <time>2026-03-15T12:05:32Z</time>
      </trkpt>
      <trkpt lat="45.70262" lon="6.27221">
        <ele>1598</ele>
        <time>2026-03-15T12:05:39Z</time>
      </trkpt>
      <trkpt lat="45.70264" lon="6.27223">
        <ele>1598</ele>
        <time>2026-03-15T12:05:44Z</time>
      </trkpt>
      <trkpt lat="45.70266" lon="6.27227">
        <ele>1597</ele>
        <time>2026-03-15T12:05:45Z</time>
      </trkpt>
      <trkpt lat="45.70268" lon="6.2723">
        <ele>1597</ele>
        <time>2026-03-15T12:05:46Z</time>
      </trkpt>
      <trkpt lat="45.7027" lon="6.27232">
        <ele>1597</ele>
        <time>2026-03-15T12:05:47Z</time>
      </trkpt>
      <trkpt lat="45.70276" lon="6.27246">
        <ele>1597</ele>
        <time>2026-03-15T12:05:50Z</time>
      </trkpt>
      <trkpt lat="45.70281" lon="6.27257">
        <ele>1597</ele>
        <time>2026-03-15T12:05:53Z</time>
      </trkpt>
      <trkpt lat="45.70288" lon="6.2727">
        <ele>1593</ele>
        <time>2026-03-15T12:05:56Z</time>
      </trkpt>
      <trkpt lat="45.70293" lon="6.27282">
        <ele>1593</ele>
        <time>2026-03-15T12:05:58Z</time>
      </trkpt>
      <trkpt lat="45.70299" lon="6.27295">
        <ele>1593</ele>
        <time>2026-03-15T12:06:01Z</time>
      </trkpt>
      <trkpt lat="45.70306" lon="6.27309">
        <ele>1582</ele>
        <time>2026-03-15T12:06:05Z</time>
      </trkpt>
      <trkpt lat="45.70311" lon="6.27325">
        <ele>1582</ele>
        <time>2026-03-15T12:06:08Z</time>
      </trkpt>
      <trkpt lat="45.70314" lon="6.27338">
        <ele>1582</ele>
        <time>2026-03-15T12:06:10Z</time>
      </trkpt>
      <trkpt lat="45.70321" lon="6.27351">
        <ele>1582</ele>
        <time>2026-03-15T12:06:12Z</time>
      </trkpt>
      <trkpt lat="45.7032" lon="6.27342">
        <ele>1572</ele>
        <time>2026-03-15T12:06:33Z</time>
      </trkpt>
      <trkpt lat="45.7032" lon="6.27339">
        <ele>1572</ele>
        <time>2026-03-15T12:06:41Z</time>
      </trkpt>
      <trkpt lat="45.7032" lon="6.27336">
        <ele>1572</ele>
        <time>2026-03-15T12:06:42Z</time>
      </trkpt>
      <trkpt lat="45.7032" lon="6.27333">
        <ele>1572</ele>
        <time>2026-03-15T12:06:43Z</time>
      </trkpt>
      <trkpt lat="45.70319" lon="6.27329">
        <ele>1572</ele>
        <time>2026-03-15T12:06:44Z</time>
      </trkpt>
      <trkpt lat="45.70315" lon="6.27317">
        <ele>1572</ele>
        <time>2026-03-15T12:06:47Z</time>
      </trkpt>
      <trkpt lat="45.70312" lon="6.27299">
        <ele>1572</ele>
        <time>2026-03-15T12:06:50Z</time>
      </trkpt>
      <trkpt lat="45.70312" lon="6.27282">
        <ele>1572</ele>
        <time>2026-03-15T12:06:52Z</time>
      </trkpt>
      <trkpt lat="45.70313" lon="6.27273">
        <ele>1572</ele>
        <time>2026-03-15T12:06:53Z</time>
      </trkpt>
      <trkpt lat="45.70314" lon="6.27264">
        <ele>1572</ele>
        <time>2026-03-15T12:06:54Z</time>
      </trkpt>
      <trkpt lat="45.70316" lon="6.27255">
        <ele>1569</ele>
        <time>2026-03-15T12:06:55Z</time>
      </trkpt>
      <trkpt lat="45.70317" lon="6.27248">
        <ele>1569</ele>
        <time>2026-03-15T12:06:56Z</time>
      </trkpt>
      <trkpt lat="45.7032" lon="6.27234">
        <ele>1569</ele>
        <time>2026-03-15T12:06:58Z</time>
      </trkpt>
      <trkpt lat="45.70322" lon="6.27216">
        <ele>1569</ele>
        <time>2026-03-15T12:07:01Z</time>
      </trkpt>
      <trkpt lat="45.70332" lon="6.2721">
        <ele>1569</ele>
        <time>2026-03-15T12:07:03Z</time>
      </trkpt>
      <trkpt lat="45.70342" lon="6.27218">
        <ele>1558</ele>
        <time>2026-03-15T12:07:05Z</time>
      </trkpt>
      <trkpt lat="45.70342" lon="6.27231">
        <ele>1558</ele>
        <time>2026-03-15T12:07:07Z</time>
      </trkpt>
      <trkpt lat="45.70342" lon="6.27237">
        <ele>1558</ele>
        <time>2026-03-15T12:07:10Z</time>
      </trkpt>
      <trkpt lat="45.70342" lon="6.27238">
        <ele>1554</ele>
        <time>2026-03-15T12:07:21Z</time>
      </trkpt>
      <trkpt lat="45.70346" lon="6.27247">
        <ele>1553</ele>
        <time>2026-03-15T12:07:51Z</time>
      </trkpt>
      <trkpt lat="45.70347" lon="6.2725">
        <ele>1553</ele>
        <time>2026-03-15T12:07:52Z</time>
      </trkpt>
      <trkpt lat="45.70348" lon="6.27253">
        <ele>1553</ele>
        <time>2026-03-15T12:07:53Z</time>
      </trkpt>
      <trkpt lat="45.7035" lon="6.27257">
        <ele>1553</ele>
        <time>2026-03-15T12:07:54Z</time>
      </trkpt>
      <trkpt lat="45.70351" lon="6.27261">
        <ele>1553</ele>
        <time>2026-03-15T12:07:55Z</time>
      </trkpt>
      <trkpt lat="45.70352" lon="6.27265">
        <ele>1553</ele>
        <time>2026-03-15T12:07:56Z</time>
      </trkpt>
      <trkpt lat="45.70353" lon="6.2727">
        <ele>1553</ele>
        <time>2026-03-15T12:07:57Z</time>
      </trkpt>
      <trkpt lat="45.70354" lon="6.27274">
        <ele>1553</ele>
        <time>2026-03-15T12:07:58Z</time>
      </trkpt>
      <trkpt lat="45.70355" lon="6.27278">
        <ele>1553</ele>
        <time>2026-03-15T12:07:59Z</time>
      </trkpt>
      <trkpt lat="45.70357" lon="6.27281">
        <ele>1553</ele>
        <time>2026-03-15T12:08:00Z</time>
      </trkpt>
      <trkpt lat="45.70358" lon="6.27286">
        <ele>1553</ele>
        <time>2026-03-15T12:08:01Z</time>
      </trkpt>
      <trkpt lat="45.7036" lon="6.2729">
        <ele>1553</ele>
        <time>2026-03-15T12:08:02Z</time>
      </trkpt>
      <trkpt lat="45.70361" lon="6.27295">
        <ele>1553</ele>
        <time>2026-03-15T12:08:03Z</time>
      </trkpt>
      <trkpt lat="45.70362" lon="6.27299">
        <ele>1553</ele>
        <time>2026-03-15T12:08:04Z</time>
      </trkpt>
      <trkpt lat="45.70364" lon="6.27302">
        <ele>1546</ele>
        <time>2026-03-15T12:08:05Z</time>
      </trkpt>
      <trkpt lat="45.70364" lon="6.27304">
        <ele>1546</ele>
        <time>2026-03-15T12:08:06Z</time>
      </trkpt>
      <trkpt lat="45.70366" lon="6.27306">
        <ele>1546</ele>
        <time>2026-03-15T12:08:07Z</time>
      </trkpt>
      <trkpt lat="45.70367" lon="6.27309">
        <ele>1546</ele>
        <time>2026-03-15T12:08:08Z</time>
      </trkpt>
      <trkpt lat="45.70368" lon="6.27312">
        <ele>1546</ele>
        <time>2026-03-15T12:08:09Z</time>
      </trkpt>
      <trkpt lat="45.70369" lon="6.27315">
        <ele>1546</ele>
        <time>2026-03-15T12:08:10Z</time>
      </trkpt>
      <trkpt lat="45.70371" lon="6.27318">
        <ele>1546</ele>
        <time>2026-03-15T12:08:11Z</time>
      </trkpt>
      <trkpt lat="45.70376" lon="6.2733">
        <ele>1546</ele>
        <time>2026-03-15T12:08:14Z</time>
      </trkpt>
      <trkpt lat="45.70386" lon="6.27342">
        <ele>1543</ele>
        <time>2026-03-15T12:08:17Z</time>
      </trkpt>
      <trkpt lat="45.70396" lon="6.27351">
        <ele>1543</ele>
        <time>2026-03-15T12:08:19Z</time>
      </trkpt>
      <trkpt lat="45.70406" lon="6.27361">
        <ele>1543</ele>
        <time>2026-03-15T12:08:21Z</time>
      </trkpt>
      <trkpt lat="45.7041" lon="6.27366">
        <ele>1543</ele>
        <time>2026-03-15T12:08:22Z</time>
      </trkpt>
      <trkpt lat="45.70413" lon="6.27371">
        <ele>1543</ele>
        <time>2026-03-15T12:08:23Z</time>
      </trkpt>
      <trkpt lat="45.70415" lon="6.27376">
        <ele>1543</ele>
        <time>2026-03-15T12:08:24Z</time>
      </trkpt>
      <trkpt lat="45.70417" lon="6.27379">
        <ele>1535</ele>
        <time>2026-03-15T12:08:25Z</time>
      </trkpt>
      <trkpt lat="45.70418" lon="6.27382">
        <ele>1535</ele>
        <time>2026-03-15T12:08:26Z</time>
      </trkpt>
      <trkpt lat="45.7042" lon="6.27384">
        <ele>1535</ele>
        <time>2026-03-15T12:08:27Z</time>
      </trkpt>
      <trkpt lat="45.70421" lon="6.27387">
        <ele>1535</ele>
        <time>2026-03-15T12:08:29Z</time>
      </trkpt>
      <trkpt lat="45.70422" lon="6.27389">
        <ele>1535</ele>
        <time>2026-03-15T12:08:31Z</time>
      </trkpt>
      <trkpt lat="45.70424" lon="6.27392">
        <ele>1534</ele>
        <time>2026-03-15T12:08:35Z</time>
      </trkpt>
      <trkpt lat="45.70426" lon="6.27395">
        <ele>1534</ele>
        <time>2026-03-15T12:08:38Z</time>
      </trkpt>
      <trkpt lat="45.70427" lon="6.27397">
        <ele>1534</ele>
        <time>2026-03-15T12:08:40Z</time>
      </trkpt>
      <trkpt lat="45.70428" lon="6.274">
        <ele>1534</ele>
        <time>2026-03-15T12:08:43Z</time>
      </trkpt>
      <trkpt lat="45.7043" lon="6.27402">
        <ele>1533</ele>
        <time>2026-03-15T12:08:46Z</time>
      </trkpt>
      <trkpt lat="45.70431" lon="6.27405">
        <ele>1533</ele>
        <time>2026-03-15T12:08:48Z</time>
      </trkpt>
      <trkpt lat="45.70434" lon="6.27409">
        <ele>1533</ele>
        <time>2026-03-15T12:08:50Z</time>
      </trkpt>
      <trkpt lat="45.70435" lon="6.27412">
        <ele>1533</ele>
        <time>2026-03-15T12:08:51Z</time>
      </trkpt>
      <trkpt lat="45.70436" lon="6.27415">
        <ele>1533</ele>
        <time>2026-03-15T12:08:52Z</time>
      </trkpt>
      <trkpt lat="45.70437" lon="6.27418">
        <ele>1533</ele>
        <time>2026-03-15T12:08:53Z</time>
      </trkpt>
      <trkpt lat="45.70438" lon="6.27421">
        <ele>1533</ele>
        <time>2026-03-15T12:08:54Z</time>
      </trkpt>
      <trkpt lat="45.7044" lon="6.27422">
        <ele>1532</ele>
        <time>2026-03-15T12:08:55Z</time>
      </trkpt>
      <trkpt lat="45.70443" lon="6.27423">
        <ele>1532</ele>
        <time>2026-03-15T12:08:56Z</time>
      </trkpt>
      <trkpt lat="45.70444" lon="6.27426">
        <ele>1532</ele>
        <time>2026-03-15T12:08:57Z</time>
      </trkpt>
      <trkpt lat="45.70446" lon="6.2743">
        <ele>1532</ele>
        <time>2026-03-15T12:08:58Z</time>
      </trkpt>
      <trkpt lat="45.70447" lon="6.27432">
        <ele>1532</ele>
        <time>2026-03-15T12:08:59Z</time>
      </trkpt>
      <trkpt lat="45.7045" lon="6.27433">
        <ele>1532</ele>
        <time>2026-03-15T12:09:00Z</time>
      </trkpt>
      <trkpt lat="45.70452" lon="6.27434">
        <ele>1532</ele>
        <time>2026-03-15T12:09:01Z</time>
      </trkpt>
      <trkpt lat="45.70454" lon="6.27437">
        <ele>1532</ele>
        <time>2026-03-15T12:09:02Z</time>
      </trkpt>
      <trkpt lat="45.70455" lon="6.2744">
        <ele>1532</ele>
        <time>2026-03-15T12:09:03Z</time>
      </trkpt>
      <trkpt lat="45.70456" lon="6.27442">
        <ele>1532</ele>
        <time>2026-03-15T12:09:04Z</time>
      </trkpt>
      <trkpt lat="45.70457" lon="6.27441">
        <ele>1525</ele>
        <time>2026-03-15T12:09:18Z</time>
      </trkpt>
      <trkpt lat="45.70456" lon="6.27438">
        <ele>1525</ele>
        <time>2026-03-15T12:09:23Z</time>
      </trkpt>
      <trkpt lat="45.70456" lon="6.27435">
        <ele>1525</ele>
        <time>2026-03-15T12:09:25Z</time>
      </trkpt>
      <trkpt lat="45.70456" lon="6.27431">
        <ele>1525</ele>
        <time>2026-03-15T12:09:27Z</time>
      </trkpt>
      <trkpt lat="45.70458" lon="6.27426">
        <ele>1525</ele>
        <time>2026-03-15T12:09:29Z</time>
      </trkpt>
      <trkpt lat="45.7046" lon="6.27426">
        <ele>1525</ele>
        <time>2026-03-15T12:09:30Z</time>
      </trkpt>
      <trkpt lat="45.70462" lon="6.27428">
        <ele>1525</ele>
        <time>2026-03-15T12:09:31Z</time>
      </trkpt>
      <trkpt lat="45.70464" lon="6.2743">
        <ele>1525</ele>
        <time>2026-03-15T12:09:32Z</time>
      </trkpt>
      <trkpt lat="45.70465" lon="6.27433">
        <ele>1525</ele>
        <time>2026-03-15T12:09:33Z</time>
      </trkpt>
      <trkpt lat="45.70467" lon="6.27436">
        <ele>1525</ele>
        <time>2026-03-15T12:09:34Z</time>
      </trkpt>
      <trkpt lat="45.70469" lon="6.27437">
        <ele>1524</ele>
        <time>2026-03-15T12:09:35Z</time>
      </trkpt>
      <trkpt lat="45.70471" lon="6.27436">
        <ele>1524</ele>
        <time>2026-03-15T12:09:36Z</time>
      </trkpt>
      <trkpt lat="45.70472" lon="6.27433">
        <ele>1524</ele>
        <time>2026-03-15T12:09:37Z</time>
      </trkpt>
      <trkpt lat="45.70475" lon="6.27431">
        <ele>1524</ele>
        <time>2026-03-15T12:09:38Z</time>
      </trkpt>
      <trkpt lat="45.70477" lon="6.27433">
        <ele>1524</ele>
        <time>2026-03-15T12:09:39Z</time>
      </trkpt>
      <trkpt lat="45.70479" lon="6.27436">
        <ele>1524</ele>
        <time>2026-03-15T12:09:40Z</time>
      </trkpt>
      <trkpt lat="45.70481" lon="6.2744">
        <ele>1524</ele>
        <time>2026-03-15T12:09:41Z</time>
      </trkpt>
      <trkpt lat="45.70482" lon="6.27443">
        <ele>1524</ele>
        <time>2026-03-15T12:09:42Z</time>
      </trkpt>
      <trkpt lat="45.70484" lon="6.27446">
        <ele>1524</ele>
        <time>2026-03-15T12:09:43Z</time>
      </trkpt>
      <trkpt lat="45.70486" lon="6.2745">
        <ele>1524</ele>
        <time>2026-03-15T12:09:44Z</time>
      </trkpt>
      <trkpt lat="45.70487" lon="6.27453">
        <ele>1514</ele>
        <time>2026-03-15T12:09:45Z</time>
      </trkpt>
      <trkpt lat="45.70488" lon="6.27455">
        <ele>1514</ele>
        <time>2026-03-15T12:09:46Z</time>
      </trkpt>
      <trkpt lat="45.7049" lon="6.27457">
        <ele>1514</ele>
        <time>2026-03-15T12:09:47Z</time>
      </trkpt>
      <trkpt lat="45.70491" lon="6.27459">
        <ele>1514</ele>
        <time>2026-03-15T12:09:48Z</time>
      </trkpt>
      <trkpt lat="45.70493" lon="6.27461">
        <ele>1514</ele>
        <time>2026-03-15T12:09:49Z</time>
      </trkpt>
      <trkpt lat="45.70496" lon="6.27464">
        <ele>1514</ele>
        <time>2026-03-15T12:09:50Z</time>
      </trkpt>
      <trkpt lat="45.70498" lon="6.27466">
        <ele>1514</ele>
        <time>2026-03-15T12:09:51Z</time>
      </trkpt>
      <trkpt lat="45.705" lon="6.27469">
        <ele>1514</ele>
        <time>2026-03-15T12:09:52Z</time>
      </trkpt>
      <trkpt lat="45.70501" lon="6.2747">
        <ele>1514</ele>
        <time>2026-03-15T12:09:53Z</time>
      </trkpt>
      <trkpt lat="45.70503" lon="6.27472">
        <ele>1514</ele>
        <time>2026-03-15T12:09:54Z</time>
      </trkpt>
      <trkpt lat="45.70505" lon="6.27472">
        <ele>1508</ele>
        <time>2026-03-15T12:09:55Z</time>
      </trkpt>
      <trkpt lat="45.70507" lon="6.27471">
        <ele>1508</ele>
        <time>2026-03-15T12:09:56Z</time>
      </trkpt>
      <trkpt lat="45.70506" lon="6.27466">
        <ele>1508</ele>
        <time>2026-03-15T12:09:57Z</time>
      </trkpt>
      <trkpt lat="45.70505" lon="6.27461">
        <ele>1508</ele>
        <time>2026-03-15T12:09:58Z</time>
      </trkpt>
      <trkpt lat="45.70505" lon="6.27457">
        <ele>1508</ele>
        <time>2026-03-15T12:09:59Z</time>
      </trkpt>
      <trkpt lat="45.70505" lon="6.27452">
        <ele>1508</ele>
        <time>2026-03-15T12:10:00Z</time>
      </trkpt>
      <trkpt lat="45.70506" lon="6.27449">
        <ele>1508</ele>
        <time>2026-03-15T12:10:01Z</time>
      </trkpt>
      <trkpt lat="45.7051" lon="6.27448">
        <ele>1508</ele>
        <time>2026-03-15T12:10:02Z</time>
      </trkpt>
      <trkpt lat="45.70514" lon="6.27451">
        <ele>1508</ele>
        <time>2026-03-15T12:10:03Z</time>
      </trkpt>
      <trkpt lat="45.70517" lon="6.27455">
        <ele>1508</ele>
        <time>2026-03-15T12:10:04Z</time>
      </trkpt>
      <trkpt lat="45.70519" lon="6.27459">
        <ele>1500</ele>
        <time>2026-03-15T12:10:05Z</time>
      </trkpt>
      <trkpt lat="45.70521" lon="6.27462">
        <ele>1500</ele>
        <time>2026-03-15T12:10:06Z</time>
      </trkpt>
      <trkpt lat="45.70524" lon="6.27465">
        <ele>1500</ele>
        <time>2026-03-15T12:10:07Z</time>
      </trkpt>
      <trkpt lat="45.70526" lon="6.27467">
        <ele>1500</ele>
        <time>2026-03-15T12:10:08Z</time>
      </trkpt>
      <trkpt lat="45.70529" lon="6.27465">
        <ele>1500</ele>
        <time>2026-03-15T12:10:09Z</time>
      </trkpt>
      <trkpt lat="45.70529" lon="6.2746">
        <ele>1500</ele>
        <time>2026-03-15T12:10:10Z</time>
      </trkpt>
      <trkpt lat="45.70529" lon="6.27456">
        <ele>1500</ele>
        <time>2026-03-15T12:10:11Z</time>
      </trkpt>
      <trkpt lat="45.70529" lon="6.27451">
        <ele>1500</ele>
        <time>2026-03-15T12:10:12Z</time>
      </trkpt>
      <trkpt lat="45.70529" lon="6.27447">
        <ele>1500</ele>
        <time>2026-03-15T12:10:13Z</time>
      </trkpt>
      <trkpt lat="45.70529" lon="6.27443">
        <ele>1500</ele>
        <time>2026-03-15T12:10:14Z</time>
      </trkpt>
      <trkpt lat="45.70529" lon="6.27438">
        <ele>1491</ele>
        <time>2026-03-15T12:10:15Z</time>
      </trkpt>
      <trkpt lat="45.70532" lon="6.27435">
        <ele>1491</ele>
        <time>2026-03-15T12:10:16Z</time>
      </trkpt>
      <trkpt lat="45.70536" lon="6.27434">
        <ele>1491</ele>
        <time>2026-03-15T12:10:17Z</time>
      </trkpt>
      <trkpt lat="45.7054" lon="6.27436">
        <ele>1491</ele>
        <time>2026-03-15T12:10:18Z</time>
      </trkpt>
      <trkpt lat="45.70544" lon="6.2744">
        <ele>1491</ele>
        <time>2026-03-15T12:10:19Z</time>
      </trkpt>
      <trkpt lat="45.70546" lon="6.27444">
        <ele>1491</ele>
        <time>2026-03-15T12:10:20Z</time>
      </trkpt>
      <trkpt lat="45.70549" lon="6.27448">
        <ele>1491</ele>
        <time>2026-03-15T12:10:21Z</time>
      </trkpt>
      <trkpt lat="45.70553" lon="6.27449">
        <ele>1491</ele>
        <time>2026-03-15T12:10:22Z</time>
      </trkpt>
      <trkpt lat="45.70556" lon="6.27448">
        <ele>1491</ele>
        <time>2026-03-15T12:10:23Z</time>
      </trkpt>
      <trkpt lat="45.70556" lon="6.27444">
        <ele>1491</ele>
        <time>2026-03-15T12:10:24Z</time>
      </trkpt>
      <trkpt lat="45.70556" lon="6.27442">
        <ele>1483</ele>
        <time>2026-03-15T12:10:25Z</time>
      </trkpt>
      <trkpt lat="45.70556" lon="6.27439">
        <ele>1483</ele>
        <time>2026-03-15T12:10:26Z</time>
      </trkpt>
      <trkpt lat="45.70557" lon="6.27436">
        <ele>1483</ele>
        <time>2026-03-15T12:10:27Z</time>
      </trkpt>
      <trkpt lat="45.70558" lon="6.27432">
        <ele>1483</ele>
        <time>2026-03-15T12:10:28Z</time>
      </trkpt>
      <trkpt lat="45.70561" lon="6.2743">
        <ele>1483</ele>
        <time>2026-03-15T12:10:29Z</time>
      </trkpt>
      <trkpt lat="45.70564" lon="6.27432">
        <ele>1483</ele>
        <time>2026-03-15T12:10:30Z</time>
      </trkpt>
      <trkpt lat="45.70566" lon="6.27435">
        <ele>1483</ele>
        <time>2026-03-15T12:10:31Z</time>
      </trkpt>
      <trkpt lat="45.70568" lon="6.27437">
        <ele>1483</ele>
        <time>2026-03-15T12:10:32Z</time>
      </trkpt>
      <trkpt lat="45.70571" lon="6.27437">
        <ele>1483</ele>
        <time>2026-03-15T12:10:33Z</time>
      </trkpt>
      <trkpt lat="45.70573" lon="6.27436">
        <ele>1483</ele>
        <time>2026-03-15T12:10:34Z</time>
      </trkpt>
      <trkpt lat="45.70573" lon="6.27433">
        <ele>1476</ele>
        <time>2026-03-15T12:10:35Z</time>
      </trkpt>
      <trkpt lat="45.70573" lon="6.27429">
        <ele>1476</ele>
        <time>2026-03-15T12:10:36Z</time>
      </trkpt>
      <trkpt lat="45.70573" lon="6.27425">
        <ele>1476</ele>
        <time>2026-03-15T12:10:37Z</time>
      </trkpt>
      <trkpt lat="45.70576" lon="6.27423">
        <ele>1476</ele>
        <time>2026-03-15T12:10:38Z</time>
      </trkpt>
      <trkpt lat="45.70578" lon="6.27425">
        <ele>1476</ele>
        <time>2026-03-15T12:10:39Z</time>
      </trkpt>
      <trkpt lat="45.70579" lon="6.27426">
        <ele>1476</ele>
        <time>2026-03-15T12:10:41Z</time>
      </trkpt>
      <trkpt lat="45.70579" lon="6.27426">
        <ele>1469</ele>
        <time>2026-03-15T12:11:01Z</time>
      </trkpt>
      <trkpt lat="45.70581" lon="6.27425">
        <ele>1468</ele>
        <time>2026-03-15T12:12:35Z</time>
      </trkpt>
      <trkpt lat="45.70584" lon="6.27428">
        <ele>1468</ele>
        <time>2026-03-15T12:12:37Z</time>
      </trkpt>
      <trkpt lat="45.70586" lon="6.2743">
        <ele>1468</ele>
        <time>2026-03-15T12:12:38Z</time>
      </trkpt>
      <trkpt lat="45.70588" lon="6.27429">
        <ele>1468</ele>
        <time>2026-03-15T12:12:39Z</time>
      </trkpt>
      <trkpt lat="45.70588" lon="6.27426">
        <ele>1468</ele>
        <time>2026-03-15T12:12:40Z</time>
      </trkpt>
      <trkpt lat="45.70587" lon="6.27422">
        <ele>1468</ele>
        <time>2026-03-15T12:12:41Z</time>
      </trkpt>
      <trkpt lat="45.70587" lon="6.27418">
        <ele>1468</ele>
        <time>2026-03-15T12:12:42Z</time>
      </trkpt>
      <trkpt lat="45.70589" lon="6.27415">
        <ele>1468</ele>
        <time>2026-03-15T12:12:43Z</time>
      </trkpt>
      <trkpt lat="45.70592" lon="6.27415">
        <ele>1468</ele>
        <time>2026-03-15T12:12:44Z</time>
      </trkpt>
      <trkpt lat="45.70595" lon="6.27418">
        <ele>1467</ele>
        <time>2026-03-15T12:12:45Z</time>
      </trkpt>
      <trkpt lat="45.70597" lon="6.2742">
        <ele>1467</ele>
        <time>2026-03-15T12:12:46Z</time>
      </trkpt>
      <trkpt lat="45.706" lon="6.2742">
        <ele>1467</ele>
        <time>2026-03-15T12:12:47Z</time>
      </trkpt>
      <trkpt lat="45.70601" lon="6.27418">
        <ele>1467</ele>
        <time>2026-03-15T12:12:48Z</time>
      </trkpt>
      <trkpt lat="45.70601" lon="6.27414">
        <ele>1467</ele>
        <time>2026-03-15T12:12:49Z</time>
      </trkpt>
      <trkpt lat="45.70602" lon="6.27409">
        <ele>1467</ele>
        <time>2026-03-15T12:12:50Z</time>
      </trkpt>
      <trkpt lat="45.70605" lon="6.27408">
        <ele>1467</ele>
        <time>2026-03-15T12:12:51Z</time>
      </trkpt>
      <trkpt lat="45.70609" lon="6.2741">
        <ele>1467</ele>
        <time>2026-03-15T12:12:52Z</time>
      </trkpt>
      <trkpt lat="45.70611" lon="6.27411">
        <ele>1467</ele>
        <time>2026-03-15T12:12:53Z</time>
      </trkpt>
      <trkpt lat="45.70614" lon="6.27412">
        <ele>1467</ele>
        <time>2026-03-15T12:12:54Z</time>
      </trkpt>
      <trkpt lat="45.70616" lon="6.2741">
        <ele>1455</ele>
        <time>2026-03-15T12:12:55Z</time>
      </trkpt>
      <trkpt lat="45.70615" lon="6.27407">
        <ele>1455</ele>
        <time>2026-03-15T12:12:56Z</time>
      </trkpt>
      <trkpt lat="45.70615" lon="6.27403">
        <ele>1455</ele>
        <time>2026-03-15T12:12:57Z</time>
      </trkpt>
      <trkpt lat="45.70614" lon="6.27399">
        <ele>1455</ele>
        <time>2026-03-15T12:12:58Z</time>
      </trkpt>
      <trkpt lat="45.70616" lon="6.27395">
        <ele>1455</ele>
        <time>2026-03-15T12:12:59Z</time>
      </trkpt>
      <trkpt lat="45.70619" lon="6.27395">
        <ele>1455</ele>
        <time>2026-03-15T12:13:00Z</time>
      </trkpt>
      <trkpt lat="45.70622" lon="6.27395">
        <ele>1455</ele>
        <time>2026-03-15T12:13:01Z</time>
      </trkpt>
      <trkpt lat="45.70624" lon="6.27393">
        <ele>1455</ele>
        <time>2026-03-15T12:13:02Z</time>
      </trkpt>
      <trkpt lat="45.70624" lon="6.27389">
        <ele>1455</ele>
        <time>2026-03-15T12:13:03Z</time>
      </trkpt>
      <trkpt lat="45.70625" lon="6.27385">
        <ele>1455</ele>
        <time>2026-03-15T12:13:04Z</time>
      </trkpt>
      <trkpt lat="45.70628" lon="6.27384">
        <ele>1446</ele>
        <time>2026-03-15T12:13:05Z</time>
      </trkpt>
      <trkpt lat="45.7063" lon="6.27386">
        <ele>1446</ele>
        <time>2026-03-15T12:13:06Z</time>
      </trkpt>
      <trkpt lat="45.70633" lon="6.27387">
        <ele>1446</ele>
        <time>2026-03-15T12:13:07Z</time>
      </trkpt>
      <trkpt lat="45.70636" lon="6.27385">
        <ele>1446</ele>
        <time>2026-03-15T12:13:08Z</time>
      </trkpt>
      <trkpt lat="45.70636" lon="6.27382">
        <ele>1446</ele>
        <time>2026-03-15T12:13:09Z</time>
      </trkpt>
      <trkpt lat="45.70635" lon="6.27378">
        <ele>1446</ele>
        <time>2026-03-15T12:13:10Z</time>
      </trkpt>
      <trkpt lat="45.70635" lon="6.27375">
        <ele>1446</ele>
        <time>2026-03-15T12:13:11Z</time>
      </trkpt>
      <trkpt lat="45.70638" lon="6.27373">
        <ele>1446</ele>
        <time>2026-03-15T12:13:12Z</time>
      </trkpt>
      <trkpt lat="45.70642" lon="6.27375">
        <ele>1446</ele>
        <time>2026-03-15T12:13:13Z</time>
      </trkpt>
      <trkpt lat="45.70644" lon="6.27377">
        <ele>1446</ele>
        <time>2026-03-15T12:13:14Z</time>
      </trkpt>
      <trkpt lat="45.70646" lon="6.2738">
        <ele>1437</ele>
        <time>2026-03-15T12:13:15Z</time>
      </trkpt>
      <trkpt lat="45.70649" lon="6.27381">
        <ele>1437</ele>
        <time>2026-03-15T12:13:16Z</time>
      </trkpt>
      <trkpt lat="45.70651" lon="6.27381">
        <ele>1437</ele>
        <time>2026-03-15T12:13:17Z</time>
      </trkpt>
      <trkpt lat="45.70654" lon="6.27378">
        <ele>1437</ele>
        <time>2026-03-15T12:13:18Z</time>
      </trkpt>
      <trkpt lat="45.70657" lon="6.27378">
        <ele>1437</ele>
        <time>2026-03-15T12:13:19Z</time>
      </trkpt>
      <trkpt lat="45.70659" lon="6.27381">
        <ele>1437</ele>
        <time>2026-03-15T12:13:20Z</time>
      </trkpt>
      <trkpt lat="45.7066" lon="6.27384">
        <ele>1437</ele>
        <time>2026-03-15T12:13:21Z</time>
      </trkpt>
      <trkpt lat="45.7066" lon="6.27388">
        <ele>1437</ele>
        <time>2026-03-15T12:13:22Z</time>
      </trkpt>
      <trkpt lat="45.70661" lon="6.2739">
        <ele>1437</ele>
        <time>2026-03-15T12:13:23Z</time>
      </trkpt>
      <trkpt lat="45.70663" lon="6.27393">
        <ele>1437</ele>
        <time>2026-03-15T12:13:24Z</time>
      </trkpt>
      <trkpt lat="45.70664" lon="6.27397">
        <ele>1430</ele>
        <time>2026-03-15T12:13:25Z</time>
      </trkpt>
      <trkpt lat="45.70666" lon="6.27399">
        <ele>1430</ele>
        <time>2026-03-15T12:13:26Z</time>
      </trkpt>
      <trkpt lat="45.70669" lon="6.27396">
        <ele>1430</ele>
        <time>2026-03-15T12:13:28Z</time>
      </trkpt>
      <trkpt lat="45.70669" lon="6.27391">
        <ele>1430</ele>
        <time>2026-03-15T12:13:29Z</time>
      </trkpt>
      <trkpt lat="45.70671" lon="6.27388">
        <ele>1430</ele>
        <time>2026-03-15T12:13:30Z</time>
      </trkpt>
      <trkpt lat="45.70673" lon="6.27389">
        <ele>1430</ele>
        <time>2026-03-15T12:13:31Z</time>
      </trkpt>
      <trkpt lat="45.70675" lon="6.27392">
        <ele>1430</ele>
        <time>2026-03-15T12:13:32Z</time>
      </trkpt>
      <trkpt lat="45.70676" lon="6.27395">
        <ele>1430</ele>
        <time>2026-03-15T12:13:33Z</time>
      </trkpt>
      <trkpt lat="45.70678" lon="6.27395">
        <ele>1430</ele>
        <time>2026-03-15T12:13:34Z</time>
      </trkpt>
      <trkpt lat="45.70681" lon="6.27393">
        <ele>1425</ele>
        <time>2026-03-15T12:13:35Z</time>
      </trkpt>
      <trkpt lat="45.70684" lon="6.27393">
        <ele>1425</ele>
        <time>2026-03-15T12:13:36Z</time>
      </trkpt>
      <trkpt lat="45.70686" lon="6.27396">
        <ele>1425</ele>
        <time>2026-03-15T12:13:37Z</time>
      </trkpt>
      <trkpt lat="45.70687" lon="6.27398">
        <ele>1425</ele>
        <time>2026-03-15T12:13:38Z</time>
      </trkpt>
      <trkpt lat="45.70687" lon="6.27399">
        <ele>1425</ele>
        <time>2026-03-15T12:13:41Z</time>
      </trkpt>
      <trkpt lat="45.70688" lon="6.27398">
        <ele>1419</ele>
        <time>2026-03-15T12:14:24Z</time>
      </trkpt>
      <trkpt lat="45.7069" lon="6.27396">
        <ele>1419</ele>
        <time>2026-03-15T12:14:25Z</time>
      </trkpt>
      <trkpt lat="45.70692" lon="6.27395">
        <ele>1419</ele>
        <time>2026-03-15T12:14:26Z</time>
      </trkpt>
      <trkpt lat="45.70694" lon="6.27398">
        <ele>1419</ele>
        <time>2026-03-15T12:14:27Z</time>
      </trkpt>
      <trkpt lat="45.70695" lon="6.27401">
        <ele>1419</ele>
        <time>2026-03-15T12:14:28Z</time>
      </trkpt>
      <trkpt lat="45.70698" lon="6.27404">
        <ele>1419</ele>
        <time>2026-03-15T12:14:29Z</time>
      </trkpt>
      <trkpt lat="45.707" lon="6.27405">
        <ele>1419</ele>
        <time>2026-03-15T12:14:30Z</time>
      </trkpt>
      <trkpt lat="45.70703" lon="6.27404">
        <ele>1419</ele>
        <time>2026-03-15T12:14:31Z</time>
      </trkpt>
      <trkpt lat="45.70707" lon="6.27403">
        <ele>1419</ele>
        <time>2026-03-15T12:14:32Z</time>
      </trkpt>
      <trkpt lat="45.70711" lon="6.27405">
        <ele>1419</ele>
        <time>2026-03-15T12:14:33Z</time>
      </trkpt>
      <trkpt lat="45.70713" lon="6.2741">
        <ele>1419</ele>
        <time>2026-03-15T12:14:34Z</time>
      </trkpt>
      <trkpt lat="45.70715" lon="6.27415">
        <ele>1416</ele>
        <time>2026-03-15T12:14:35Z</time>
      </trkpt>
      <trkpt lat="45.70717" lon="6.27418">
        <ele>1416</ele>
        <time>2026-03-15T12:14:36Z</time>
      </trkpt>
      <trkpt lat="45.70719" lon="6.27421">
        <ele>1416</ele>
        <time>2026-03-15T12:14:37Z</time>
      </trkpt>
      <trkpt lat="45.70721" lon="6.2742">
        <ele>1416</ele>
        <time>2026-03-15T12:14:38Z</time>
      </trkpt>
      <trkpt lat="45.70723" lon="6.27416">
        <ele>1416</ele>
        <time>2026-03-15T12:14:39Z</time>
      </trkpt>
      <trkpt lat="45.70725" lon="6.27414">
        <ele>1416</ele>
        <time>2026-03-15T12:14:40Z</time>
      </trkpt>
      <trkpt lat="45.70728" lon="6.27416">
        <ele>1416</ele>
        <time>2026-03-15T12:14:41Z</time>
      </trkpt>
      <trkpt lat="45.70729" lon="6.27418">
        <ele>1416</ele>
        <time>2026-03-15T12:14:42Z</time>
      </trkpt>
      <trkpt lat="45.70731" lon="6.27419">
        <ele>1416</ele>
        <time>2026-03-15T12:14:43Z</time>
      </trkpt>
      <trkpt lat="45.70732" lon="6.27416">
        <ele>1416</ele>
        <time>2026-03-15T12:14:44Z</time>
      </trkpt>
      <trkpt lat="45.70733" lon="6.27412">
        <ele>1402</ele>
        <time>2026-03-15T12:14:45Z</time>
      </trkpt>
      <trkpt lat="45.70735" lon="6.27409">
        <ele>1402</ele>
        <time>2026-03-15T12:14:46Z</time>
      </trkpt>
      <trkpt lat="45.70738" lon="6.2741">
        <ele>1402</ele>
        <time>2026-03-15T12:14:47Z</time>
      </trkpt>
      <trkpt lat="45.70741" lon="6.27413">
        <ele>1402</ele>
        <time>2026-03-15T12:14:48Z</time>
      </trkpt>
      <trkpt lat="45.70743" lon="6.27417">
        <ele>1402</ele>
        <time>2026-03-15T12:14:49Z</time>
      </trkpt>
      <trkpt lat="45.70746" lon="6.27421">
        <ele>1402</ele>
        <time>2026-03-15T12:14:50Z</time>
      </trkpt>
      <trkpt lat="45.70748" lon="6.27424">
        <ele>1402</ele>
        <time>2026-03-15T12:14:51Z</time>
      </trkpt>
      <trkpt lat="45.7075" lon="6.27425">
        <ele>1402</ele>
        <time>2026-03-15T12:14:52Z</time>
      </trkpt>
      <trkpt lat="45.70752" lon="6.27423">
        <ele>1402</ele>
        <time>2026-03-15T12:14:53Z</time>
      </trkpt>
      <trkpt lat="45.70752" lon="6.27419">
        <ele>1402</ele>
        <time>2026-03-15T12:14:54Z</time>
      </trkpt>
      <trkpt lat="45.70752" lon="6.27415">
        <ele>1394</ele>
        <time>2026-03-15T12:14:55Z</time>
      </trkpt>
      <trkpt lat="45.70752" lon="6.2741">
        <ele>1394</ele>
        <time>2026-03-15T12:14:56Z</time>
      </trkpt>
      <trkpt lat="45.70753" lon="6.27405">
        <ele>1394</ele>
        <time>2026-03-15T12:14:57Z</time>
      </trkpt>
      <trkpt lat="45.70755" lon="6.27401">
        <ele>1394</ele>
        <time>2026-03-15T12:14:58Z</time>
      </trkpt>
      <trkpt lat="45.70758" lon="6.27399">
        <ele>1394</ele>
        <time>2026-03-15T12:14:59Z</time>
      </trkpt>
      <trkpt lat="45.70762" lon="6.27402">
        <ele>1394</ele>
        <time>2026-03-15T12:15:00Z</time>
      </trkpt>
      <trkpt lat="45.70764" lon="6.27405">
        <ele>1394</ele>
        <time>2026-03-15T12:15:01Z</time>
      </trkpt>
      <trkpt lat="45.70767" lon="6.27407">
        <ele>1394</ele>
        <time>2026-03-15T12:15:02Z</time>
      </trkpt>
      <trkpt lat="45.70769" lon="6.27405">
        <ele>1394</ele>
        <time>2026-03-15T12:15:03Z</time>
      </trkpt>
      <trkpt lat="45.7077" lon="6.27402">
        <ele>1394</ele>
        <time>2026-03-15T12:15:04Z</time>
      </trkpt>
      <trkpt lat="45.70771" lon="6.27397">
        <ele>1387</ele>
        <time>2026-03-15T12:15:05Z</time>
      </trkpt>
      <trkpt lat="45.70774" lon="6.27395">
        <ele>1387</ele>
        <time>2026-03-15T12:15:06Z</time>
      </trkpt>
      <trkpt lat="45.70778" lon="6.27396">
        <ele>1387</ele>
        <time>2026-03-15T12:15:07Z</time>
      </trkpt>
      <trkpt lat="45.70781" lon="6.27399">
        <ele>1387</ele>
        <time>2026-03-15T12:15:08Z</time>
      </trkpt>
      <trkpt lat="45.70784" lon="6.27401">
        <ele>1387</ele>
        <time>2026-03-15T12:15:09Z</time>
      </trkpt>
      <trkpt lat="45.70786" lon="6.27399">
        <ele>1387</ele>
        <time>2026-03-15T12:15:10Z</time>
      </trkpt>
      <trkpt lat="45.70787" lon="6.27395">
        <ele>1387</ele>
        <time>2026-03-15T12:15:11Z</time>
      </trkpt>
      <trkpt lat="45.7079" lon="6.27392">
        <ele>1387</ele>
        <time>2026-03-15T12:15:12Z</time>
      </trkpt>
      <trkpt lat="45.70793" lon="6.27392">
        <ele>1387</ele>
        <time>2026-03-15T12:15:13Z</time>
      </trkpt>
      <trkpt lat="45.70796" lon="6.27395">
        <ele>1387</ele>
        <time>2026-03-15T12:15:14Z</time>
      </trkpt>
      <trkpt lat="45.70797" lon="6.274">
        <ele>1377</ele>
        <time>2026-03-15T12:15:15Z</time>
      </trkpt>
      <trkpt lat="45.70797" lon="6.27404">
        <ele>1377</ele>
        <time>2026-03-15T12:15:16Z</time>
      </trkpt>
      <trkpt lat="45.70798" lon="6.27406">
        <ele>1377</ele>
        <time>2026-03-15T12:15:17Z</time>
      </trkpt>
      <trkpt lat="45.70798" lon="6.27407">
        <ele>1377</ele>
        <time>2026-03-15T12:15:19Z</time>
      </trkpt>
      <trkpt lat="45.708" lon="6.27408">
        <ele>1372</ele>
        <time>2026-03-15T12:15:50Z</time>
      </trkpt>
      <trkpt lat="45.70802" lon="6.27406">
        <ele>1372</ele>
        <time>2026-03-15T12:15:51Z</time>
      </trkpt>
      <trkpt lat="45.70804" lon="6.27407">
        <ele>1372</ele>
        <time>2026-03-15T12:15:52Z</time>
      </trkpt>
      <trkpt lat="45.70806" lon="6.2741">
        <ele>1372</ele>
        <time>2026-03-15T12:15:53Z</time>
      </trkpt>
      <trkpt lat="45.70806" lon="6.27413">
        <ele>1372</ele>
        <time>2026-03-15T12:15:54Z</time>
      </trkpt>
      <trkpt lat="45.70807" lon="6.27415">
        <ele>1372</ele>
        <time>2026-03-15T12:15:55Z</time>
      </trkpt>
      <trkpt lat="45.70808" lon="6.27417">
        <ele>1372</ele>
        <time>2026-03-15T12:15:56Z</time>
      </trkpt>
      <trkpt lat="45.70811" lon="6.27418">
        <ele>1372</ele>
        <time>2026-03-15T12:15:57Z</time>
      </trkpt>
      <trkpt lat="45.70813" lon="6.27422">
        <ele>1372</ele>
        <time>2026-03-15T12:15:58Z</time>
      </trkpt>
      <trkpt lat="45.70813" lon="6.27427">
        <ele>1372</ele>
        <time>2026-03-15T12:15:59Z</time>
      </trkpt>
      <trkpt lat="45.70814" lon="6.2743">
        <ele>1372</ele>
        <time>2026-03-15T12:16:00Z</time>
      </trkpt>
      <trkpt lat="45.70816" lon="6.27432">
        <ele>1372</ele>
        <time>2026-03-15T12:16:01Z</time>
      </trkpt>
      <trkpt lat="45.70817" lon="6.27431">
        <ele>1372</ele>
        <time>2026-03-15T12:16:02Z</time>
      </trkpt>
      <trkpt lat="45.70818" lon="6.2743">
        <ele>1363</ele>
        <time>2026-03-15T12:16:07Z</time>
      </trkpt>
      <trkpt lat="45.70819" lon="6.27433">
        <ele>1363</ele>
        <time>2026-03-15T12:16:11Z</time>
      </trkpt>
      <trkpt lat="45.70819" lon="6.27436">
        <ele>1363</ele>
        <time>2026-03-15T12:16:12Z</time>
      </trkpt>
      <trkpt lat="45.70818" lon="6.2744">
        <ele>1363</ele>
        <time>2026-03-15T12:16:14Z</time>
      </trkpt>
      <trkpt lat="45.70817" lon="6.27444">
        <ele>1362</ele>
        <time>2026-03-15T12:16:16Z</time>
      </trkpt>
      <trkpt lat="45.70819" lon="6.27447">
        <ele>1362</ele>
        <time>2026-03-15T12:16:17Z</time>
      </trkpt>
      <trkpt lat="45.70821" lon="6.2745">
        <ele>1362</ele>
        <time>2026-03-15T12:16:18Z</time>
      </trkpt>
      <trkpt lat="45.70822" lon="6.27454">
        <ele>1362</ele>
        <time>2026-03-15T12:16:19Z</time>
      </trkpt>
      <trkpt lat="45.70822" lon="6.27457">
        <ele>1362</ele>
        <time>2026-03-15T12:16:20Z</time>
      </trkpt>
      <trkpt lat="45.70821" lon="6.27459">
        <ele>1362</ele>
        <time>2026-03-15T12:16:21Z</time>
      </trkpt>
      <trkpt lat="45.7082" lon="6.27462">
        <ele>1362</ele>
        <time>2026-03-15T12:16:22Z</time>
      </trkpt>
      <trkpt lat="45.7082" lon="6.27466">
        <ele>1362</ele>
        <time>2026-03-15T12:16:23Z</time>
      </trkpt>
      <trkpt lat="45.7082" lon="6.27471">
        <ele>1362</ele>
        <time>2026-03-15T12:16:24Z</time>
      </trkpt>
      <trkpt lat="45.7082" lon="6.27475">
        <ele>1358</ele>
        <time>2026-03-15T12:16:25Z</time>
      </trkpt>
      <trkpt lat="45.70819" lon="6.2748">
        <ele>1358</ele>
        <time>2026-03-15T12:16:26Z</time>
      </trkpt>
      <trkpt lat="45.70821" lon="6.27484">
        <ele>1358</ele>
        <time>2026-03-15T12:16:27Z</time>
      </trkpt>
      <trkpt lat="45.70825" lon="6.27487">
        <ele>1358</ele>
        <time>2026-03-15T12:16:28Z</time>
      </trkpt>
      <trkpt lat="45.70827" lon="6.27492">
        <ele>1358</ele>
        <time>2026-03-15T12:16:29Z</time>
      </trkpt>
      <trkpt lat="45.70827" lon="6.27498">
        <ele>1358</ele>
        <time>2026-03-15T12:16:30Z</time>
      </trkpt>
      <trkpt lat="45.70827" lon="6.27503">
        <ele>1358</ele>
        <time>2026-03-15T12:16:31Z</time>
      </trkpt>
      <trkpt lat="45.70829" lon="6.27508">
        <ele>1358</ele>
        <time>2026-03-15T12:16:32Z</time>
      </trkpt>
      <trkpt lat="45.70832" lon="6.27512">
        <ele>1358</ele>
        <time>2026-03-15T12:16:33Z</time>
      </trkpt>
      <trkpt lat="45.70833" lon="6.27517">
        <ele>1358</ele>
        <time>2026-03-15T12:16:34Z</time>
      </trkpt>
      <trkpt lat="45.70833" lon="6.27522">
        <ele>1347</ele>
        <time>2026-03-15T12:16:35Z</time>
      </trkpt>
      <trkpt lat="45.70835" lon="6.27526">
        <ele>1347</ele>
        <time>2026-03-15T12:16:36Z</time>
      </trkpt>
      <trkpt lat="45.70837" lon="6.2753">
        <ele>1347</ele>
        <time>2026-03-15T12:16:37Z</time>
      </trkpt>
      <trkpt lat="45.70839" lon="6.27535">
        <ele>1347</ele>
        <time>2026-03-15T12:16:38Z</time>
      </trkpt>
      <trkpt lat="45.70839" lon="6.2754">
        <ele>1347</ele>
        <time>2026-03-15T12:16:39Z</time>
      </trkpt>
      <trkpt lat="45.7084" lon="6.27544">
        <ele>1347</ele>
        <time>2026-03-15T12:16:40Z</time>
      </trkpt>
      <trkpt lat="45.70842" lon="6.27549">
        <ele>1347</ele>
        <time>2026-03-15T12:16:41Z</time>
      </trkpt>
      <trkpt lat="45.70842" lon="6.27554">
        <ele>1347</ele>
        <time>2026-03-15T12:16:42Z</time>
      </trkpt>
      <trkpt lat="45.70843" lon="6.27559">
        <ele>1347</ele>
        <time>2026-03-15T12:16:43Z</time>
      </trkpt>
      <trkpt lat="45.70845" lon="6.27563">
        <ele>1347</ele>
        <time>2026-03-15T12:16:44Z</time>
      </trkpt>
      <trkpt lat="45.70847" lon="6.27568">
        <ele>1338</ele>
        <time>2026-03-15T12:16:45Z</time>
      </trkpt>
      <trkpt lat="45.70848" lon="6.27573">
        <ele>1338</ele>
        <time>2026-03-15T12:16:46Z</time>
      </trkpt>
      <trkpt lat="45.70847" lon="6.27578">
        <ele>1338</ele>
        <time>2026-03-15T12:16:47Z</time>
      </trkpt>
      <trkpt lat="45.70847" lon="6.27583">
        <ele>1338</ele>
        <time>2026-03-15T12:16:48Z</time>
      </trkpt>
      <trkpt lat="45.70847" lon="6.27587">
        <ele>1338</ele>
        <time>2026-03-15T12:16:49Z</time>
      </trkpt>
      <trkpt lat="45.7085" lon="6.27589">
        <ele>1338</ele>
        <time>2026-03-15T12:16:50Z</time>
      </trkpt>
      <trkpt lat="45.70854" lon="6.2759">
        <ele>1338</ele>
        <time>2026-03-15T12:16:51Z</time>
      </trkpt>
      <trkpt lat="45.70857" lon="6.27594">
        <ele>1338</ele>
        <time>2026-03-15T12:16:52Z</time>
      </trkpt>
      <trkpt lat="45.70858" lon="6.27599">
        <ele>1338</ele>
        <time>2026-03-15T12:16:53Z</time>
      </trkpt>
      <trkpt lat="45.70857" lon="6.27603">
        <ele>1338</ele>
        <time>2026-03-15T12:16:54Z</time>
      </trkpt>
      <trkpt lat="45.70855" lon="6.27605">
        <ele>1328</ele>
        <time>2026-03-15T12:16:55Z</time>
      </trkpt>
      <trkpt lat="45.70855" lon="6.27609">
        <ele>1328</ele>
        <time>2026-03-15T12:16:56Z</time>
      </trkpt>
      <trkpt lat="45.70857" lon="6.27612">
        <ele>1328</ele>
        <time>2026-03-15T12:16:57Z</time>
      </trkpt>
      <trkpt lat="45.7086" lon="6.27613">
        <ele>1328</ele>
        <time>2026-03-15T12:16:58Z</time>
      </trkpt>
      <trkpt lat="45.70864" lon="6.27616">
        <ele>1328</ele>
        <time>2026-03-15T12:16:59Z</time>
      </trkpt>
      <trkpt lat="45.70867" lon="6.2762">
        <ele>1328</ele>
        <time>2026-03-15T12:17:00Z</time>
      </trkpt>
      <trkpt lat="45.70868" lon="6.27625">
        <ele>1328</ele>
        <time>2026-03-15T12:17:01Z</time>
      </trkpt>
      <trkpt lat="45.70866" lon="6.2763">
        <ele>1328</ele>
        <time>2026-03-15T12:17:02Z</time>
      </trkpt>
      <trkpt lat="45.70865" lon="6.27632">
        <ele>1328</ele>
        <time>2026-03-15T12:17:03Z</time>
      </trkpt>
      <trkpt lat="45.70865" lon="6.27631">
        <ele>1318</ele>
        <time>2026-03-15T12:17:08Z</time>
      </trkpt>
      <trkpt lat="45.70871" lon="6.27642">
        <ele>1317</ele>
        <time>2026-03-15T12:17:30Z</time>
      </trkpt>
      <trkpt lat="45.70871" lon="6.27648">
        <ele>1317</ele>
        <time>2026-03-15T12:17:31Z</time>
      </trkpt>
      <trkpt lat="45.70871" lon="6.27652">
        <ele>1317</ele>
        <time>2026-03-15T12:17:32Z</time>
      </trkpt>
      <trkpt lat="45.70872" lon="6.27657">
        <ele>1317</ele>
        <time>2026-03-15T12:17:33Z</time>
      </trkpt>
      <trkpt lat="45.70874" lon="6.2766">
        <ele>1317</ele>
        <time>2026-03-15T12:17:34Z</time>
      </trkpt>
      <trkpt lat="45.70877" lon="6.27665">
        <ele>1315</ele>
        <time>2026-03-15T12:17:35Z</time>
      </trkpt>
      <trkpt lat="45.70878" lon="6.27671">
        <ele>1315</ele>
        <time>2026-03-15T12:17:36Z</time>
      </trkpt>
      <trkpt lat="45.70878" lon="6.27676">
        <ele>1315</ele>
        <time>2026-03-15T12:17:37Z</time>
      </trkpt>
      <trkpt lat="45.70878" lon="6.27682">
        <ele>1315</ele>
        <time>2026-03-15T12:17:38Z</time>
      </trkpt>
      <trkpt lat="45.7088" lon="6.27686">
        <ele>1315</ele>
        <time>2026-03-15T12:17:39Z</time>
      </trkpt>
      <trkpt lat="45.70882" lon="6.27687">
        <ele>1315</ele>
        <time>2026-03-15T12:17:40Z</time>
      </trkpt>
      <trkpt lat="45.70887" lon="6.27681">
        <ele>1315</ele>
        <time>2026-03-15T12:17:42Z</time>
      </trkpt>
      <trkpt lat="45.70896" lon="6.27681">
        <ele>1303</ele>
        <time>2026-03-15T12:17:45Z</time>
      </trkpt>
      <trkpt lat="45.70898" lon="6.27667">
        <ele>1303</ele>
        <time>2026-03-15T12:17:48Z</time>
      </trkpt>
      <trkpt lat="45.70905" lon="6.27658">
        <ele>1303</ele>
        <time>2026-03-15T12:17:51Z</time>
      </trkpt>
      <trkpt lat="45.70906" lon="6.27644">
        <ele>1303</ele>
        <time>2026-03-15T12:17:54Z</time>
      </trkpt>
      <trkpt lat="45.70907" lon="6.27641">
        <ele>1293</ele>
        <time>2026-03-15T12:17:55Z</time>
      </trkpt>
      <trkpt lat="45.70914" lon="6.2763">
        <ele>1293</ele>
        <time>2026-03-15T12:17:59Z</time>
      </trkpt>
      <trkpt lat="45.70916" lon="6.27622">
        <ele>1285</ele>
        <time>2026-03-15T12:18:05Z</time>
      </trkpt>
      <trkpt lat="45.70915" lon="6.27621">
        <ele>1285</ele>
        <time>2026-03-15T12:18:07Z</time>
      </trkpt>
      <trkpt lat="45.70914" lon="6.27619">
        <ele>1283</ele>
        <time>2026-03-15T12:18:23Z</time>
      </trkpt>
      <trkpt lat="45.70914" lon="6.27616">
        <ele>1283</ele>
        <time>2026-03-15T12:18:25Z</time>
      </trkpt>
      <trkpt lat="45.70914" lon="6.27611">
        <ele>1283</ele>
        <time>2026-03-15T12:18:27Z</time>
      </trkpt>
      <trkpt lat="45.70914" lon="6.27607">
        <ele>1283</ele>
        <time>2026-03-15T12:18:29Z</time>
      </trkpt>
      <trkpt lat="45.70914" lon="6.27604">
        <ele>1283</ele>
        <time>2026-03-15T12:18:31Z</time>
      </trkpt>
      <trkpt lat="45.70918" lon="6.27601">
        <ele>1283</ele>
        <time>2026-03-15T12:18:33Z</time>
      </trkpt>
      <trkpt lat="45.7092" lon="6.27602">
        <ele>1283</ele>
        <time>2026-03-15T12:18:34Z</time>
      </trkpt>
      <trkpt lat="45.70923" lon="6.27604">
        <ele>1282</ele>
        <time>2026-03-15T12:18:35Z</time>
      </trkpt>
      <trkpt lat="45.70925" lon="6.27603">
        <ele>1282</ele>
        <time>2026-03-15T12:18:37Z</time>
      </trkpt>
      <trkpt lat="45.70926" lon="6.27601">
        <ele>1282</ele>
        <time>2026-03-15T12:18:38Z</time>
      </trkpt>
      <trkpt lat="45.70927" lon="6.27598">
        <ele>1282</ele>
        <time>2026-03-15T12:18:39Z</time>
      </trkpt>
      <trkpt lat="45.70927" lon="6.27595">
        <ele>1282</ele>
        <time>2026-03-15T12:18:40Z</time>
      </trkpt>
      <trkpt lat="45.70928" lon="6.27592">
        <ele>1282</ele>
        <time>2026-03-15T12:18:41Z</time>
      </trkpt>
      <trkpt lat="45.70928" lon="6.27589">
        <ele>1282</ele>
        <time>2026-03-15T12:18:42Z</time>
      </trkpt>
      <trkpt lat="45.70928" lon="6.27586">
        <ele>1282</ele>
        <time>2026-03-15T12:18:43Z</time>
      </trkpt>
      <trkpt lat="45.70928" lon="6.27582">
        <ele>1282</ele>
        <time>2026-03-15T12:18:44Z</time>
      </trkpt>
      <trkpt lat="45.7093" lon="6.27579">
        <ele>1277</ele>
        <time>2026-03-15T12:18:45Z</time>
      </trkpt>
      <trkpt lat="45.70934" lon="6.27577">
        <ele>1277</ele>
        <time>2026-03-15T12:18:46Z</time>
      </trkpt>
      <trkpt lat="45.7094" lon="6.27579">
        <ele>1277</ele>
        <time>2026-03-15T12:18:47Z</time>
      </trkpt>
      <trkpt lat="45.70944" lon="6.27583">
        <ele>1277</ele>
        <time>2026-03-15T12:18:48Z</time>
      </trkpt>
      <trkpt lat="45.70947" lon="6.27586">
        <ele>1277</ele>
        <time>2026-03-15T12:18:49Z</time>
      </trkpt>
      <trkpt lat="45.70951" lon="6.27588">
        <ele>1277</ele>
        <time>2026-03-15T12:18:50Z</time>
      </trkpt>
      <trkpt lat="45.70953" lon="6.27586">
        <ele>1277</ele>
        <time>2026-03-15T12:18:51Z</time>
      </trkpt>
      <trkpt lat="45.7096" lon="6.27577">
        <ele>1277</ele>
        <time>2026-03-15T12:18:54Z</time>
      </trkpt>
      <trkpt lat="45.70963" lon="6.27579">
        <ele>1268</ele>
        <time>2026-03-15T12:18:55Z</time>
      </trkpt>
      <trkpt lat="45.70965" lon="6.27581">
        <ele>1268</ele>
        <time>2026-03-15T12:18:56Z</time>
      </trkpt>
      <trkpt lat="45.70968" lon="6.27582">
        <ele>1268</ele>
        <time>2026-03-15T12:18:57Z</time>
      </trkpt>
      <trkpt lat="45.7097" lon="6.27578">
        <ele>1268</ele>
        <time>2026-03-15T12:18:58Z</time>
      </trkpt>
      <trkpt lat="45.70971" lon="6.27573">
        <ele>1268</ele>
        <time>2026-03-15T12:18:59Z</time>
      </trkpt>
      <trkpt lat="45.70973" lon="6.2757">
        <ele>1268</ele>
        <time>2026-03-15T12:19:00Z</time>
      </trkpt>
      <trkpt lat="45.70977" lon="6.27568">
        <ele>1268</ele>
        <time>2026-03-15T12:19:01Z</time>
      </trkpt>
      <trkpt lat="45.70982" lon="6.27569">
        <ele>1268</ele>
        <time>2026-03-15T12:19:02Z</time>
      </trkpt>
      <trkpt lat="45.70985" lon="6.27574">
        <ele>1268</ele>
        <time>2026-03-15T12:19:03Z</time>
      </trkpt>
      <trkpt lat="45.70988" lon="6.27578">
        <ele>1268</ele>
        <time>2026-03-15T12:19:04Z</time>
      </trkpt>
      <trkpt lat="45.70989" lon="6.2758">
        <ele>1259</ele>
        <time>2026-03-15T12:19:05Z</time>
      </trkpt>
      <trkpt lat="45.7099" lon="6.27582">
        <ele>1259</ele>
        <time>2026-03-15T12:19:07Z</time>
      </trkpt>
      <trkpt lat="45.70999" lon="6.27581">
        <ele>1256</ele>
        <time>2026-03-15T12:19:39Z</time>
      </trkpt>
      <trkpt lat="45.71" lon="6.27564">
        <ele>1256</ele>
        <time>2026-03-15T12:19:42Z</time>
      </trkpt>
      <trkpt lat="45.71002" lon="6.27555">
        <ele>1256</ele>
        <time>2026-03-15T12:19:44Z</time>
      </trkpt>
      <trkpt lat="45.71006" lon="6.27555">
        <ele>1254</ele>
        <time>2026-03-15T12:19:45Z</time>
      </trkpt>
      <trkpt lat="45.71008" lon="6.27558">
        <ele>1254</ele>
        <time>2026-03-15T12:19:46Z</time>
      </trkpt>
      <trkpt lat="45.71011" lon="6.27563">
        <ele>1254</ele>
        <time>2026-03-15T12:19:47Z</time>
      </trkpt>
      <trkpt lat="45.71013" lon="6.27567">
        <ele>1254</ele>
        <time>2026-03-15T12:19:48Z</time>
      </trkpt>
      <trkpt lat="45.71016" lon="6.2757">
        <ele>1254</ele>
        <time>2026-03-15T12:19:49Z</time>
      </trkpt>
      <trkpt lat="45.7102" lon="6.27563">
        <ele>1254</ele>
        <time>2026-03-15T12:19:51Z</time>
      </trkpt>
      <trkpt lat="45.71021" lon="6.27558">
        <ele>1254</ele>
        <time>2026-03-15T12:19:52Z</time>
      </trkpt>
      <trkpt lat="45.71021" lon="6.27554">
        <ele>1254</ele>
        <time>2026-03-15T12:19:53Z</time>
      </trkpt>
      <trkpt lat="45.71021" lon="6.2755">
        <ele>1254</ele>
        <time>2026-03-15T12:19:54Z</time>
      </trkpt>
      <trkpt lat="45.71022" lon="6.27547">
        <ele>1250</ele>
        <time>2026-03-15T12:19:55Z</time>
      </trkpt>
      <trkpt lat="45.71026" lon="6.27547">
        <ele>1250</ele>
        <time>2026-03-15T12:19:56Z</time>
      </trkpt>
      <trkpt lat="45.7103" lon="6.2755">
        <ele>1250</ele>
        <time>2026-03-15T12:19:57Z</time>
      </trkpt>
      <trkpt lat="45.71031" lon="6.27555">
        <ele>1250</ele>
        <time>2026-03-15T12:19:58Z</time>
      </trkpt>
      <trkpt lat="45.71034" lon="6.2756">
        <ele>1250</ele>
        <time>2026-03-15T12:19:59Z</time>
      </trkpt>
      <trkpt lat="45.71037" lon="6.27561">
        <ele>1250</ele>
        <time>2026-03-15T12:20:00Z</time>
      </trkpt>
      <trkpt lat="45.71039" lon="6.2756">
        <ele>1250</ele>
        <time>2026-03-15T12:20:01Z</time>
      </trkpt>
      <trkpt lat="45.71041" lon="6.27556">
        <ele>1250</ele>
        <time>2026-03-15T12:20:02Z</time>
      </trkpt>
      <trkpt lat="45.71043" lon="6.27552">
        <ele>1250</ele>
        <time>2026-03-15T12:20:03Z</time>
      </trkpt>
      <trkpt lat="45.71045" lon="6.27549">
        <ele>1250</ele>
        <time>2026-03-15T12:20:04Z</time>
      </trkpt>
      <trkpt lat="45.71049" lon="6.27548">
        <ele>1238</ele>
        <time>2026-03-15T12:20:05Z</time>
      </trkpt>
      <trkpt lat="45.71052" lon="6.27551">
        <ele>1238</ele>
        <time>2026-03-15T12:20:06Z</time>
      </trkpt>
      <trkpt lat="45.71056" lon="6.27553">
        <ele>1238</ele>
        <time>2026-03-15T12:20:07Z</time>
      </trkpt>
      <trkpt lat="45.71059" lon="6.27554">
        <ele>1238</ele>
        <time>2026-03-15T12:20:08Z</time>
      </trkpt>
      <trkpt lat="45.71063" lon="6.27551">
        <ele>1238</ele>
        <time>2026-03-15T12:20:09Z</time>
      </trkpt>
      <trkpt lat="45.71066" lon="6.2755">
        <ele>1238</ele>
        <time>2026-03-15T12:20:10Z</time>
      </trkpt>
      <trkpt lat="45.71069" lon="6.27551">
        <ele>1238</ele>
        <time>2026-03-15T12:20:11Z</time>
      </trkpt>
      <trkpt lat="45.71072" lon="6.27552">
        <ele>1238</ele>
        <time>2026-03-15T12:20:12Z</time>
      </trkpt>
      <trkpt lat="45.71074" lon="6.27552">
        <ele>1238</ele>
        <time>2026-03-15T12:20:13Z</time>
      </trkpt>
      <trkpt lat="45.71077" lon="6.2755">
        <ele>1238</ele>
        <time>2026-03-15T12:20:14Z</time>
      </trkpt>
      <trkpt lat="45.71081" lon="6.27549">
        <ele>1231</ele>
        <time>2026-03-15T12:20:15Z</time>
      </trkpt>
      <trkpt lat="45.71084" lon="6.27551">
        <ele>1231</ele>
        <time>2026-03-15T12:20:16Z</time>
      </trkpt>
      <trkpt lat="45.71086" lon="6.27556">
        <ele>1231</ele>
        <time>2026-03-15T12:20:17Z</time>
      </trkpt>
      <trkpt lat="45.71087" lon="6.2756">
        <ele>1231</ele>
        <time>2026-03-15T12:20:18Z</time>
      </trkpt>
      <trkpt lat="45.71089" lon="6.27561">
        <ele>1231</ele>
        <time>2026-03-15T12:20:19Z</time>
      </trkpt>
      <trkpt lat="45.71091" lon="6.2756">
        <ele>1231</ele>
        <time>2026-03-15T12:20:20Z</time>
      </trkpt>
      <trkpt lat="45.71093" lon="6.27556">
        <ele>1231</ele>
        <time>2026-03-15T12:20:21Z</time>
      </trkpt>
      <trkpt lat="45.71096" lon="6.27554">
        <ele>1231</ele>
        <time>2026-03-15T12:20:22Z</time>
      </trkpt>
      <trkpt lat="45.71101" lon="6.2756">
        <ele>1231</ele>
        <time>2026-03-15T12:20:24Z</time>
      </trkpt>
      <trkpt lat="45.71104" lon="6.27563">
        <ele>1223</ele>
        <time>2026-03-15T12:20:25Z</time>
      </trkpt>
      <trkpt lat="45.71107" lon="6.27549">
        <ele>1223</ele>
        <time>2026-03-15T12:20:28Z</time>
      </trkpt>
      <trkpt lat="45.71108" lon="6.27544">
        <ele>1223</ele>
        <time>2026-03-15T12:20:29Z</time>
      </trkpt>
      <trkpt lat="45.71108" lon="6.2754">
        <ele>1223</ele>
        <time>2026-03-15T12:20:30Z</time>
      </trkpt>
      <trkpt lat="45.71108" lon="6.27537">
        <ele>1223</ele>
        <time>2026-03-15T12:20:31Z</time>
      </trkpt>
      <trkpt lat="45.71108" lon="6.27534">
        <ele>1217</ele>
        <time>2026-03-15T12:21:04Z</time>
      </trkpt>
      <trkpt lat="45.71111" lon="6.27534">
        <ele>1215</ele>
        <time>2026-03-15T12:21:06Z</time>
      </trkpt>
      <trkpt lat="45.71114" lon="6.27535">
        <ele>1215</ele>
        <time>2026-03-15T12:21:07Z</time>
      </trkpt>
      <trkpt lat="45.71116" lon="6.2754">
        <ele>1215</ele>
        <time>2026-03-15T12:21:08Z</time>
      </trkpt>
      <trkpt lat="45.71116" lon="6.27545">
        <ele>1215</ele>
        <time>2026-03-15T12:21:09Z</time>
      </trkpt>
      <trkpt lat="45.71117" lon="6.27549">
        <ele>1215</ele>
        <time>2026-03-15T12:21:10Z</time>
      </trkpt>
      <trkpt lat="45.71119" lon="6.2755">
        <ele>1215</ele>
        <time>2026-03-15T12:21:11Z</time>
      </trkpt>
      <trkpt lat="45.71121" lon="6.27548">
        <ele>1215</ele>
        <time>2026-03-15T12:21:12Z</time>
      </trkpt>
      <trkpt lat="45.71122" lon="6.27543">
        <ele>1215</ele>
        <time>2026-03-15T12:21:13Z</time>
      </trkpt>
      <trkpt lat="45.71124" lon="6.27539">
        <ele>1215</ele>
        <time>2026-03-15T12:21:14Z</time>
      </trkpt>
      <trkpt lat="45.71127" lon="6.27538">
        <ele>1213</ele>
        <time>2026-03-15T12:21:15Z</time>
      </trkpt>
      <trkpt lat="45.7113" lon="6.27541">
        <ele>1213</ele>
        <time>2026-03-15T12:21:16Z</time>
      </trkpt>
      <trkpt lat="45.71132" lon="6.27545">
        <ele>1213</ele>
        <time>2026-03-15T12:21:17Z</time>
      </trkpt>
      <trkpt lat="45.71133" lon="6.27548">
        <ele>1213</ele>
        <time>2026-03-15T12:21:18Z</time>
      </trkpt>
      <trkpt lat="45.71136" lon="6.27549">
        <ele>1213</ele>
        <time>2026-03-15T12:21:19Z</time>
      </trkpt>
      <trkpt lat="45.71138" lon="6.27547">
        <ele>1213</ele>
        <time>2026-03-15T12:21:20Z</time>
      </trkpt>
      <trkpt lat="45.71139" lon="6.27543">
        <ele>1213</ele>
        <time>2026-03-15T12:21:21Z</time>
      </trkpt>
      <trkpt lat="45.71141" lon="6.2754">
        <ele>1213</ele>
        <time>2026-03-15T12:21:22Z</time>
      </trkpt>
      <trkpt lat="45.71142" lon="6.27537">
        <ele>1213</ele>
        <time>2026-03-15T12:21:23Z</time>
      </trkpt>
      <trkpt lat="45.71144" lon="6.27534">
        <ele>1213</ele>
        <time>2026-03-15T12:21:24Z</time>
      </trkpt>
      <trkpt lat="45.71148" lon="6.27533">
        <ele>1204</ele>
        <time>2026-03-15T12:21:25Z</time>
      </trkpt>
      <trkpt lat="45.71151" lon="6.27537">
        <ele>1204</ele>
        <time>2026-03-15T12:21:26Z</time>
      </trkpt>
      <trkpt lat="45.71153" lon="6.27542">
        <ele>1204</ele>
        <time>2026-03-15T12:21:27Z</time>
      </trkpt>
      <trkpt lat="45.71156" lon="6.27546">
        <ele>1204</ele>
        <time>2026-03-15T12:21:28Z</time>
      </trkpt>
      <trkpt lat="45.71159" lon="6.27545">
        <ele>1204</ele>
        <time>2026-03-15T12:21:29Z</time>
      </trkpt>
      <trkpt lat="45.7116" lon="6.27542">
        <ele>1204</ele>
        <time>2026-03-15T12:21:30Z</time>
      </trkpt>
      <trkpt lat="45.71161" lon="6.27538">
        <ele>1204</ele>
        <time>2026-03-15T12:21:31Z</time>
      </trkpt>
      <trkpt lat="45.71163" lon="6.27534">
        <ele>1204</ele>
        <time>2026-03-15T12:21:32Z</time>
      </trkpt>
      <trkpt lat="45.71166" lon="6.27532">
        <ele>1204</ele>
        <time>2026-03-15T12:21:33Z</time>
      </trkpt>
      <trkpt lat="45.71169" lon="6.27536">
        <ele>1204</ele>
        <time>2026-03-15T12:21:34Z</time>
      </trkpt>
      <trkpt lat="45.71172" lon="6.27541">
        <ele>1194</ele>
        <time>2026-03-15T12:21:35Z</time>
      </trkpt>
      <trkpt lat="45.71173" lon="6.27546">
        <ele>1194</ele>
        <time>2026-03-15T12:21:36Z</time>
      </trkpt>
      <trkpt lat="45.71176" lon="6.27549">
        <ele>1194</ele>
        <time>2026-03-15T12:21:37Z</time>
      </trkpt>
      <trkpt lat="45.71179" lon="6.27548">
        <ele>1194</ele>
        <time>2026-03-15T12:21:38Z</time>
      </trkpt>
      <trkpt lat="45.7118" lon="6.27545">
        <ele>1194</ele>
        <time>2026-03-15T12:21:39Z</time>
      </trkpt>
      <trkpt lat="45.71181" lon="6.27541">
        <ele>1194</ele>
        <time>2026-03-15T12:21:40Z</time>
      </trkpt>
      <trkpt lat="45.71181" lon="6.27537">
        <ele>1194</ele>
        <time>2026-03-15T12:21:41Z</time>
      </trkpt>
      <trkpt lat="45.71182" lon="6.27533">
        <ele>1194</ele>
        <time>2026-03-15T12:21:42Z</time>
      </trkpt>
      <trkpt lat="45.71182" lon="6.27527">
        <ele>1194</ele>
        <time>2026-03-15T12:21:43Z</time>
      </trkpt>
      <trkpt lat="45.71182" lon="6.27522">
        <ele>1194</ele>
        <time>2026-03-15T12:21:44Z</time>
      </trkpt>
      <trkpt lat="45.71183" lon="6.27517">
        <ele>1188</ele>
        <time>2026-03-15T12:21:45Z</time>
      </trkpt>
      <trkpt lat="45.71185" lon="6.27513">
        <ele>1188</ele>
        <time>2026-03-15T12:21:46Z</time>
      </trkpt>
      <trkpt lat="45.71186" lon="6.27508">
        <ele>1188</ele>
        <time>2026-03-15T12:21:47Z</time>
      </trkpt>
      <trkpt lat="45.71188" lon="6.27504">
        <ele>1188</ele>
        <time>2026-03-15T12:21:48Z</time>
      </trkpt>
      <trkpt lat="45.71189" lon="6.27501">
        <ele>1188</ele>
        <time>2026-03-15T12:21:49Z</time>
      </trkpt>
      <trkpt lat="45.7119" lon="6.27497">
        <ele>1188</ele>
        <time>2026-03-15T12:21:50Z</time>
      </trkpt>
      <trkpt lat="45.71192" lon="6.27494">
        <ele>1188</ele>
        <time>2026-03-15T12:21:51Z</time>
      </trkpt>
      <trkpt lat="45.71194" lon="6.27492">
        <ele>1188</ele>
        <time>2026-03-15T12:21:52Z</time>
      </trkpt>
      <trkpt lat="45.71197" lon="6.2749">
        <ele>1188</ele>
        <time>2026-03-15T12:21:53Z</time>
      </trkpt>
      <trkpt lat="45.712" lon="6.27493">
        <ele>1188</ele>
        <time>2026-03-15T12:21:54Z</time>
      </trkpt>
      <trkpt lat="45.712" lon="6.27498">
        <ele>1185</ele>
        <time>2026-03-15T12:21:55Z</time>
      </trkpt>
      <trkpt lat="45.71201" lon="6.27502">
        <ele>1185</ele>
        <time>2026-03-15T12:21:56Z</time>
      </trkpt>
      <trkpt lat="45.71201" lon="6.27505">
        <ele>1185</ele>
        <time>2026-03-15T12:21:57Z</time>
      </trkpt>
      <trkpt lat="45.71202" lon="6.27509">
        <ele>1185</ele>
        <time>2026-03-15T12:21:58Z</time>
      </trkpt>
      <trkpt lat="45.71204" lon="6.27511">
        <ele>1185</ele>
        <time>2026-03-15T12:21:59Z</time>
      </trkpt>
      <trkpt lat="45.71207" lon="6.2751">
        <ele>1185</ele>
        <time>2026-03-15T12:22:00Z</time>
      </trkpt>
      <trkpt lat="45.71208" lon="6.27507">
        <ele>1185</ele>
        <time>2026-03-15T12:22:01Z</time>
      </trkpt>
      <trkpt lat="45.7121" lon="6.27505">
        <ele>1185</ele>
        <time>2026-03-15T12:22:02Z</time>
      </trkpt>
      <trkpt lat="45.71211" lon="6.27502">
        <ele>1185</ele>
        <time>2026-03-15T12:22:03Z</time>
      </trkpt>
      <trkpt lat="45.71214" lon="6.275">
        <ele>1185</ele>
        <time>2026-03-15T12:22:04Z</time>
      </trkpt>
      <trkpt lat="45.71217" lon="6.27503">
        <ele>1177</ele>
        <time>2026-03-15T12:22:05Z</time>
      </trkpt>
      <trkpt lat="45.71218" lon="6.27509">
        <ele>1177</ele>
        <time>2026-03-15T12:22:06Z</time>
      </trkpt>
      <trkpt lat="45.71219" lon="6.27513">
        <ele>1177</ele>
        <time>2026-03-15T12:22:07Z</time>
      </trkpt>
      <trkpt lat="45.71219" lon="6.27518">
        <ele>1177</ele>
        <time>2026-03-15T12:22:08Z</time>
      </trkpt>
      <trkpt lat="45.71221" lon="6.27522">
        <ele>1177</ele>
        <time>2026-03-15T12:22:09Z</time>
      </trkpt>
      <trkpt lat="45.71223" lon="6.27524">
        <ele>1177</ele>
        <time>2026-03-15T12:22:10Z</time>
      </trkpt>
      <trkpt lat="45.71226" lon="6.27523">
        <ele>1177</ele>
        <time>2026-03-15T12:22:11Z</time>
      </trkpt>
      <trkpt lat="45.71227" lon="6.2752">
        <ele>1177</ele>
        <time>2026-03-15T12:22:12Z</time>
      </trkpt>
      <trkpt lat="45.71228" lon="6.27517">
        <ele>1177</ele>
        <time>2026-03-15T12:22:13Z</time>
      </trkpt>
      <trkpt lat="45.7123" lon="6.27514">
        <ele>1177</ele>
        <time>2026-03-15T12:22:14Z</time>
      </trkpt>
      <trkpt lat="45.71231" lon="6.27512">
        <ele>1168</ele>
        <time>2026-03-15T12:22:15Z</time>
      </trkpt>
      <trkpt lat="45.71233" lon="6.27509">
        <ele>1168</ele>
        <time>2026-03-15T12:22:16Z</time>
      </trkpt>
      <trkpt lat="45.71236" lon="6.27507">
        <ele>1168</ele>
        <time>2026-03-15T12:22:17Z</time>
      </trkpt>
      <trkpt lat="45.7124" lon="6.27509">
        <ele>1168</ele>
        <time>2026-03-15T12:22:18Z</time>
      </trkpt>
      <trkpt lat="45.71241" lon="6.27514">
        <ele>1168</ele>
        <time>2026-03-15T12:22:19Z</time>
      </trkpt>
      <trkpt lat="45.71242" lon="6.27519">
        <ele>1168</ele>
        <time>2026-03-15T12:22:20Z</time>
      </trkpt>
      <trkpt lat="45.71242" lon="6.27525">
        <ele>1168</ele>
        <time>2026-03-15T12:22:21Z</time>
      </trkpt>
      <trkpt lat="45.71243" lon="6.27529">
        <ele>1168</ele>
        <time>2026-03-15T12:22:22Z</time>
      </trkpt>
      <trkpt lat="45.71246" lon="6.27531">
        <ele>1168</ele>
        <time>2026-03-15T12:22:23Z</time>
      </trkpt>
      <trkpt lat="45.71249" lon="6.27529">
        <ele>1168</ele>
        <time>2026-03-15T12:22:24Z</time>
      </trkpt>
      <trkpt lat="45.71251" lon="6.27525">
        <ele>1161</ele>
        <time>2026-03-15T12:22:25Z</time>
      </trkpt>
      <trkpt lat="45.71255" lon="6.27524">
        <ele>1161</ele>
        <time>2026-03-15T12:22:26Z</time>
      </trkpt>
      <trkpt lat="45.7126" lon="6.27531">
        <ele>1161</ele>
        <time>2026-03-15T12:22:28Z</time>
      </trkpt>
      <trkpt lat="45.71261" lon="6.27537">
        <ele>1161</ele>
        <time>2026-03-15T12:22:29Z</time>
      </trkpt>
      <trkpt lat="45.71261" lon="6.27541">
        <ele>1161</ele>
        <time>2026-03-15T12:22:30Z</time>
      </trkpt>
      <trkpt lat="45.71261" lon="6.27546">
        <ele>1161</ele>
        <time>2026-03-15T12:22:31Z</time>
      </trkpt>
      <trkpt lat="45.71261" lon="6.27551">
        <ele>1161</ele>
        <time>2026-03-15T12:22:32Z</time>
      </trkpt>
      <trkpt lat="45.71264" lon="6.27565">
        <ele>1154</ele>
        <time>2026-03-15T12:22:35Z</time>
      </trkpt>
      <trkpt lat="45.71265" lon="6.2757">
        <ele>1154</ele>
        <time>2026-03-15T12:22:36Z</time>
      </trkpt>
      <trkpt lat="45.71266" lon="6.27574">
        <ele>1154</ele>
        <time>2026-03-15T12:22:37Z</time>
      </trkpt>
      <trkpt lat="45.71267" lon="6.27576">
        <ele>1154</ele>
        <time>2026-03-15T12:22:38Z</time>
      </trkpt>
      <trkpt lat="45.71267" lon="6.27577">
        <ele>1152</ele>
        <time>2026-03-15T12:22:51Z</time>
      </trkpt>
      <trkpt lat="45.71269" lon="6.27579">
        <ele>1151</ele>
        <time>2026-03-15T12:22:57Z</time>
      </trkpt>
      <trkpt lat="45.71276" lon="6.27575">
        <ele>1151</ele>
        <time>2026-03-15T12:23:00Z</time>
      </trkpt>
      <trkpt lat="45.7128" lon="6.27576">
        <ele>1151</ele>
        <time>2026-03-15T12:23:01Z</time>
      </trkpt>
      <trkpt lat="45.71282" lon="6.2758">
        <ele>1151</ele>
        <time>2026-03-15T12:23:02Z</time>
      </trkpt>
      <trkpt lat="45.71283" lon="6.27585">
        <ele>1151</ele>
        <time>2026-03-15T12:23:03Z</time>
      </trkpt>
      <trkpt lat="45.71286" lon="6.27587">
        <ele>1151</ele>
        <time>2026-03-15T12:23:04Z</time>
      </trkpt>
      <trkpt lat="45.71288" lon="6.27587">
        <ele>1148</ele>
        <time>2026-03-15T12:23:05Z</time>
      </trkpt>
      <trkpt lat="45.71291" lon="6.27585">
        <ele>1148</ele>
        <time>2026-03-15T12:23:06Z</time>
      </trkpt>
      <trkpt lat="45.71294" lon="6.27586">
        <ele>1148</ele>
        <time>2026-03-15T12:23:07Z</time>
      </trkpt>
      <trkpt lat="45.71296" lon="6.27591">
        <ele>1148</ele>
        <time>2026-03-15T12:23:08Z</time>
      </trkpt>
      <trkpt lat="45.71298" lon="6.27595">
        <ele>1148</ele>
        <time>2026-03-15T12:23:09Z</time>
      </trkpt>
      <trkpt lat="45.71299" lon="6.27599">
        <ele>1148</ele>
        <time>2026-03-15T12:23:10Z</time>
      </trkpt>
      <trkpt lat="45.71301" lon="6.27602">
        <ele>1148</ele>
        <time>2026-03-15T12:23:11Z</time>
      </trkpt>
      <trkpt lat="45.71303" lon="6.27604">
        <ele>1148</ele>
        <time>2026-03-15T12:23:12Z</time>
      </trkpt>
      <trkpt lat="45.71306" lon="6.27603">
        <ele>1148</ele>
        <time>2026-03-15T12:23:13Z</time>
      </trkpt>
      <trkpt lat="45.7131" lon="6.27604">
        <ele>1148</ele>
        <time>2026-03-15T12:23:14Z</time>
      </trkpt>
      <trkpt lat="45.71312" lon="6.27607">
        <ele>1141</ele>
        <time>2026-03-15T12:23:15Z</time>
      </trkpt>
      <trkpt lat="45.71314" lon="6.2761">
        <ele>1141</ele>
        <time>2026-03-15T12:23:16Z</time>
      </trkpt>
      <trkpt lat="45.71315" lon="6.27613">
        <ele>1141</ele>
        <time>2026-03-15T12:23:17Z</time>
      </trkpt>
      <trkpt lat="45.71316" lon="6.27615">
        <ele>1141</ele>
        <time>2026-03-15T12:23:19Z</time>
      </trkpt>
      <trkpt lat="45.71318" lon="6.27618">
        <ele>1141</ele>
        <time>2026-03-15T12:23:21Z</time>
      </trkpt>
      <trkpt lat="45.71318" lon="6.2762">
        <ele>1139</ele>
        <time>2026-03-15T12:23:26Z</time>
      </trkpt>
      <trkpt lat="45.71319" lon="6.27619">
        <ele>1137</ele>
        <time>2026-03-15T12:23:37Z</time>
      </trkpt>
      <trkpt lat="45.71321" lon="6.27617">
        <ele>1137</ele>
        <time>2026-03-15T12:24:04Z</time>
      </trkpt>
      <trkpt lat="45.71323" lon="6.27618">
        <ele>1137</ele>
        <time>2026-03-15T12:24:54Z</time>
      </trkpt>
      <trkpt lat="45.71328" lon="6.27621">
        <ele>1136</ele>
        <time>2026-03-15T12:25:06Z</time>
      </trkpt>
      <trkpt lat="45.71326" lon="6.2762">
        <ele>1136</ele>
        <time>2026-03-15T12:25:17Z</time>
      </trkpt>
      <trkpt lat="45.71323" lon="6.27617">
        <ele>1136</ele>
        <time>2026-03-15T12:25:20Z</time>
      </trkpt>
      <trkpt lat="45.71322" lon="6.27615">
        <ele>1136</ele>
        <time>2026-03-15T12:25:30Z</time>
      </trkpt>
      <trkpt lat="45.7132" lon="6.27616">
        <ele>1136</ele>
        <time>2026-03-15T12:26:16Z</time>
      </trkpt>
      <trkpt lat="45.71321" lon="6.27613">
        <ele>1136</ele>
        <time>2026-03-15T12:26:42Z</time>
      </trkpt>
      <trkpt lat="45.71323" lon="6.27609">
        <ele>1137</ele>
        <time>2026-03-15T12:26:48Z</time>
      </trkpt>
      <trkpt lat="45.71323" lon="6.27612">
        <ele>1137</ele>
        <time>2026-03-15T12:27:02Z</time>
      </trkpt>
      <trkpt lat="45.71323" lon="6.27615">
        <ele>1137</ele>
        <time>2026-03-15T12:27:23Z</time>
      </trkpt>
      <trkpt lat="45.71321" lon="6.27615">
        <ele>1137</ele>
        <time>2026-03-15T12:27:32Z</time>
      </trkpt>
      <trkpt lat="45.71321" lon="6.27611">
        <ele>1137</ele>
        <time>2026-03-15T12:27:42Z</time>
      </trkpt>
      <trkpt lat="45.71321" lon="6.27608">
        <ele>1138</ele>
        <time>2026-03-15T12:27:45Z</time>
      </trkpt>
      <trkpt lat="45.71321" lon="6.27604">
        <ele>1138</ele>
        <time>2026-03-15T12:27:48Z</time>
      </trkpt>
      <trkpt lat="45.71322" lon="6.27601">
        <ele>1138</ele>
        <time>2026-03-15T12:27:51Z</time>
      </trkpt>
      <trkpt lat="45.71322" lon="6.27598">
        <ele>1138</ele>
        <time>2026-03-15T12:27:54Z</time>
      </trkpt>
      <trkpt lat="45.71322" lon="6.27595">
        <ele>1138</ele>
        <time>2026-03-15T12:27:57Z</time>
      </trkpt>
      <trkpt lat="45.71322" lon="6.27592">
        <ele>1138</ele>
        <time>2026-03-15T12:28:01Z</time>
      </trkpt>
      <trkpt lat="45.71322" lon="6.27589">
        <ele>1136</ele>
        <time>2026-03-15T12:28:05Z</time>
      </trkpt>
      <trkpt lat="45.71322" lon="6.27586">
        <ele>1136</ele>
        <time>2026-03-15T12:28:10Z</time>
      </trkpt>
      <trkpt lat="45.71321" lon="6.27584">
        <ele>1136</ele>
        <time>2026-03-15T12:28:23Z</time>
      </trkpt>
      <trkpt lat="45.71321" lon="6.27581">
        <ele>1136</ele>
        <time>2026-03-15T12:28:26Z</time>
      </trkpt>
      <trkpt lat="45.71321" lon="6.27578">
        <ele>1136</ele>
        <time>2026-03-15T12:28:29Z</time>
      </trkpt>
      <trkpt lat="45.71322" lon="6.27575">
        <ele>1136</ele>
        <time>2026-03-15T12:28:32Z</time>
      </trkpt>
      <trkpt lat="45.71324" lon="6.27573">
        <ele>1135</ele>
        <time>2026-03-15T12:28:35Z</time>
      </trkpt>
      <trkpt lat="45.71325" lon="6.2757">
        <ele>1135</ele>
        <time>2026-03-15T12:28:38Z</time>
      </trkpt>
      <trkpt lat="45.71325" lon="6.27567">
        <ele>1135</ele>
        <time>2026-03-15T12:28:41Z</time>
      </trkpt>
      <trkpt lat="45.71326" lon="6.27564">
        <ele>1135</ele>
        <time>2026-03-15T12:28:44Z</time>
      </trkpt>
      <trkpt lat="45.71327" lon="6.27562">
        <ele>1135</ele>
        <time>2026-03-15T12:28:47Z</time>
      </trkpt>
      <trkpt lat="45.71328" lon="6.27559">
        <ele>1135</ele>
        <time>2026-03-15T12:28:50Z</time>
      </trkpt>
      <trkpt lat="45.71329" lon="6.27556">
        <ele>1135</ele>
        <time>2026-03-15T12:28:53Z</time>
      </trkpt>
      <trkpt lat="45.71329" lon="6.27553">
        <ele>1134</ele>
        <time>2026-03-15T12:28:56Z</time>
      </trkpt>
      <trkpt lat="45.7133" lon="6.2755">
        <ele>1134</ele>
        <time>2026-03-15T12:28:59Z</time>
      </trkpt>
      <trkpt lat="45.7133" lon="6.27548">
        <ele>1134</ele>
        <time>2026-03-15T12:29:01Z</time>
      </trkpt>
      <trkpt lat="45.7133" lon="6.27544">
        <ele>1134</ele>
        <time>2026-03-15T12:29:04Z</time>
      </trkpt>
      <trkpt lat="45.7133" lon="6.27541">
        <ele>1132</ele>
        <time>2026-03-15T12:29:07Z</time>
      </trkpt>
      <trkpt lat="45.7133" lon="6.27538">
        <ele>1132</ele>
        <time>2026-03-15T12:29:10Z</time>
      </trkpt>
      <trkpt lat="45.7133" lon="6.27535">
        <ele>1132</ele>
        <time>2026-03-15T12:29:13Z</time>
      </trkpt>
      <trkpt lat="45.7133" lon="6.27531">
        <ele>1133</ele>
        <time>2026-03-15T12:29:16Z</time>
      </trkpt>
      <trkpt lat="45.71329" lon="6.27528">
        <ele>1133</ele>
        <time>2026-03-15T12:29:19Z</time>
      </trkpt>
      <trkpt lat="45.71329" lon="6.27525">
        <ele>1133</ele>
        <time>2026-03-15T12:29:23Z</time>
      </trkpt>
      <trkpt lat="45.71328" lon="6.27521">
        <ele>1133</ele>
        <time>2026-03-15T12:29:26Z</time>
      </trkpt>
      <trkpt lat="45.71327" lon="6.27518">
        <ele>1133</ele>
        <time>2026-03-15T12:29:29Z</time>
      </trkpt>
      <trkpt lat="45.71326" lon="6.27515">
        <ele>1133</ele>
        <time>2026-03-15T12:29:32Z</time>
      </trkpt>
      <trkpt lat="45.71326" lon="6.27512">
        <ele>1133</ele>
        <time>2026-03-15T12:29:35Z</time>
      </trkpt>
      <trkpt lat="45.71326" lon="6.27508">
        <ele>1133</ele>
        <time>2026-03-15T12:29:38Z</time>
      </trkpt>
      <trkpt lat="45.71326" lon="6.27505">
        <ele>1133</ele>
        <time>2026-03-15T12:29:41Z</time>
      </trkpt>
      <trkpt lat="45.71326" lon="6.27501">
        <ele>1133</ele>
        <time>2026-03-15T12:29:44Z</time>
      </trkpt>
      <trkpt lat="45.71326" lon="6.27498">
        <ele>1133</ele>
        <time>2026-03-15T12:29:47Z</time>
      </trkpt>
      <trkpt lat="45.71326" lon="6.27495">
        <ele>1133</ele>
        <time>2026-03-15T12:29:49Z</time>
      </trkpt>
      <trkpt lat="45.71326" lon="6.27492">
        <ele>1133</ele>
        <time>2026-03-15T12:29:52Z</time>
      </trkpt>
      <trkpt lat="45.71327" lon="6.27489">
        <ele>1133</ele>
        <time>2026-03-15T12:29:55Z</time>
      </trkpt>
      <trkpt lat="45.71332" lon="6.27477">
        <ele>1132</ele>
        <time>2026-03-15T12:30:06Z</time>
      </trkpt>
      <trkpt lat="45.71338" lon="6.27468">
        <ele>1132</ele>
        <time>2026-03-15T12:30:19Z</time>
      </trkpt>
      <trkpt lat="45.71341" lon="6.27464">
        <ele>1132</ele>
        <time>2026-03-15T12:30:24Z</time>
      </trkpt>
      <trkpt lat="45.71342" lon="6.27462">
        <ele>1132</ele>
        <time>2026-03-15T12:30:27Z</time>
      </trkpt>
      <trkpt lat="45.71343" lon="6.27459">
        <ele>1132</ele>
        <time>2026-03-15T12:30:30Z</time>
      </trkpt>
      <trkpt lat="45.71343" lon="6.27444">
        <ele>1132</ele>
        <time>2026-03-15T12:30:41Z</time>
      </trkpt>
      <trkpt lat="45.71351" lon="6.27439">
        <ele>1131</ele>
        <time>2026-03-15T12:30:53Z</time>
      </trkpt>
      <trkpt lat="45.71353" lon="6.2744">
        <ele>1131</ele>
        <time>2026-03-15T12:31:15Z</time>
      </trkpt>
      <trkpt lat="45.71354" lon="6.27442">
        <ele>1131</ele>
        <time>2026-03-15T12:31:23Z</time>
      </trkpt>
      <trkpt lat="45.71355" lon="6.27444">
        <ele>1132</ele>
        <time>2026-03-15T12:31:41Z</time>
      </trkpt>
      <trkpt lat="45.71358" lon="6.27443">
        <ele>1132</ele>
        <time>2026-03-15T12:31:56Z</time>
      </trkpt>
      <trkpt lat="45.71356" lon="6.2744">
        <ele>1131</ele>
        <time>2026-03-15T12:32:19Z</time>
      </trkpt>
      <trkpt lat="45.71357" lon="6.27443">
        <ele>1131</ele>
        <time>2026-03-15T12:32:32Z</time>
      </trkpt>
      <trkpt lat="45.71355" lon="6.27446">
        <ele>1131</ele>
        <time>2026-03-15T12:32:34Z</time>
      </trkpt>
      <trkpt lat="45.71356" lon="6.27452">
        <ele>1130</ele>
        <time>2026-03-15T12:32:55Z</time>
      </trkpt>
      <trkpt lat="45.71359" lon="6.27453">
        <ele>1129</ele>
        <time>2026-03-15T12:33:07Z</time>
      </trkpt>
      <trkpt lat="45.71358" lon="6.27451">
        <ele>1129</ele>
        <time>2026-03-15T12:33:14Z</time>
      </trkpt>
      <trkpt lat="45.71355" lon="6.2745">
        <ele>1130</ele>
        <time>2026-03-15T12:33:34Z</time>
      </trkpt>
      <trkpt lat="45.71355" lon="6.27453">
        <ele>1129</ele>
        <time>2026-03-15T12:34:07Z</time>
      </trkpt>
      <trkpt lat="45.71358" lon="6.27455">
        <ele>1129</ele>
        <time>2026-03-15T12:34:19Z</time>
      </trkpt>
    </trkseg>
  </trk>
</gpx>